<?xml version="1.0" encoding="UTF-8" standalone="no" ?><gpx xmlns="http://www.topografix.com/GPX/1/1" xmlns:gpxx="http://www.garmin.com/xmlschemas/GpxExtensions/v3" xmlns:gpxtrkx="http://www.garmin.com/xmlschemas/TrackStatsExtension/v1" xmlns:wptx1="http://www.garmin.com/xmlschemas/WaypointExtension/v1" xmlns:gpxtpx="http://www.garmin.com/xmlschemas/TrackPointExtension/v1" creator="GPSMAP 64st" version="1.1" xmlns:xsi="http://www.w3.org/2001/XMLSchema-instance" xsi:schemaLocation="http://www.topografix.com/GPX/1/1 http://www.topografix.com/GPX/1/1/gpx.xsd http://www.garmin.com/xmlschemas/GpxExtensions/v3 http://www8.garmin.com/xmlschemas/GpxExtensionsv3.xsd http://www.garmin.com/xmlschemas/TrackStatsExtension/v1 http://www8.garmin.com/xmlschemas/TrackStatsExtension.xsd http://www.garmin.com/xmlschemas/WaypointExtension/v1 http://www8.garmin.com/xmlschemas/WaypointExtensionv1.xsd http://www.garmin.com/xmlschemas/TrackPointExtension/v1 http://www.garmin.com/xmlschemas/TrackPointExtensionv1.xsd"><metadata><link href="http://www.garmin.com"><text>Garmin International</text></link><time>2026-08-15T21:24:04Z</time></metadata><trk><name>2026-08-16 00:24:01</name><extensions><gpxx:TrackExtension><gpxx:DisplayColor>Red</gpxx:DisplayColor></gpxx:TrackExtension><gpxtrkx:TrackStatsExtension><gpxtrkx:Distance>21838</gpxtrkx:Distance><gpxtrkx:TotalElapsedTime>45017</gpxtrkx:TotalElapsedTime><gpxtrkx:MovingTime>35507</gpxtrkx:MovingTime><gpxtrkx:StoppedTime>8220</gpxtrkx:StoppedTime><gpxtrkx:MovingSpeed>1</gpxtrkx:MovingSpeed><gpxtrkx:MaxSpeed>6</gpxtrkx:MaxSpeed><gpxtrkx:MaxElevation>175</gpxtrkx:MaxElevation><gpxtrkx:MinElevation>154</gpxtrkx:MinElevation><gpxtrkx:Ascent>107</gpxtrkx:Ascent><gpxtrkx:Descent>107</gpxtrkx:Descent><gpxtrkx:AvgAscentRate>0</gpxtrkx:AvgAscentRate><gpxtrkx:MaxAscentRate>0</gpxtrkx:MaxAscentRate><gpxtrkx:AvgDescentRate>0</gpxtrkx:AvgDescentRate><gpxtrkx:MaxDescentRate>-0</gpxtrkx:MaxDescentRate></gpxtrkx:TrackStatsExtension></extensions><trkseg><trkpt lat="59.3584329821" lon="34.7080440726"><ele>159.51</ele><time>2026-08-15T08:53:47Z</time></trkpt><trkpt lat="59.3584328983" lon="34.7080448270"><ele>159.51</ele><time>2026-08-15T08:53:48Z</time></trkpt><trkpt lat="59.3584184814" lon="34.7080347687"><ele>160.23</ele><time>2026-08-15T08:54:18Z</time></trkpt><trkpt lat="59.3584183138" lon="34.7080313321"><ele>160.22</ele><time>2026-08-15T08:54:27Z</time></trkpt><trkpt lat="59.3599113822" lon="34.7051540762"><ele>162.46</ele><time>2026-08-15T09:14:34Z</time></trkpt><trkpt lat="59.3598805368" lon="34.7051938903"><ele>162.65</ele><time>2026-08-15T09:14:40Z</time></trkpt><trkpt lat="59.3599026650" lon="34.7052309383"><ele>162.85</ele><time>2026-08-15T09:15:03Z</time></trkpt><trkpt lat="59.3599148188" lon="34.7051224764"><ele>162.12</ele><time>2026-08-15T09:15:20Z</time></trkpt><trkpt lat="59.3599560577" lon="34.7049954068"><ele>161.60</ele><time>2026-08-15T09:15:36Z</time></trkpt><trkpt lat="59.3600501865" lon="34.7049574368"><ele>159.98</ele><time>2026-08-15T09:15:59Z</time></trkpt><trkpt lat="59.3601952773" lon="34.7048208117"><ele>160.18</ele><time>2026-08-15T09:16:20Z</time></trkpt><trkpt lat="59.3602829520" lon="34.7046320513"><ele>159.86</ele><time>2026-08-15T09:16:37Z</time></trkpt><trkpt lat="59.3603722192" lon="34.7043209989"><ele>160.30</ele><time>2026-08-15T09:16:56Z</time></trkpt><trkpt lat="59.3604575470" lon="34.7041574679"><ele>160.38</ele><time>2026-08-15T09:17:10Z</time></trkpt><trkpt lat="59.3605887238" lon="34.7039229423"><ele>160.30</ele><time>2026-08-15T09:17:32Z</time></trkpt><trkpt lat="59.3606350757" lon="34.7036266420"><ele>159.53</ele><time>2026-08-15T09:17:47Z</time></trkpt><trkpt lat="59.3607340660" lon="34.7034126520"><ele>158.98</ele><time>2026-08-15T09:18:04Z</time></trkpt><trkpt lat="59.3608592916" lon="34.7032365482"><ele>159.15</ele><time>2026-08-15T09:18:22Z</time></trkpt><trkpt lat="59.3609694298" lon="34.7030769568"><ele>158.71</ele><time>2026-08-15T09:18:45Z</time></trkpt><trkpt lat="59.3610353954" lon="34.7027400881"><ele>158.66</ele><time>2026-08-15T09:19:03Z</time></trkpt><trkpt lat="59.3610390835" lon="34.7026594542"><ele>158.17</ele><time>2026-08-15T09:19:24Z</time></trkpt><trkpt lat="59.3610238284" lon="34.7027094942"><ele>158.23</ele><time>2026-08-15T09:19:48Z</time></trkpt><trkpt lat="59.3609896302" lon="34.7026809957"><ele>157.96</ele><time>2026-08-15T09:20:19Z</time></trkpt><trkpt lat="59.3610141054" lon="34.7026504017"><ele>157.84</ele><time>2026-08-15T09:20:49Z</time></trkpt><trkpt lat="59.3610488065" lon="34.7026356496"><ele>157.99</ele><time>2026-08-15T09:21:21Z</time></trkpt><trkpt lat="59.3610171229" lon="34.7026411816"><ele>158.28</ele><time>2026-08-15T09:21:56Z</time></trkpt><trkpt lat="59.3610735331" lon="34.7025663313"><ele>158.54</ele><time>2026-08-15T09:22:16Z</time></trkpt><trkpt lat="59.3611572683" lon="34.7023273632"><ele>158.95</ele><time>2026-08-15T09:22:33Z</time></trkpt><trkpt lat="59.3611666560" lon="34.7021512594"><ele>158.21</ele><time>2026-08-15T09:22:46Z</time></trkpt><trkpt lat="59.3612172827" lon="34.7019785084"><ele>157.96</ele><time>2026-08-15T09:22:59Z</time></trkpt><trkpt lat="59.3612082303" lon="34.7017236985"><ele>158.85</ele><time>2026-08-15T09:23:14Z</time></trkpt><trkpt lat="59.3612453621" lon="34.7015448287"><ele>161.63</ele><time>2026-08-15T09:23:34Z</time></trkpt><trkpt lat="59.3612780515" lon="34.7014888376"><ele>161.10</ele><time>2026-08-15T09:23:41Z</time></trkpt><trkpt lat="59.3613191228" lon="34.7013146617"><ele>161.43</ele><time>2026-08-15T09:24:01Z</time></trkpt><trkpt lat="59.3613477051" lon="34.7012126539"><ele>161.26</ele><time>2026-08-15T09:24:14Z</time></trkpt><trkpt lat="59.3615101464" lon="34.7011231352"><ele>160.96</ele><time>2026-08-15T09:24:38Z</time></trkpt><trkpt lat="59.3616427481" lon="34.7009456903"><ele>160.21</ele><time>2026-08-15T09:24:58Z</time></trkpt><trkpt lat="59.3617167603" lon="34.7007064708"><ele>159.57</ele><time>2026-08-15T09:25:17Z</time></trkpt><trkpt lat="59.3617618550" lon="34.7006077319"><ele>159.47</ele><time>2026-08-15T09:25:28Z</time></trkpt><trkpt lat="59.3618424889" lon="34.7005835082"><ele>159.03</ele><time>2026-08-15T09:25:55Z</time></trkpt><trkpt lat="59.3618787825" lon="34.7005286068"><ele>158.54</ele><time>2026-08-15T09:26:24Z</time></trkpt><trkpt lat="59.3618787825" lon="34.7004952468"><ele>158.55</ele><time>2026-08-15T09:26:49Z</time></trkpt><trkpt lat="59.3618809618" lon="34.7004897147"><ele>158.54</ele><time>2026-08-15T09:27:19Z</time></trkpt><trkpt lat="59.3618890084" lon="34.7004736215"><ele>158.54</ele><time>2026-08-15T09:27:34Z</time></trkpt><trkpt lat="59.3617704045" lon="34.7003543470"><ele>158.62</ele><time>2026-08-15T09:28:38Z</time></trkpt><trkpt lat="59.3617781997" lon="34.7003539279"><ele>158.62</ele><time>2026-08-15T09:28:39Z</time></trkpt><trkpt lat="59.3618900143" lon="34.7004698496"><ele>158.62</ele><time>2026-08-15T09:29:02Z</time></trkpt><trkpt lat="59.3619698938" lon="34.7004468832"><ele>159.41</ele><time>2026-08-15T09:29:19Z</time></trkpt><trkpt lat="59.3620895874" lon="34.7002301272"><ele>159.87</ele><time>2026-08-15T09:29:39Z</time></trkpt><trkpt lat="59.3621352687" lon="34.7000589687"><ele>159.93</ele><time>2026-08-15T09:29:56Z</time></trkpt><trkpt lat="59.3621896673" lon="34.6998031531"><ele>159.64</ele><time>2026-08-15T09:30:14Z</time></trkpt><trkpt lat="59.3622643501" lon="34.6995783504"><ele>159.31</ele><time>2026-08-15T09:30:34Z</time></trkpt><trkpt lat="59.3624141347" lon="34.6993623488"><ele>158.93</ele><time>2026-08-15T09:30:56Z</time></trkpt><trkpt lat="59.3624693714" lon="34.6992370393"><ele>158.77</ele><time>2026-08-15T09:31:16Z</time></trkpt><trkpt lat="59.3624750711" lon="34.6991914418"><ele>158.41</ele><time>2026-08-15T09:31:52Z</time></trkpt><trkpt lat="59.3625630811" lon="34.6991102211"><ele>157.70</ele><time>2026-08-15T09:32:20Z</time></trkpt><trkpt lat="59.3626847863" lon="34.6989795472"><ele>158.07</ele><time>2026-08-15T09:32:37Z</time></trkpt><trkpt lat="59.3627219182" lon="34.6988225542"><ele>158.23</ele><time>2026-08-15T09:32:53Z</time></trkpt><trkpt lat="59.3627405260" lon="34.6987423394"><ele>157.83</ele><time>2026-08-15T09:33:00Z</time></trkpt><trkpt lat="59.3628214113" lon="34.6986031160"><ele>157.80</ele><time>2026-08-15T09:33:14Z</time></trkpt><trkpt lat="59.3629085831" lon="34.6984805726"><ele>157.85</ele><time>2026-08-15T09:33:33Z</time></trkpt><trkpt lat="59.3628623150" lon="34.6983502340"><ele>158.02</ele><time>2026-08-15T09:33:51Z</time></trkpt><trkpt lat="59.3627843633" lon="34.6981805004"><ele>158.15</ele><time>2026-08-15T09:34:07Z</time></trkpt><trkpt lat="59.3628081679" lon="34.6979630738"><ele>157.85</ele><time>2026-08-15T09:34:25Z</time></trkpt><trkpt lat="59.3628499098" lon="34.6977067553"><ele>157.31</ele><time>2026-08-15T09:34:45Z</time></trkpt><trkpt lat="59.3628433719" lon="34.6976186614"><ele>157.99</ele><time>2026-08-15T09:35:05Z</time></trkpt><trkpt lat="59.3628601357" lon="34.6975537855"><ele>157.34</ele><time>2026-08-15T09:35:32Z</time></trkpt><trkpt lat="59.3628643267" lon="34.6975500137"><ele>157.48</ele><time>2026-08-15T09:35:42Z</time></trkpt><trkpt lat="59.3629235029" lon="34.6975136362"><ele>157.10</ele><time>2026-08-15T09:35:53Z</time></trkpt><trkpt lat="59.3629004527" lon="34.6973552182"><ele>157.25</ele><time>2026-08-15T09:36:16Z</time></trkpt><trkpt lat="59.3629588746" lon="34.6972117200"><ele>157.70</ele><time>2026-08-15T09:36:36Z</time></trkpt><trkpt lat="59.3629377522" lon="34.6969393082"><ele>157.94</ele><time>2026-08-15T09:36:55Z</time></trkpt><trkpt lat="59.3629890494" lon="34.6968773659"><ele>158.45</ele><time>2026-08-15T09:37:11Z</time></trkpt><trkpt lat="59.3630402628" lon="34.6967940498"><ele>158.41</ele><time>2026-08-15T09:37:27Z</time></trkpt><trkpt lat="59.3631332181" lon="34.6966407448"><ele>158.62</ele><time>2026-08-15T09:37:46Z</time></trkpt><trkpt lat="59.3632351421" lon="34.6965042036"><ele>158.80</ele><time>2026-08-15T09:38:04Z</time></trkpt><trkpt lat="59.3633231521" lon="34.6963969152"><ele>158.80</ele><time>2026-08-15T09:38:20Z</time></trkpt><trkpt lat="59.3633498903" lon="34.6962382458"><ele>158.83</ele><time>2026-08-15T09:38:38Z</time></trkpt><trkpt lat="59.3634009361" lon="34.6961283591"><ele>158.39</ele><time>2026-08-15T09:39:03Z</time></trkpt><trkpt lat="59.3634001818" lon="34.6960771456"><ele>158.73</ele><time>2026-08-15T09:39:36Z</time></trkpt><trkpt lat="59.3633752037" lon="34.6960073244"><ele>158.90</ele><time>2026-08-15T09:40:04Z</time></trkpt><trkpt lat="59.3633643072" lon="34.6960557718"><ele>159.01</ele><time>2026-08-15T09:40:31Z</time></trkpt><trkpt lat="59.3633761257" lon="34.6960251778"><ele>158.94</ele><time>2026-08-15T09:40:51Z</time></trkpt><trkpt lat="59.3633940630" lon="34.6959376708"><ele>158.97</ele><time>2026-08-15T09:41:07Z</time></trkpt><trkpt lat="59.3634695001" lon="34.6957852039"><ele>158.47</ele><time>2026-08-15T09:41:28Z</time></trkpt><trkpt lat="59.3634593580" lon="34.6957304701"><ele>159.02</ele><time>2026-08-15T09:41:55Z</time></trkpt><trkpt lat="59.3635085598" lon="34.6957603097"><ele>158.93</ele><time>2026-08-15T09:42:23Z</time></trkpt><trkpt lat="59.3635210488" lon="34.6957394388"><ele>159.15</ele><time>2026-08-15T09:43:04Z</time></trkpt><trkpt lat="59.3635371421" lon="34.6956967749"><ele>159.01</ele><time>2026-08-15T09:43:34Z</time></trkpt><trkpt lat="59.3635177799" lon="34.6957021393"><ele>159.18</ele><time>2026-08-15T09:44:06Z</time></trkpt><trkpt lat="59.3635221384" lon="34.6957515087"><ele>159.43</ele><time>2026-08-15T09:44:32Z</time></trkpt><trkpt lat="59.3634943105" lon="34.6958359145"><ele>159.78</ele><time>2026-08-15T09:44:59Z</time></trkpt><trkpt lat="59.3634955678" lon="34.6958351601"><ele>159.75</ele><time>2026-08-15T09:45:13Z</time></trkpt><trkpt lat="59.3634977471" lon="34.6958305500"><ele>159.87</ele><time>2026-08-15T09:45:37Z</time></trkpt><trkpt lat="59.3635402434" lon="34.6958960965"><ele>159.90</ele><time>2026-08-15T09:45:57Z</time></trkpt><trkpt lat="59.3636551592" lon="34.6959230024"><ele>160.28</ele><time>2026-08-15T09:46:18Z</time></trkpt><trkpt lat="59.3637393974" lon="34.6960114315"><ele>159.80</ele><time>2026-08-15T09:46:40Z</time></trkpt><trkpt lat="59.3638910260" lon="34.6961133555"><ele>159.08</ele><time>2026-08-15T09:47:00Z</time></trkpt><trkpt lat="59.3640277348" lon="34.6962845977"><ele>159.23</ele><time>2026-08-15T09:47:19Z</time></trkpt><trkpt lat="59.3641347717" lon="34.6964587737"><ele>159.35</ele><time>2026-08-15T09:47:42Z</time></trkpt><trkpt lat="59.3641228694" lon="34.6964693349"><ele>159.03</ele><time>2026-08-15T09:48:09Z</time></trkpt><trkpt lat="59.3641357776" lon="34.6965016052"><ele>158.91</ele><time>2026-08-15T09:48:38Z</time></trkpt><trkpt lat="59.3641657848" lon="34.6964244079"><ele>158.96</ele><time>2026-08-15T09:49:08Z</time></trkpt><trkpt lat="59.3641786091" lon="34.6963857673"><ele>158.66</ele><time>2026-08-15T09:49:41Z</time></trkpt><trkpt lat="59.3641550560" lon="34.6963753738"><ele>158.46</ele><time>2026-08-15T09:50:07Z</time></trkpt><trkpt lat="59.3642226141" lon="34.6965947282"><ele>158.56</ele><time>2026-08-15T09:50:26Z</time></trkpt><trkpt lat="59.3642785214" lon="34.6966208797"><ele>158.90</ele><time>2026-08-15T09:50:42Z</time></trkpt><trkpt lat="59.3643312436" lon="34.6967032738"><ele>158.64</ele><time>2026-08-15T09:51:00Z</time></trkpt><trkpt lat="59.3643796071" lon="34.6968041919"><ele>158.79</ele><time>2026-08-15T09:51:18Z</time></trkpt><trkpt lat="59.3644479197" lon="34.6967949718"><ele>158.70</ele><time>2026-08-15T09:51:34Z</time></trkpt><trkpt lat="59.3645416293" lon="34.6967955586"><ele>158.43</ele><time>2026-08-15T09:51:52Z</time></trkpt><trkpt lat="59.3646031525" lon="34.6967931278"><ele>158.55</ele><time>2026-08-15T09:52:16Z</time></trkpt><trkpt lat="59.3645902444" lon="34.6968160942"><ele>158.28</ele><time>2026-08-15T09:52:46Z</time></trkpt><trkpt lat="59.3646664359" lon="34.6968608536"><ele>157.99</ele><time>2026-08-15T09:53:10Z</time></trkpt><trkpt lat="59.3647569604" lon="34.6968631167"><ele>158.01</ele><time>2026-08-15T09:53:30Z</time></trkpt><trkpt lat="59.3648466468" lon="34.6968819760"><ele>158.21</ele><time>2026-08-15T09:53:48Z</time></trkpt><trkpt lat="59.3649108522" lon="34.6970289946"><ele>157.83</ele><time>2026-08-15T09:54:06Z</time></trkpt><trkpt lat="59.3649603054" lon="34.6971316729"><ele>157.85</ele><time>2026-08-15T09:54:26Z</time></trkpt><trkpt lat="59.3649951741" lon="34.6971597522"><ele>157.69</ele><time>2026-08-15T09:54:45Z</time></trkpt><trkpt lat="59.3649950065" lon="34.6971689723"><ele>158.09</ele><time>2026-08-15T09:55:13Z</time></trkpt><trkpt lat="59.3650410231" lon="34.6972738300"><ele>157.52</ele><time>2026-08-15T09:55:31Z</time></trkpt><trkpt lat="59.3651642371" lon="34.6973429807"><ele>157.67</ele><time>2026-08-15T09:55:48Z</time></trkpt><trkpt lat="59.3652265985" lon="34.6974231116"><ele>158.25</ele><time>2026-08-15T09:56:06Z</time></trkpt><trkpt lat="59.3652892951" lon="34.6973903384"><ele>158.16</ele><time>2026-08-15T09:56:28Z</time></trkpt><trkpt lat="59.3653193861" lon="34.6974717267"><ele>157.95</ele><time>2026-08-15T09:56:55Z</time></trkpt><trkpt lat="59.3653067295" lon="34.6975218505"><ele>158.00</ele><time>2026-08-15T09:57:20Z</time></trkpt><trkpt lat="59.3652810808" lon="34.6975204255"><ele>158.41</ele><time>2026-08-15T09:57:44Z</time></trkpt><trkpt lat="59.3652871158" lon="34.6974688768"><ele>158.44</ele><time>2026-08-15T09:58:13Z</time></trkpt><trkpt lat="59.3653479684" lon="34.6976327430"><ele>158.59</ele><time>2026-08-15T09:58:33Z</time></trkpt><trkpt lat="59.3654603697" lon="34.6976774186"><ele>158.18</ele><time>2026-08-15T09:58:54Z</time></trkpt><trkpt lat="59.3654745352" lon="34.6976572182"><ele>157.79</ele><time>2026-08-15T09:58:56Z</time></trkpt><trkpt lat="59.3655486312" lon="34.6977054141"><ele>157.72</ele><time>2026-08-15T09:59:09Z</time></trkpt><trkpt lat="59.3656270020" lon="34.6978064999"><ele>156.56</ele><time>2026-08-15T09:59:24Z</time></trkpt><trkpt lat="59.3656991702" lon="34.6978365071"><ele>157.23</ele><time>2026-08-15T09:59:43Z</time></trkpt><trkpt lat="59.3657403253" lon="34.6978644188"><ele>156.84</ele><time>2026-08-15T10:00:00Z</time></trkpt><trkpt lat="59.3658005912" lon="34.6979430411"><ele>157.03</ele><time>2026-08-15T10:00:17Z</time></trkpt><trkpt lat="59.3658441771" lon="34.6980074141"><ele>156.88</ele><time>2026-08-15T10:00:32Z</time></trkpt><trkpt lat="59.3658682331" lon="34.6980623994"><ele>156.80</ele><time>2026-08-15T10:00:48Z</time></trkpt><trkpt lat="59.3658641260" lon="34.6981315501"><ele>156.57</ele><time>2026-08-15T10:01:08Z</time></trkpt><trkpt lat="59.3658867572" lon="34.6981578693"><ele>157.37</ele><time>2026-08-15T10:01:33Z</time></trkpt><trkpt lat="59.3659036886" lon="34.6981530078"><ele>157.22</ele><time>2026-08-15T10:02:01Z</time></trkpt><trkpt lat="59.3658779562" lon="34.6981123555"><ele>157.25</ele><time>2026-08-15T10:02:26Z</time></trkpt><trkpt lat="59.3658813089" lon="34.6980941668"><ele>156.94</ele><time>2026-08-15T10:02:56Z</time></trkpt><trkpt lat="59.3658915348" lon="34.6980888024"><ele>157.14</ele><time>2026-08-15T10:03:25Z</time></trkpt><trkpt lat="59.3658958934" lon="34.6981128585"><ele>157.05</ele><time>2026-08-15T10:03:53Z</time></trkpt><trkpt lat="59.3659011740" lon="34.6981431171"><ele>156.72</ele><time>2026-08-15T10:04:19Z</time></trkpt><trkpt lat="59.3658960611" lon="34.6981504932"><ele>156.91</ele><time>2026-08-15T10:04:53Z</time></trkpt><trkpt lat="59.3659124896" lon="34.6981401835"><ele>156.68</ele><time>2026-08-15T10:05:20Z</time></trkpt><trkpt lat="59.3659155071" lon="34.6980974358"><ele>157.29</ele><time>2026-08-15T10:05:45Z</time></trkpt><trkpt lat="59.3659130763" lon="34.6980690211"><ele>157.00</ele><time>2026-08-15T10:06:15Z</time></trkpt><trkpt lat="59.3658760283" lon="34.6980134491"><ele>157.21</ele><time>2026-08-15T10:06:52Z</time></trkpt><trkpt lat="59.3658065423" lon="34.6979207452"><ele>157.50</ele><time>2026-08-15T10:07:10Z</time></trkpt><trkpt lat="59.3657423370" lon="34.6978443861"><ele>156.88</ele><time>2026-08-15T10:07:27Z</time></trkpt><trkpt lat="59.3657124974" lon="34.6978047397"><ele>157.02</ele><time>2026-08-15T10:07:51Z</time></trkpt><trkpt lat="59.3656112440" lon="34.6977133770"><ele>157.88</ele><time>2026-08-15T10:08:14Z</time></trkpt><trkpt lat="59.3656027783" lon="34.6976028197"><ele>158.04</ele><time>2026-08-15T10:08:31Z</time></trkpt><trkpt lat="59.3655822426" lon="34.6974221058"><ele>158.13</ele><time>2026-08-15T10:08:51Z</time></trkpt><trkpt lat="59.3656623736" lon="34.6973014064"><ele>157.78</ele><time>2026-08-15T10:09:07Z</time></trkpt><trkpt lat="59.3656938896" lon="34.6972435713"><ele>158.14</ele><time>2026-08-15T10:09:21Z</time></trkpt><trkpt lat="59.3656819034" lon="34.6972133126"><ele>158.10</ele><time>2026-08-15T10:09:26Z</time></trkpt><trkpt lat="59.3657342903" lon="34.6969583351"><ele>159.26</ele><time>2026-08-15T10:09:42Z</time></trkpt><trkpt lat="59.3657420855" lon="34.6968297567"><ele>158.42</ele><time>2026-08-15T10:09:57Z</time></trkpt><trkpt lat="59.3657808099" lon="34.6967353765"><ele>158.41</ele><time>2026-08-15T10:10:17Z</time></trkpt><trkpt lat="59.3658476975" lon="34.6965979971"><ele>157.92</ele><time>2026-08-15T10:10:40Z</time></trkpt><trkpt lat="59.3658995815" lon="34.6964281797"><ele>158.27</ele><time>2026-08-15T10:11:01Z</time></trkpt><trkpt lat="59.3659640383" lon="34.6961104218"><ele>157.76</ele><time>2026-08-15T10:11:23Z</time></trkpt><trkpt lat="59.3659654632" lon="34.6959351562"><ele>157.83</ele><time>2026-08-15T10:11:42Z</time></trkpt><trkpt lat="59.3659635354" lon="34.6958846971"><ele>157.93</ele><time>2026-08-15T10:12:03Z</time></trkpt><trkpt lat="59.3659737613" lon="34.6958208270"><ele>157.54</ele><time>2026-08-15T10:12:35Z</time></trkpt><trkpt lat="59.3659593444" lon="34.6957229264"><ele>157.62</ele><time>2026-08-15T10:13:02Z</time></trkpt><trkpt lat="59.3659474421" lon="34.6957583819"><ele>157.71</ele><time>2026-08-15T10:13:29Z</time></trkpt><trkpt lat="59.3659712467" lon="34.6957932506"><ele>157.63</ele><time>2026-08-15T10:13:53Z</time></trkpt><trkpt lat="59.3659457657" lon="34.6957463119"><ele>157.78</ele><time>2026-08-15T10:14:22Z</time></trkpt><trkpt lat="59.3659407366" lon="34.6957396064"><ele>157.89</ele><time>2026-08-15T10:14:48Z</time></trkpt><trkpt lat="59.3659462687" lon="34.6956698690"><ele>157.84</ele><time>2026-08-15T10:15:10Z</time></trkpt><trkpt lat="59.3659699894" lon="34.6955433860"><ele>157.58</ele><time>2026-08-15T10:15:32Z</time></trkpt><trkpt lat="59.3659588415" lon="34.6954957768"><ele>157.76</ele><time>2026-08-15T10:15:56Z</time></trkpt><trkpt lat="59.3659626972" lon="34.6955142170"><ele>157.53</ele><time>2026-08-15T10:16:25Z</time></trkpt><trkpt lat="59.3659573328" lon="34.6954284701"><ele>157.71</ele><time>2026-08-15T10:16:50Z</time></trkpt><trkpt lat="59.3659427483" lon="34.6952397097"><ele>157.68</ele><time>2026-08-15T10:17:08Z</time></trkpt><trkpt lat="59.3659269903" lon="34.6950314194"><ele>157.55</ele><time>2026-08-15T10:17:27Z</time></trkpt><trkpt lat="59.3659326900" lon="34.6949175932"><ele>157.82</ele><time>2026-08-15T10:17:45Z</time></trkpt><trkpt lat="59.3659256492" lon="34.6948460117"><ele>157.92</ele><time>2026-08-15T10:17:52Z</time></trkpt><trkpt lat="59.3659389764" lon="34.6946658008"><ele>157.62</ele><time>2026-08-15T10:18:10Z</time></trkpt><trkpt lat="59.3659451790" lon="34.6946077142"><ele>157.66</ele><time>2026-08-15T10:18:15Z</time></trkpt><trkpt lat="59.3659335282" lon="34.6945126634"><ele>157.88</ele><time>2026-08-15T10:18:37Z</time></trkpt><trkpt lat="59.3659682292" lon="34.6943595260"><ele>157.98</ele><time>2026-08-15T10:18:54Z</time></trkpt><trkpt lat="59.3660230469" lon="34.6941261739"><ele>157.52</ele><time>2026-08-15T10:19:15Z</time></trkpt><trkpt lat="59.3660755176" lon="34.6939680073"><ele>157.03</ele><time>2026-08-15T10:19:34Z</time></trkpt><trkpt lat="59.3660019245" lon="34.6938634012"><ele>157.95</ele><time>2026-08-15T10:19:51Z</time></trkpt><trkpt lat="59.3659165129" lon="34.6937453002"><ele>157.93</ele><time>2026-08-15T10:20:12Z</time></trkpt><trkpt lat="59.3658832368" lon="34.6936563682"><ele>158.08</ele><time>2026-08-15T10:20:36Z</time></trkpt><trkpt lat="59.3658855837" lon="34.6935692802"><ele>158.25</ele><time>2026-08-15T10:21:09Z</time></trkpt><trkpt lat="59.3659243919" lon="34.6935063321"><ele>158.08</ele><time>2026-08-15T10:21:39Z</time></trkpt><trkpt lat="59.3658968993" lon="34.6935364231"><ele>158.00</ele><time>2026-08-15T10:22:12Z</time></trkpt><trkpt lat="59.3658320233" lon="34.6935297176"><ele>158.10</ele><time>2026-08-15T10:22:34Z</time></trkpt><trkpt lat="59.3657250702" lon="34.6934462339"><ele>158.10</ele><time>2026-08-15T10:22:51Z</time></trkpt><trkpt lat="59.3656964041" lon="34.6933075972"><ele>157.85</ele><time>2026-08-15T10:23:06Z</time></trkpt><trkpt lat="59.3656720128" lon="34.6932311542"><ele>157.84</ele><time>2026-08-15T10:23:16Z</time></trkpt><trkpt lat="59.3656063825" lon="34.6932206769"><ele>158.75</ele><time>2026-08-15T10:23:36Z</time></trkpt><trkpt lat="59.3655819912" lon="34.6932350099"><ele>158.52</ele><time>2026-08-15T10:23:41Z</time></trkpt><trkpt lat="59.3656053767" lon="34.6932882350"><ele>158.86</ele><time>2026-08-15T10:24:12Z</time></trkpt><trkpt lat="59.3656067178" lon="34.6932157315"><ele>158.82</ele><time>2026-08-15T10:24:30Z</time></trkpt><trkpt lat="59.3655436859" lon="34.6930240374"><ele>159.41</ele><time>2026-08-15T10:24:52Z</time></trkpt><trkpt lat="59.3655355554" lon="34.6930123866"><ele>159.66</ele><time>2026-08-15T10:24:56Z</time></trkpt><trkpt lat="59.3654360622" lon="34.6929760091"><ele>159.40</ele><time>2026-08-15T10:25:19Z</time></trkpt><trkpt lat="59.3654242437" lon="34.6929365303"><ele>159.27</ele><time>2026-08-15T10:25:26Z</time></trkpt><trkpt lat="59.3653656542" lon="34.6928705648"><ele>159.77</ele><time>2026-08-15T10:25:48Z</time></trkpt><trkpt lat="59.3652894627" lon="34.6928618476"><ele>159.93</ele><time>2026-08-15T10:26:08Z</time></trkpt><trkpt lat="59.3652841821" lon="34.6928333491"><ele>159.55</ele><time>2026-08-15T10:26:16Z</time></trkpt><trkpt lat="59.3652682565" lon="34.6926376317"><ele>160.77</ele><time>2026-08-15T10:26:38Z</time></trkpt><trkpt lat="59.3653448671" lon="34.6925789583"><ele>159.56</ele><time>2026-08-15T10:26:58Z</time></trkpt><trkpt lat="59.3654576037" lon="34.6924909484"><ele>159.37</ele><time>2026-08-15T10:27:15Z</time></trkpt><trkpt lat="59.3655750342" lon="34.6924906969"><ele>159.13</ele><time>2026-08-15T10:27:37Z</time></trkpt><trkpt lat="59.3656982481" lon="34.6923759487"><ele>158.75</ele><time>2026-08-15T10:27:58Z</time></trkpt><trkpt lat="59.3657021876" lon="34.6923517250"><ele>158.60</ele><time>2026-08-15T10:28:01Z</time></trkpt><trkpt lat="59.3656902015" lon="34.6921178699"><ele>158.87</ele><time>2026-08-15T10:28:19Z</time></trkpt><trkpt lat="59.3657483719" lon="34.6919929795"><ele>158.92</ele><time>2026-08-15T10:28:40Z</time></trkpt><trkpt lat="59.3657849170" lon="34.6918888763"><ele>159.21</ele><time>2026-08-15T10:28:57Z</time></trkpt><trkpt lat="59.3657881860" lon="34.6918815840"><ele>159.21</ele><time>2026-08-15T10:28:58Z</time></trkpt><trkpt lat="59.3658167683" lon="34.6918411832"><ele>159.06</ele><time>2026-08-15T10:29:04Z</time></trkpt><trkpt lat="59.3658043630" lon="34.6917297039"><ele>158.66</ele><time>2026-08-15T10:29:20Z</time></trkpt><trkpt lat="59.3658211268" lon="34.6916549373"><ele>158.53</ele><time>2026-08-15T10:29:40Z</time></trkpt><trkpt lat="59.3658881821" lon="34.6916074120"><ele>159.56</ele><time>2026-08-15T10:30:12Z</time></trkpt><trkpt lat="59.3659102265" lon="34.6915123612"><ele>159.99</ele><time>2026-08-15T10:30:35Z</time></trkpt><trkpt lat="59.3659098074" lon="34.6914524306"><ele>160.19</ele><time>2026-08-15T10:30:42Z</time></trkpt><trkpt lat="59.3659425806" lon="34.6912228502"><ele>160.02</ele><time>2026-08-15T10:31:02Z</time></trkpt><trkpt lat="59.3660093006" lon="34.6909728181"><ele>160.28</ele><time>2026-08-15T10:31:22Z</time></trkpt><trkpt lat="59.3660374638" lon="34.6906767692"><ele>159.92</ele><time>2026-08-15T10:31:41Z</time></trkpt><trkpt lat="59.3660411518" lon="34.6905923635"><ele>160.03</ele><time>2026-08-15T10:31:47Z</time></trkpt><trkpt lat="59.3660369609" lon="34.6905408148"><ele>159.99</ele><time>2026-08-15T10:31:51Z</time></trkpt><trkpt lat="59.3660342786" lon="34.6902569197"><ele>159.57</ele><time>2026-08-15T10:32:16Z</time></trkpt><trkpt lat="59.3660348654" lon="34.6900418401"><ele>160.79</ele><time>2026-08-15T10:32:36Z</time></trkpt><trkpt lat="59.3660467677" lon="34.6899136808"><ele>160.43</ele><time>2026-08-15T10:32:47Z</time></trkpt><trkpt lat="59.3660839833" lon="34.6898364834"><ele>160.06</ele><time>2026-08-15T10:33:00Z</time></trkpt><trkpt lat="59.3661149126" lon="34.6897206455"><ele>160.29</ele><time>2026-08-15T10:33:39Z</time></trkpt><trkpt lat="59.3661155831" lon="34.6897906344"><ele>160.31</ele><time>2026-08-15T10:34:14Z</time></trkpt><trkpt lat="59.3661387172" lon="34.6896857768"><ele>160.32</ele><time>2026-08-15T10:34:41Z</time></trkpt><trkpt lat="59.3662009947" lon="34.6893589664"><ele>160.16</ele><time>2026-08-15T10:35:07Z</time></trkpt><trkpt lat="59.3662148248" lon="34.6892263647"><ele>160.10</ele><time>2026-08-15T10:35:18Z</time></trkpt><trkpt lat="59.3661669642" lon="34.6891137119"><ele>159.83</ele><time>2026-08-15T10:35:30Z</time></trkpt><trkpt lat="59.3660794571" lon="34.6889896598"><ele>159.66</ele><time>2026-08-15T10:35:44Z</time></trkpt><trkpt lat="59.3660348654" lon="34.6888073534"><ele>159.86</ele><time>2026-08-15T10:36:03Z</time></trkpt><trkpt lat="59.3660566583" lon="34.6886799484"><ele>160.10</ele><time>2026-08-15T10:36:19Z</time></trkpt><trkpt lat="59.3661825545" lon="34.6885535493"><ele>159.78</ele><time>2026-08-15T10:36:40Z</time></trkpt><trkpt lat="59.3662001565" lon="34.6885417309"><ele>159.59</ele><time>2026-08-15T10:37:02Z</time></trkpt><trkpt lat="59.3661977258" lon="34.6885362826"><ele>159.58</ele><time>2026-08-15T10:37:29Z</time></trkpt><trkpt lat="59.3661268149" lon="34.6884409804"><ele>159.76</ele><time>2026-08-15T10:37:49Z</time></trkpt><trkpt lat="59.3659855798" lon="34.6883182693"><ele>159.52</ele><time>2026-08-15T10:38:10Z</time></trkpt><trkpt lat="59.3659015093" lon="34.6882270742"><ele>159.60</ele><time>2026-08-15T10:38:29Z</time></trkpt><trkpt lat="59.3659047782" lon="34.6880243160"><ele>158.90</ele><time>2026-08-15T10:38:47Z</time></trkpt><trkpt lat="59.3659010064" lon="34.6878664847"><ele>158.93</ele><time>2026-08-15T10:39:06Z</time></trkpt><trkpt lat="59.3659094721" lon="34.6875184681"><ele>159.04</ele><time>2026-08-15T10:39:28Z</time></trkpt><trkpt lat="59.3658715021" lon="34.6873454656"><ele>158.91</ele><time>2026-08-15T10:39:47Z</time></trkpt><trkpt lat="59.3658818956" lon="34.6870169789"><ele>158.94</ele><time>2026-08-15T10:40:08Z</time></trkpt><trkpt lat="59.3659636192" lon="34.6868583933"><ele>158.82</ele><time>2026-08-15T10:40:30Z</time></trkpt><trkpt lat="59.3659688160" lon="34.6867560502"><ele>158.68</ele><time>2026-08-15T10:40:54Z</time></trkpt><trkpt lat="59.3659771979" lon="34.6866531204"><ele>159.05</ele><time>2026-08-15T10:41:12Z</time></trkpt><trkpt lat="59.3660300877" lon="34.6865104605"><ele>158.61</ele><time>2026-08-15T10:41:31Z</time></trkpt><trkpt lat="59.3660968076" lon="34.6864408068"><ele>159.08</ele><time>2026-08-15T10:41:50Z</time></trkpt><trkpt lat="59.3662574887" lon="34.6862865798"><ele>158.94</ele><time>2026-08-15T10:42:11Z</time></trkpt><trkpt lat="59.3664071057" lon="34.6861764416"><ele>158.28</ele><time>2026-08-15T10:42:32Z</time></trkpt><trkpt lat="59.3664249592" lon="34.6861400642"><ele>158.76</ele><time>2026-08-15T10:42:51Z</time></trkpt><trkpt lat="59.3664133921" lon="34.6861490328"><ele>158.63</ele><time>2026-08-15T10:43:18Z</time></trkpt><trkpt lat="59.3664781004" lon="34.6861466020"><ele>158.98</ele><time>2026-08-15T10:43:45Z</time></trkpt><trkpt lat="59.3664318323" lon="34.6860821452"><ele>159.33</ele><time>2026-08-15T10:44:11Z</time></trkpt><trkpt lat="59.3665268831" lon="34.6861256473"><ele>159.06</ele><time>2026-08-15T10:44:35Z</time></trkpt><trkpt lat="59.3665438984" lon="34.6861456800"><ele>159.15</ele><time>2026-08-15T10:44:36Z</time></trkpt><trkpt lat="59.3665746599" lon="34.6861735079"><ele>159.16</ele><time>2026-08-15T10:44:38Z</time></trkpt><trkpt lat="59.3667067587" lon="34.6862894297"><ele>159.13</ele><time>2026-08-15T10:44:52Z</time></trkpt><trkpt lat="59.3667179905" lon="34.6863009967"><ele>159.58</ele><time>2026-08-15T10:45:12Z</time></trkpt><trkpt lat="59.3666656874" lon="34.6863406431"><ele>159.73</ele><time>2026-08-15T10:45:49Z</time></trkpt><trkpt lat="59.3666982092" lon="34.6863071993"><ele>159.95</ele><time>2026-08-15T10:46:19Z</time></trkpt><trkpt lat="59.3667209242" lon="34.6862840652"><ele>159.94</ele><time>2026-08-15T10:46:44Z</time></trkpt><trkpt lat="59.3667514343" lon="34.6862826403"><ele>160.12</ele><time>2026-08-15T10:47:16Z</time></trkpt><trkpt lat="59.3667421304" lon="34.6862950455"><ele>160.50</ele><time>2026-08-15T10:47:45Z</time></trkpt><trkpt lat="59.3667673599" lon="34.6862446703"><ele>160.42</ele><time>2026-08-15T10:48:12Z</time></trkpt><trkpt lat="59.3667792622" lon="34.6862844843"><ele>160.87</ele><time>2026-08-15T10:48:43Z</time></trkpt><trkpt lat="59.3667624984" lon="34.6863092110"><ele>160.81</ele><time>2026-08-15T10:49:10Z</time></trkpt><trkpt lat="59.3667246960" lon="34.6863087919"><ele>161.17</ele><time>2026-08-15T10:49:40Z</time></trkpt><trkpt lat="59.3667168170" lon="34.6863271482"><ele>160.90</ele><time>2026-08-15T10:50:09Z</time></trkpt><trkpt lat="59.3667350058" lon="34.6862951294"><ele>161.03</ele><time>2026-08-15T10:50:37Z</time></trkpt><trkpt lat="59.3667437229" lon="34.6862991527"><ele>161.26</ele><time>2026-08-15T10:51:07Z</time></trkpt><trkpt lat="59.3667372689" lon="34.6863137372"><ele>161.33</ele><time>2026-08-15T10:51:35Z</time></trkpt><trkpt lat="59.3667433877" lon="34.6862526331"><ele>161.50</ele><time>2026-08-15T10:52:01Z</time></trkpt><trkpt lat="59.3667487521" lon="34.6861795429"><ele>161.07</ele><time>2026-08-15T10:52:26Z</time></trkpt><trkpt lat="59.3667676952" lon="34.6860864200"><ele>161.83</ele><time>2026-08-15T10:52:47Z</time></trkpt><trkpt lat="59.3668389414" lon="34.6860729251"><ele>161.44</ele><time>2026-08-15T10:53:02Z</time></trkpt><trkpt lat="59.3669305556" lon="34.6860529762"><ele>161.64</ele><time>2026-08-15T10:53:23Z</time></trkpt><trkpt lat="59.3669967726" lon="34.6860781219"><ele>161.76</ele><time>2026-08-15T10:53:43Z</time></trkpt><trkpt lat="59.3670247681" lon="34.6861026809"><ele>162.57</ele><time>2026-08-15T10:54:05Z</time></trkpt><trkpt lat="59.3670401070" lon="34.6861055307"><ele>162.46</ele><time>2026-08-15T10:54:34Z</time></trkpt><trkpt lat="59.3670887221" lon="34.6861233003"><ele>162.81</ele><time>2026-08-15T10:55:07Z</time></trkpt><trkpt lat="59.3670581281" lon="34.6861066204"><ele>163.12</ele><time>2026-08-15T10:55:39Z</time></trkpt><trkpt lat="59.3670680188" lon="34.6861411538"><ele>163.05</ele><time>2026-08-15T10:56:09Z</time></trkpt><trkpt lat="59.3670605589" lon="34.6861248091"><ele>163.22</ele><time>2026-08-15T10:56:38Z</time></trkpt><trkpt lat="59.3670476507" lon="34.6861094702"><ele>163.40</ele><time>2026-08-15T10:57:06Z</time></trkpt><trkpt lat="59.3670348264" lon="34.6861258987"><ele>163.31</ele><time>2026-08-15T10:57:35Z</time></trkpt><trkpt lat="59.3670123629" lon="34.6861355379"><ele>163.16</ele><time>2026-08-15T10:57:55Z</time></trkpt><trkpt lat="59.3670194037" lon="34.6861942951"><ele>163.34</ele><time>2026-08-15T10:58:20Z</time></trkpt><trkpt lat="59.3670199066" lon="34.6861881763"><ele>163.27</ele><time>2026-08-15T10:58:45Z</time></trkpt><trkpt lat="59.3670468964" lon="34.6861579176"><ele>163.41</ele><time>2026-08-15T10:59:11Z</time></trkpt><trkpt lat="59.3670395203" lon="34.6861481108"><ele>163.53</ele><time>2026-08-15T10:59:36Z</time></trkpt><trkpt lat="59.3670461420" lon="34.6861200314"><ele>163.28</ele><time>2026-08-15T11:00:06Z</time></trkpt><trkpt lat="59.3670275342" lon="34.6860945504"><ele>163.72</ele><time>2026-08-15T11:00:38Z</time></trkpt><trkpt lat="59.3670403585" lon="34.6860940475"><ele>163.72</ele><time>2026-08-15T11:01:09Z</time></trkpt><trkpt lat="59.3670254387" lon="34.6861061174"><ele>163.56</ele><time>2026-08-15T11:01:37Z</time></trkpt><trkpt lat="59.3670112733" lon="34.6861140803"><ele>163.70</ele><time>2026-08-15T11:02:12Z</time></trkpt><trkpt lat="59.3670062441" lon="34.6861174330"><ele>163.59</ele><time>2026-08-15T11:02:44Z</time></trkpt><trkpt lat="59.3670200743" lon="34.6861566603"><ele>163.94</ele><time>2026-08-15T11:03:14Z</time></trkpt><trkpt lat="59.3670329824" lon="34.6861580852"><ele>163.65</ele><time>2026-08-15T11:03:48Z</time></trkpt><trkpt lat="59.3670138717" lon="34.6861577500"><ele>163.65</ele><time>2026-08-15T11:04:30Z</time></trkpt><trkpt lat="59.3670159671" lon="34.6861440875"><ele>163.79</ele><time>2026-08-15T11:04:59Z</time></trkpt><trkpt lat="59.3670045678" lon="34.6861455124"><ele>163.80</ele><time>2026-08-15T11:05:30Z</time></trkpt><trkpt lat="59.3669925816" lon="34.6861549839"><ele>163.66</ele><time>2026-08-15T11:05:56Z</time></trkpt><trkpt lat="59.3669921625" lon="34.6861718316"><ele>163.66</ele><time>2026-08-15T11:06:23Z</time></trkpt><trkpt lat="59.3669707887" lon="34.6861834824"><ele>163.35</ele><time>2026-08-15T11:06:44Z</time></trkpt><trkpt lat="59.3669707049" lon="34.6861923672"><ele>163.21</ele><time>2026-08-15T11:07:11Z</time></trkpt><trkpt lat="59.3669540249" lon="34.6862672176"><ele>163.68</ele><time>2026-08-15T11:07:35Z</time></trkpt><trkpt lat="59.3669038173" lon="34.6864071954"><ele>163.11</ele><time>2026-08-15T11:07:57Z</time></trkpt><trkpt lat="59.3669137079" lon="34.6864461713"><ele>163.74</ele><time>2026-08-15T11:08:18Z</time></trkpt><trkpt lat="59.3668826111" lon="34.6865207702"><ele>163.92</ele><time>2026-08-15T11:08:39Z</time></trkpt><trkpt lat="59.3668625783" lon="34.6865874901"><ele>163.83</ele><time>2026-08-15T11:09:01Z</time></trkpt><trkpt lat="59.3668173999" lon="34.6866204310"><ele>163.62</ele><time>2026-08-15T11:09:27Z</time></trkpt><trkpt lat="59.3667772505" lon="34.6866479237"><ele>163.55</ele><time>2026-08-15T11:09:50Z</time></trkpt><trkpt lat="59.3667509314" lon="34.6866761707"><ele>163.48</ele><time>2026-08-15T11:10:19Z</time></trkpt><trkpt lat="59.3667615764" lon="34.6867526136"><ele>163.83</ele><time>2026-08-15T11:10:39Z</time></trkpt><trkpt lat="59.3667711318" lon="34.6867511049"><ele>163.83</ele><time>2026-08-15T11:10:43Z</time></trkpt><trkpt lat="59.3668058328" lon="34.6867893264"><ele>163.95</ele><time>2026-08-15T11:11:09Z</time></trkpt><trkpt lat="59.3667895719" lon="34.6869608201"><ele>164.06</ele><time>2026-08-15T11:11:27Z</time></trkpt><trkpt lat="59.3668416236" lon="34.6871585492"><ele>164.28</ele><time>2026-08-15T11:11:45Z</time></trkpt><trkpt lat="59.3669617362" lon="34.6872321423"><ele>164.36</ele><time>2026-08-15T11:12:00Z</time></trkpt><trkpt lat="59.3670510873" lon="34.6872535162"><ele>164.28</ele><time>2026-08-15T11:12:22Z</time></trkpt><trkpt lat="59.3671489041" lon="34.6871947590"><ele>164.05</ele><time>2026-08-15T11:12:41Z</time></trkpt><trkpt lat="59.3672598805" lon="34.6872254368"><ele>163.68</ele><time>2026-08-15T11:13:01Z</time></trkpt><trkpt lat="59.3673139438" lon="34.6871917415"><ele>163.53</ele><time>2026-08-15T11:13:23Z</time></trkpt><trkpt lat="59.3673060648" lon="34.6873091720"><ele>163.76</ele><time>2026-08-15T11:13:44Z</time></trkpt><trkpt lat="59.3673297856" lon="34.6873055678"><ele>163.55</ele><time>2026-08-15T11:14:01Z</time></trkpt><trkpt lat="59.3673370779" lon="34.6872995328"><ele>163.64</ele><time>2026-08-15T11:14:24Z</time></trkpt><trkpt lat="59.3673345633" lon="34.6873243432"><ele>163.55</ele><time>2026-08-15T11:15:02Z</time></trkpt><trkpt lat="59.3673425261" lon="34.6873426158"><ele>163.68</ele><time>2026-08-15T11:15:38Z</time></trkpt><trkpt lat="59.3673499860" lon="34.6873340663"><ele>163.70</ele><time>2026-08-15T11:16:18Z</time></trkpt><trkpt lat="59.3673542608" lon="34.6872976888"><ele>163.87</ele><time>2026-08-15T11:16:57Z</time></trkpt><trkpt lat="59.3673430290" lon="34.6872937493"><ele>163.61</ele><time>2026-08-15T11:17:25Z</time></trkpt><trkpt lat="59.3673515785" lon="34.6872866247"><ele>163.25</ele><time>2026-08-15T11:17:53Z</time></trkpt><trkpt lat="59.3673440348" lon="34.6872920729"><ele>163.50</ele><time>2026-08-15T11:18:17Z</time></trkpt><trkpt lat="59.3673021253" lon="34.6872285381"><ele>163.29</ele><time>2026-08-15T11:18:43Z</time></trkpt><trkpt lat="59.3672395125" lon="34.6872263588"><ele>163.38</ele><time>2026-08-15T11:19:05Z</time></trkpt><trkpt lat="59.3671916518" lon="34.6872072481"><ele>163.92</ele><time>2026-08-15T11:19:25Z</time></trkpt><trkpt lat="59.3670961820" lon="34.6872577071"><ele>164.03</ele><time>2026-08-15T11:19:45Z</time></trkpt><trkpt lat="59.3670407776" lon="34.6873552725"><ele>163.65</ele><time>2026-08-15T11:20:05Z</time></trkpt><trkpt lat="59.3669306394" lon="34.6871939208"><ele>163.47</ele><time>2026-08-15T11:20:25Z</time></trkpt><trkpt lat="59.3668754864" lon="34.6869854629"><ele>163.37</ele><time>2026-08-15T11:20:46Z</time></trkpt><trkpt lat="59.3668550346" lon="34.6869456489"><ele>163.52</ele><time>2026-08-15T11:20:55Z</time></trkpt><trkpt lat="59.3667560443" lon="34.6869279630"><ele>163.56</ele><time>2026-08-15T11:21:15Z</time></trkpt><trkpt lat="59.3667067587" lon="34.6868320741"><ele>163.23</ele><time>2026-08-15T11:21:38Z</time></trkpt><trkpt lat="59.3667246122" lon="34.6866883244"><ele>163.05</ele><time>2026-08-15T11:21:56Z</time></trkpt><trkpt lat="59.3667961098" lon="34.6866762545"><ele>162.89</ele><time>2026-08-15T11:22:15Z</time></trkpt><trkpt lat="59.3668599799" lon="34.6865446586"><ele>162.88</ele><time>2026-08-15T11:22:40Z</time></trkpt><trkpt lat="59.3669002131" lon="34.6864400525"><ele>163.05</ele><time>2026-08-15T11:22:59Z</time></trkpt><trkpt lat="59.3668700382" lon="34.6863419842"><ele>162.48</ele><time>2026-08-15T11:23:18Z</time></trkpt><trkpt lat="59.3669337407" lon="34.6862781141"><ele>163.08</ele><time>2026-08-15T11:23:35Z</time></trkpt><trkpt lat="59.3669599760" lon="34.6861733403"><ele>162.21</ele><time>2026-08-15T11:23:56Z</time></trkpt><trkpt lat="59.3669590540" lon="34.6861868352"><ele>162.28</ele><time>2026-08-15T11:24:24Z</time></trkpt><trkpt lat="59.3669598922" lon="34.6861609351"><ele>161.72</ele><time>2026-08-15T11:25:04Z</time></trkpt><trkpt lat="59.3669632450" lon="34.6861480270"><ele>161.60</ele><time>2026-08-15T11:25:46Z</time></trkpt><trkpt lat="59.3669511750" lon="34.6861182712"><ele>161.93</ele><time>2026-08-15T11:26:16Z</time></trkpt><trkpt lat="59.3669487443" lon="34.6861155052"><ele>161.72</ele><time>2026-08-15T11:26:46Z</time></trkpt><trkpt lat="59.3669424579" lon="34.6861366276"><ele>161.99</ele><time>2026-08-15T11:27:19Z</time></trkpt><trkpt lat="59.3669450562" lon="34.6861515474"><ele>162.04</ele><time>2026-08-15T11:27:54Z</time></trkpt><trkpt lat="59.3669691961" lon="34.6861647069"><ele>162.19</ele><time>2026-08-15T11:28:33Z</time></trkpt><trkpt lat="59.3669916596" lon="34.6861035191"><ele>162.30</ele><time>2026-08-15T11:28:53Z</time></trkpt><trkpt lat="59.3669794220" lon="34.6861108951"><ele>162.29</ele><time>2026-08-15T11:29:17Z</time></trkpt><trkpt lat="59.3669701181" lon="34.6860994119"><ele>162.31</ele><time>2026-08-15T11:29:43Z</time></trkpt><trkpt lat="59.3670023885" lon="34.6860870067"><ele>162.24</ele><time>2026-08-15T11:30:14Z</time></trkpt><trkpt lat="59.3670158833" lon="34.6860734280"><ele>162.02</ele><time>2026-08-15T11:30:49Z</time></trkpt><trkpt lat="59.3670052383" lon="34.6861013398"><ele>162.38</ele><time>2026-08-15T11:31:32Z</time></trkpt><trkpt lat="59.3670215830" lon="34.6860897727"><ele>162.48</ele><time>2026-08-15T11:32:12Z</time></trkpt><trkpt lat="59.3670218345" lon="34.6860718355"><ele>162.66</ele><time>2026-08-15T11:32:49Z</time></trkpt><trkpt lat="59.3669691961" lon="34.6860662196"><ele>162.34</ele><time>2026-08-15T11:33:08Z</time></trkpt><trkpt lat="59.3669391051" lon="34.6860942151"><ele>162.19</ele><time>2026-08-15T11:33:22Z</time></trkpt><trkpt lat="59.3669286277" lon="34.6860909462"><ele>162.15</ele><time>2026-08-15T11:33:39Z</time></trkpt><trkpt lat="59.3668956868" lon="34.6860597655"><ele>162.07</ele><time>2026-08-15T11:33:57Z</time></trkpt><trkpt lat="59.3668679427" lon="34.6859811433"><ele>162.16</ele><time>2026-08-15T11:34:13Z</time></trkpt><trkpt lat="59.3667784240" lon="34.6858397406"><ele>162.25</ele><time>2026-08-15T11:34:32Z</time></trkpt><trkpt lat="59.3667720538" lon="34.6856581885"><ele>162.18</ele><time>2026-08-15T11:34:48Z</time></trkpt><trkpt lat="59.3667981215" lon="34.6853659116"><ele>162.16</ele><time>2026-08-15T11:35:12Z</time></trkpt><trkpt lat="59.3668266200" lon="34.6851950046"><ele>161.83</ele><time>2026-08-15T11:35:33Z</time></trkpt><trkpt lat="59.3668842036" lon="34.6851047315"><ele>161.87</ele><time>2026-08-15T11:35:48Z</time></trkpt><trkpt lat="59.3670004606" lon="34.6851498261"><ele>161.70</ele><time>2026-08-15T11:36:07Z</time></trkpt><trkpt lat="59.3671602197" lon="34.6851497423"><ele>161.78</ele><time>2026-08-15T11:36:24Z</time></trkpt><trkpt lat="59.3672691844" lon="34.6851839405"><ele>161.55</ele><time>2026-08-15T11:36:44Z</time></trkpt><trkpt lat="59.3673368264" lon="34.6851887181"><ele>161.46</ele><time>2026-08-15T11:37:03Z</time></trkpt><trkpt lat="59.3674208131" lon="34.6851651650"><ele>161.21</ele><time>2026-08-15T11:37:43Z</time></trkpt><trkpt lat="59.3674425222" lon="34.6851806715"><ele>161.14</ele><time>2026-08-15T11:38:16Z</time></trkpt><trkpt lat="59.3674789835" lon="34.6852064040"><ele>161.13</ele><time>2026-08-15T11:38:33Z</time></trkpt><trkpt lat="59.3675452005" lon="34.6851401031"><ele>160.89</ele><time>2026-08-15T11:38:55Z</time></trkpt><trkpt lat="59.3676284328" lon="34.6851727925"><ele>161.05</ele><time>2026-08-15T11:39:17Z</time></trkpt><trkpt lat="59.3677419238" lon="34.6851964295"><ele>160.97</ele><time>2026-08-15T11:39:37Z</time></trkpt><trkpt lat="59.3677902874" lon="34.6850712877"><ele>160.90</ele><time>2026-08-15T11:39:55Z</time></trkpt><trkpt lat="59.3678371422" lon="34.6850280371"><ele>160.85</ele><time>2026-08-15T11:40:21Z</time></trkpt><trkpt lat="59.3679142557" lon="34.6850423701"><ele>160.82</ele><time>2026-08-15T11:40:41Z</time></trkpt><trkpt lat="59.3679398205" lon="34.6850078367"><ele>160.75</ele><time>2026-08-15T11:40:59Z</time></trkpt><trkpt lat="59.3679331150" lon="34.6849158034"><ele>160.77</ele><time>2026-08-15T11:41:14Z</time></trkpt><trkpt lat="59.3680119887" lon="34.6848134603"><ele>160.69</ele><time>2026-08-15T11:41:35Z</time></trkpt><trkpt lat="59.3680621125" lon="34.6846818645"><ele>160.61</ele><time>2026-08-15T11:41:49Z</time></trkpt><trkpt lat="59.3680966459" lon="34.6845392045"><ele>160.25</ele><time>2026-08-15T11:42:06Z</time></trkpt><trkpt lat="59.3681481946" lon="34.6844761726"><ele>160.78</ele><time>2026-08-15T11:42:22Z</time></trkpt><trkpt lat="59.3681627791" lon="34.6844330058"><ele>160.61</ele><time>2026-08-15T11:42:59Z</time></trkpt><trkpt lat="59.3681739271" lon="34.6844265517"><ele>160.35</ele><time>2026-08-15T11:43:28Z</time></trkpt><trkpt lat="59.3682060298" lon="34.6844287310"><ele>160.38</ele><time>2026-08-15T11:43:53Z</time></trkpt><trkpt lat="59.3682231288" lon="34.6844354365"><ele>160.51</ele><time>2026-08-15T11:44:08Z</time></trkpt><trkpt lat="59.3682054430" lon="34.6844466683"><ele>161.03</ele><time>2026-08-15T11:44:32Z</time></trkpt><trkpt lat="59.3682006653" lon="34.6845020726"><ele>160.85</ele><time>2026-08-15T11:45:08Z</time></trkpt><trkpt lat="59.3682354502" lon="34.6844554693"><ele>160.51</ele><time>2026-08-15T11:45:43Z</time></trkpt><trkpt lat="59.3682697322" lon="34.6844384540"><ele>161.11</ele><time>2026-08-15T11:46:21Z</time></trkpt><trkpt lat="59.3682880886" lon="34.6843951195"><ele>160.44</ele><time>2026-08-15T11:46:41Z</time></trkpt><trkpt lat="59.3683737516" lon="34.6843399666"><ele>160.88</ele><time>2026-08-15T11:46:58Z</time></trkpt><trkpt lat="59.3684635218" lon="34.6842748392"><ele>160.79</ele><time>2026-08-15T11:47:14Z</time></trkpt><trkpt lat="59.3685270566" lon="34.6840945445"><ele>160.92</ele><time>2026-08-15T11:47:34Z</time></trkpt><trkpt lat="59.3685662001" lon="34.6838323586"><ele>160.85</ele><time>2026-08-15T11:47:51Z</time></trkpt><trkpt lat="59.3686496839" lon="34.6835866012"><ele>160.91</ele><time>2026-08-15T11:48:09Z</time></trkpt><trkpt lat="59.3687221035" lon="34.6834156103"><ele>160.60</ele><time>2026-08-15T11:48:28Z</time></trkpt><trkpt lat="59.3687771726" lon="34.6833581105"><ele>160.42</ele><time>2026-08-15T11:48:43Z</time></trkpt><trkpt lat="59.3688725587" lon="34.6831840184"><ele>160.53</ele><time>2026-08-15T11:49:03Z</time></trkpt><trkpt lat="59.3689605687" lon="34.6830900572"><ele>160.09</ele><time>2026-08-15T11:49:19Z</time></trkpt><trkpt lat="59.3690046575" lon="34.6830337308"><ele>160.26</ele><time>2026-08-15T11:49:44Z</time></trkpt><trkpt lat="59.3690252770" lon="34.6830336470"><ele>159.94</ele><time>2026-08-15T11:50:21Z</time></trkpt><trkpt lat="59.3691144604" lon="34.6830345690"><ele>159.93</ele><time>2026-08-15T11:50:39Z</time></trkpt><trkpt lat="59.3691847846" lon="34.6831004508"><ele>160.16</ele><time>2026-08-15T11:50:56Z</time></trkpt><trkpt lat="59.3693074118" lon="34.6832002793"><ele>160.04</ele><time>2026-08-15T11:51:16Z</time></trkpt><trkpt lat="59.3693374190" lon="34.6831279434"><ele>159.73</ele><time>2026-08-15T11:51:36Z</time></trkpt><trkpt lat="59.3693833519" lon="34.6829777397"><ele>159.57</ele><time>2026-08-15T11:51:56Z</time></trkpt><trkpt lat="59.3694126047" lon="34.6829344053"><ele>159.72</ele><time>2026-08-15T11:52:12Z</time></trkpt><trkpt lat="59.3693907280" lon="34.6828080062"><ele>159.75</ele><time>2026-08-15T11:52:28Z</time></trkpt><trkpt lat="59.3693684321" lon="34.6827633306"><ele>159.86</ele><time>2026-08-15T11:52:49Z</time></trkpt><trkpt lat="59.3693398498" lon="34.6827258635"><ele>159.46</ele><time>2026-08-15T11:53:13Z</time></trkpt><trkpt lat="59.3693588767" lon="34.6827310603"><ele>159.56</ele><time>2026-08-15T11:53:41Z</time></trkpt><trkpt lat="59.3693547696" lon="34.6827342454"><ele>159.75</ele><time>2026-08-15T11:54:15Z</time></trkpt><trkpt lat="59.3693365809" lon="34.6827012207"><ele>160.06</ele><time>2026-08-15T11:54:40Z</time></trkpt><trkpt lat="59.3693036400" lon="34.6826455649"><ele>159.88</ele><time>2026-08-15T11:55:00Z</time></trkpt><trkpt lat="59.3692628201" lon="34.6826484986"><ele>159.69</ele><time>2026-08-15T11:55:18Z</time></trkpt><trkpt lat="59.3691983633" lon="34.6826221794"><ele>159.83</ele><time>2026-08-15T11:55:38Z</time></trkpt><trkpt lat="59.3691684399" lon="34.6826404519"><ele>160.00</ele><time>2026-08-15T11:56:08Z</time></trkpt><trkpt lat="59.3692117743" lon="34.6826003026"><ele>159.94</ele><time>2026-08-15T11:56:36Z</time></trkpt><trkpt lat="59.3692479003" lon="34.6825981233"><ele>159.98</ele><time>2026-08-15T11:57:07Z</time></trkpt><trkpt lat="59.3692919891" lon="34.6825611591"><ele>160.13</ele><time>2026-08-15T11:57:29Z</time></trkpt><trkpt lat="59.3693442084" lon="34.6825775877"><ele>160.15</ele><time>2026-08-15T11:58:09Z</time></trkpt><trkpt lat="59.3694292009" lon="34.6824331675"><ele>160.13</ele><time>2026-08-15T11:58:27Z</time></trkpt><trkpt lat="59.3694970943" lon="34.6824118774"><ele>159.69</ele><time>2026-08-15T11:58:43Z</time></trkpt><trkpt lat="59.3696222361" lon="34.6823332552"><ele>159.67</ele><time>2026-08-15T11:59:03Z</time></trkpt><trkpt lat="59.3696239125" lon="34.6823194250"><ele>159.56</ele><time>2026-08-15T11:59:04Z</time></trkpt><trkpt lat="59.3696601223" lon="34.6822143160"><ele>159.64</ele><time>2026-08-15T11:59:20Z</time></trkpt><trkpt lat="59.3696576077" lon="34.6820338536"><ele>159.45</ele><time>2026-08-15T11:59:40Z</time></trkpt><trkpt lat="59.3697258364" lon="34.6819475200"><ele>159.81</ele><time>2026-08-15T12:00:01Z</time></trkpt><trkpt lat="59.3697903771" lon="34.6819432452"><ele>159.34</ele><time>2026-08-15T12:00:16Z</time></trkpt><trkpt lat="59.3698001001" lon="34.6819280740"><ele>159.47</ele><time>2026-08-15T12:00:37Z</time></trkpt><trkpt lat="59.3698123377" lon="34.6819350310"><ele>159.76</ele><time>2026-08-15T12:01:03Z</time></trkpt><trkpt lat="59.3698159419" lon="34.6819149982"><ele>159.89</ele><time>2026-08-15T12:01:33Z</time></trkpt><trkpt lat="59.3698037881" lon="34.6818745974"><ele>160.11</ele><time>2026-08-15T12:02:01Z</time></trkpt><trkpt lat="59.3698881939" lon="34.6818397287"><ele>159.88</ele><time>2026-08-15T12:02:17Z</time></trkpt><trkpt lat="59.3699529022" lon="34.6818147507"><ele>159.37</ele><time>2026-08-15T12:02:35Z</time></trkpt><trkpt lat="59.3700304348" lon="34.6818050276"><ele>159.53</ele><time>2026-08-15T12:02:54Z</time></trkpt><trkpt lat="59.3700606935" lon="34.6817870066"><ele>159.53</ele><time>2026-08-15T12:03:13Z</time></trkpt><trkpt lat="59.3700800557" lon="34.6817556582"><ele>159.29</ele><time>2026-08-15T12:03:33Z</time></trkpt><trkpt lat="59.3700928800" lon="34.6817077138"><ele>159.52</ele><time>2026-08-15T12:03:57Z</time></trkpt><trkpt lat="59.3701168522" lon="34.6816875972"><ele>159.51</ele><time>2026-08-15T12:04:17Z</time></trkpt><trkpt lat="59.3702019285" lon="34.6816402394"><ele>159.89</ele><time>2026-08-15T12:04:36Z</time></trkpt><trkpt lat="59.3702620268" lon="34.6816373058"><ele>159.77</ele><time>2026-08-15T12:04:52Z</time></trkpt><trkpt lat="59.3702846579" lon="34.6816199552"><ele>159.59</ele><time>2026-08-15T12:05:15Z</time></trkpt><trkpt lat="59.3703207839" lon="34.6815583482"><ele>159.65</ele><time>2026-08-15T12:05:44Z</time></trkpt><trkpt lat="59.3703932036" lon="34.6815326158"><ele>159.59</ele><time>2026-08-15T12:06:13Z</time></trkpt><trkpt lat="59.3704379629" lon="34.6816525608"><ele>159.68</ele><time>2026-08-15T12:06:30Z</time></trkpt><trkpt lat="59.3704873323" lon="34.6817782894"><ele>159.56</ele><time>2026-08-15T12:06:49Z</time></trkpt><trkpt lat="59.3704814650" lon="34.6818421595"><ele>159.31</ele><time>2026-08-15T12:07:20Z</time></trkpt><trkpt lat="59.3704680540" lon="34.6818600129"><ele>159.83</ele><time>2026-08-15T12:07:24Z</time></trkpt><trkpt lat="59.3704769388" lon="34.6818729211"><ele>159.71</ele><time>2026-08-15T12:07:42Z</time></trkpt><trkpt lat="59.3704722449" lon="34.6818601806"><ele>159.74</ele><time>2026-08-15T12:08:23Z</time></trkpt><trkpt lat="59.3704917748" lon="34.6817846596"><ele>159.84</ele><time>2026-08-15T12:08:50Z</time></trkpt><trkpt lat="59.3704598397" lon="34.6816351265"><ele>159.79</ele><time>2026-08-15T12:09:12Z</time></trkpt><trkpt lat="59.3704080395" lon="34.6815213840"><ele>159.97</ele><time>2026-08-15T12:09:28Z</time></trkpt><trkpt lat="59.3703689799" lon="34.6814075578"><ele>160.01</ele><time>2026-08-15T12:09:40Z</time></trkpt><trkpt lat="59.3703782838" lon="34.6812788956"><ele>159.71</ele><time>2026-08-15T12:09:57Z</time></trkpt><trkpt lat="59.3703301717" lon="34.6811484732"><ele>159.52</ele><time>2026-08-15T12:10:13Z</time></trkpt><trkpt lat="59.3702657986" lon="34.6810763050"><ele>159.82</ele><time>2026-08-15T12:10:31Z</time></trkpt><trkpt lat="59.3702237215" lon="34.6810223255"><ele>159.52</ele><time>2026-08-15T12:10:42Z</time></trkpt><trkpt lat="59.3701694068" lon="34.6809661668"><ele>159.66</ele><time>2026-08-15T12:10:56Z</time></trkpt><trkpt lat="59.3701320235" lon="34.6809330583"><ele>159.97</ele><time>2026-08-15T12:11:12Z</time></trkpt><trkpt lat="59.3700710870" lon="34.6808223333"><ele>159.74</ele><time>2026-08-15T12:11:28Z</time></trkpt><trkpt lat="59.3700644653" lon="34.6807313897"><ele>159.58</ele><time>2026-08-15T12:11:46Z</time></trkpt><trkpt lat="59.3700325303" lon="34.6805781685"><ele>159.46</ele><time>2026-08-15T12:12:02Z</time></trkpt><trkpt lat="59.3700212147" lon="34.6804498415"><ele>159.32</ele><time>2026-08-15T12:12:19Z</time></trkpt><trkpt lat="59.3700082228" lon="34.6803796850"><ele>159.30</ele><time>2026-08-15T12:12:37Z</time></trkpt><trkpt lat="59.3699997570" lon="34.6802333370"><ele>159.24</ele><time>2026-08-15T12:12:57Z</time></trkpt><trkpt lat="59.3699586019" lon="34.6800984722"><ele>158.76</ele><time>2026-08-15T12:13:13Z</time></trkpt><trkpt lat="59.3699343782" lon="34.6800119709"><ele>158.98</ele><time>2026-08-15T12:13:44Z</time></trkpt><trkpt lat="59.3699768744" lon="34.6800155751"><ele>158.59</ele><time>2026-08-15T12:14:18Z</time></trkpt><trkpt lat="59.3699640501" lon="34.6798551455"><ele>158.75</ele><time>2026-08-15T12:14:36Z</time></trkpt><trkpt lat="59.3698951509" lon="34.6796814725"><ele>158.77</ele><time>2026-08-15T12:14:54Z</time></trkpt><trkpt lat="59.3698863499" lon="34.6795338672"><ele>158.43</ele><time>2026-08-15T12:15:07Z</time></trkpt><trkpt lat="59.3698887806" lon="34.6794057917"><ele>158.12</ele><time>2026-08-15T12:15:21Z</time></trkpt><trkpt lat="59.3698281795" lon="34.6793051250"><ele>158.24</ele><time>2026-08-15T12:15:38Z</time></trkpt><trkpt lat="59.3697677460" lon="34.6791130956"><ele>157.93</ele><time>2026-08-15T12:15:56Z</time></trkpt><trkpt lat="59.3697508145" lon="34.6789065655"><ele>158.27</ele><time>2026-08-15T12:16:11Z</time></trkpt><trkpt lat="59.3696996011" lon="34.6787277795"><ele>158.37</ele><time>2026-08-15T12:16:27Z</time></trkpt><trkpt lat="59.3696907163" lon="34.6785542741"><ele>158.08</ele><time>2026-08-15T12:16:42Z</time></trkpt><trkpt lat="59.3696813285" lon="34.6783727221"><ele>157.72</ele><time>2026-08-15T12:17:00Z</time></trkpt><trkpt lat="59.3696539197" lon="34.6781717241"><ele>157.59</ele><time>2026-08-15T12:17:18Z</time></trkpt><trkpt lat="59.3696684204" lon="34.6779674571"><ele>157.34</ele><time>2026-08-15T12:17:36Z</time></trkpt><trkpt lat="59.3696441967" lon="34.6778071951"><ele>157.11</ele><time>2026-08-15T12:17:53Z</time></trkpt><trkpt lat="59.3695957493" lon="34.6776854899"><ele>157.26</ele><time>2026-08-15T12:18:08Z</time></trkpt><trkpt lat="59.3695789855" lon="34.6776368748"><ele>157.12</ele><time>2026-08-15T12:18:23Z</time></trkpt><trkpt lat="59.3695723638" lon="34.6776227932"><ele>156.70</ele><time>2026-08-15T12:18:51Z</time></trkpt><trkpt lat="59.3695555162" lon="34.6775825601"><ele>156.79</ele><time>2026-08-15T12:19:20Z</time></trkpt><trkpt lat="59.3695502356" lon="34.6775287483"><ele>156.47</ele><time>2026-08-15T12:19:44Z</time></trkpt><trkpt lat="59.3695778958" lon="34.6774111502"><ele>156.17</ele><time>2026-08-15T12:20:00Z</time></trkpt><trkpt lat="59.3696489744" lon="34.6772020217"><ele>156.20</ele><time>2026-08-15T12:20:20Z</time></trkpt><trkpt lat="59.3697312009" lon="34.6770623792"><ele>155.82</ele><time>2026-08-15T12:20:39Z</time></trkpt><trkpt lat="59.3697731942" lon="34.6770005208"><ele>156.15</ele><time>2026-08-15T12:20:56Z</time></trkpt><trkpt lat="59.3698263355" lon="34.6769897081"><ele>156.25</ele><time>2026-08-15T12:21:15Z</time></trkpt><trkpt lat="59.3698883615" lon="34.6770037897"><ele>156.36</ele><time>2026-08-15T12:21:31Z</time></trkpt><trkpt lat="59.3699900340" lon="34.6768969204"><ele>156.53</ele><time>2026-08-15T12:21:46Z</time></trkpt><trkpt lat="59.3700831570" lon="34.6768503170"><ele>156.73</ele><time>2026-08-15T12:22:03Z</time></trkpt><trkpt lat="59.3701307662" lon="34.6767057292"><ele>156.67</ele><time>2026-08-15T12:22:21Z</time></trkpt><trkpt lat="59.3701846618" lon="34.6765686851"><ele>156.42</ele><time>2026-08-15T12:22:37Z</time></trkpt><trkpt lat="59.3702045269" lon="34.6765781567"><ele>157.92</ele><time>2026-08-15T12:23:19Z</time></trkpt><trkpt lat="59.3702223804" lon="34.6765574533"><ele>156.95</ele><time>2026-08-15T12:23:56Z</time></trkpt><trkpt lat="59.3702717498" lon="34.6765059046"><ele>156.87</ele><time>2026-08-15T12:24:12Z</time></trkpt><trkpt lat="59.3703187723" lon="34.6763918269"><ele>156.55</ele><time>2026-08-15T12:24:26Z</time></trkpt><trkpt lat="59.3703832291" lon="34.6762832813"><ele>156.70</ele><time>2026-08-15T12:24:41Z</time></trkpt><trkpt lat="59.3703890126" lon="34.6761267073"><ele>156.68</ele><time>2026-08-15T12:24:54Z</time></trkpt><trkpt lat="59.3704169244" lon="34.6758690476"><ele>156.05</ele><time>2026-08-15T12:25:13Z</time></trkpt><trkpt lat="59.3704614323" lon="34.6757087857"><ele>155.69</ele><time>2026-08-15T12:25:30Z</time></trkpt><trkpt lat="59.3705333490" lon="34.6755391359"><ele>155.82</ele><time>2026-08-15T12:25:50Z</time></trkpt><trkpt lat="59.3705403898" lon="34.6754655428"><ele>155.61</ele><time>2026-08-15T12:26:08Z</time></trkpt><trkpt lat="59.3705606740" lon="34.6752113197"><ele>155.68</ele><time>2026-08-15T12:26:28Z</time></trkpt><trkpt lat="59.3705631047" lon="34.6750414185"><ele>156.00</ele><time>2026-08-15T12:26:48Z</time></trkpt><trkpt lat="59.3705579918" lon="34.6749468707"><ele>156.18</ele><time>2026-08-15T12:27:18Z</time></trkpt><trkpt lat="59.3705101311" lon="34.6749180369"><ele>155.52</ele><time>2026-08-15T12:27:47Z</time></trkpt><trkpt lat="59.3705764320" lon="34.6748626325"><ele>155.78</ele><time>2026-08-15T12:28:12Z</time></trkpt><trkpt lat="59.3706412241" lon="34.6747586969"><ele>156.04</ele><time>2026-08-15T12:28:33Z</time></trkpt><trkpt lat="59.3707212713" lon="34.6745504066"><ele>155.80</ele><time>2026-08-15T12:28:50Z</time></trkpt><trkpt lat="59.3707431480" lon="34.6743160486"><ele>155.37</ele><time>2026-08-15T12:29:13Z</time></trkpt><trkpt lat="59.3707645219" lon="34.6741807647"><ele>155.63</ele><time>2026-08-15T12:29:29Z</time></trkpt><trkpt lat="59.3708522804" lon="34.6739167348"><ele>155.66</ele><time>2026-08-15T12:29:53Z</time></trkpt><trkpt lat="59.3709731475" lon="34.6737295669"><ele>154.67</ele><time>2026-08-15T12:30:11Z</time></trkpt><trkpt lat="59.3710385263" lon="34.6735560615"><ele>155.35</ele><time>2026-08-15T12:30:29Z</time></trkpt><trkpt lat="59.3710134644" lon="34.6735253837"><ele>154.86</ele><time>2026-08-15T12:31:05Z</time></trkpt><trkpt lat="59.3710249476" lon="34.6734943707"><ele>154.48</ele><time>2026-08-15T12:31:34Z</time></trkpt><trkpt lat="59.3710631691" lon="34.6734931972"><ele>154.51</ele><time>2026-08-15T12:31:39Z</time></trkpt><trkpt lat="59.3711051624" lon="34.6733270679"><ele>154.88</ele><time>2026-08-15T12:32:01Z</time></trkpt><trkpt lat="59.3711410370" lon="34.6730870102"><ele>154.34</ele><time>2026-08-15T12:32:21Z</time></trkpt><trkpt lat="59.3711980339" lon="34.6729492117"><ele>154.17</ele><time>2026-08-15T12:32:38Z</time></trkpt><trkpt lat="59.3712730519" lon="34.6727809031"><ele>154.52</ele><time>2026-08-15T12:32:56Z</time></trkpt><trkpt lat="59.3713246845" lon="34.6726164501"><ele>155.17</ele><time>2026-08-15T12:33:11Z</time></trkpt><trkpt lat="59.3714024685" lon="34.6724942420"><ele>154.38</ele><time>2026-08-15T12:33:29Z</time></trkpt><trkpt lat="59.3714654166" lon="34.6722729597"><ele>154.16</ele><time>2026-08-15T12:33:53Z</time></trkpt><trkpt lat="59.3715218268" lon="34.6721733827"><ele>154.65</ele><time>2026-08-15T12:34:12Z</time></trkpt><trkpt lat="59.3715335615" lon="34.6721136197"><ele>154.92</ele><time>2026-08-15T12:34:31Z</time></trkpt><trkpt lat="59.3715313822" lon="34.6720915753"><ele>155.12</ele><time>2026-08-15T12:35:04Z</time></trkpt><trkpt lat="59.3715302926" lon="34.6720778290"><ele>155.23</ele><time>2026-08-15T12:35:32Z</time></trkpt><trkpt lat="59.3715673406" lon="34.6719911601"><ele>155.01</ele><time>2026-08-15T12:35:59Z</time></trkpt><trkpt lat="59.3716523331" lon="34.6720008831"><ele>155.61</ele><time>2026-08-15T12:36:19Z</time></trkpt><trkpt lat="59.3717205618" lon="34.6719567105"><ele>155.79</ele><time>2026-08-15T12:36:35Z</time></trkpt><trkpt lat="59.3717874493" lon="34.6719241887"><ele>155.87</ele><time>2026-08-15T12:36:52Z</time></trkpt><trkpt lat="59.3718577735" lon="34.6718552895"><ele>155.86</ele><time>2026-08-15T12:37:10Z</time></trkpt><trkpt lat="59.3719187099" lon="34.6717311535"><ele>155.84</ele><time>2026-08-15T12:37:30Z</time></trkpt><trkpt lat="59.3719381560" lon="34.6715733223"><ele>155.19</ele><time>2026-08-15T12:37:49Z</time></trkpt><trkpt lat="59.3719984218" lon="34.6714701410"><ele>155.15</ele><time>2026-08-15T12:38:06Z</time></trkpt><trkpt lat="59.3720142636" lon="34.6713789459"><ele>155.85</ele><time>2026-08-15T12:38:25Z</time></trkpt><trkpt lat="59.3720487133" lon="34.6714488510"><ele>155.72</ele><time>2026-08-15T12:38:43Z</time></trkpt><trkpt lat="59.3721492961" lon="34.6713553928"><ele>156.00</ele><time>2026-08-15T12:39:02Z</time></trkpt><trkpt lat="59.3722364679" lon="34.6712238807"><ele>155.91</ele><time>2026-08-15T12:39:19Z</time></trkpt><trkpt lat="59.3723227177" lon="34.6712505352"><ele>155.92</ele><time>2026-08-15T12:39:39Z</time></trkpt><trkpt lat="59.3723373022" lon="34.6712449193"><ele>155.67</ele><time>2026-08-15T12:40:10Z</time></trkpt><trkpt lat="59.3723460194" lon="34.6712388005"><ele>155.70</ele><time>2026-08-15T12:40:42Z</time></trkpt><trkpt lat="59.3724011723" lon="34.6712694783"><ele>155.61</ele><time>2026-08-15T12:41:02Z</time></trkpt><trkpt lat="59.3724918645" lon="34.6712072007"><ele>156.08</ele><time>2026-08-15T12:41:22Z</time></trkpt><trkpt lat="59.3725341093" lon="34.6711285785"><ele>156.02</ele><time>2026-08-15T12:41:40Z</time></trkpt><trkpt lat="59.3726600055" lon="34.6711197775"><ele>156.41</ele><time>2026-08-15T12:42:00Z</time></trkpt><trkpt lat="59.3727285694" lon="34.6710121538"><ele>156.31</ele><time>2026-08-15T12:42:20Z</time></trkpt><trkpt lat="59.3727796990" lon="34.6708369721"><ele>156.66</ele><time>2026-08-15T12:42:37Z</time></trkpt><trkpt lat="59.3728563935" lon="34.6706658136"><ele>156.59</ele><time>2026-08-15T12:42:58Z</time></trkpt><trkpt lat="59.3728758395" lon="34.6706089005"><ele>156.52</ele><time>2026-08-15T12:43:19Z</time></trkpt><trkpt lat="59.3729788531" lon="34.6706286818"><ele>156.25</ele><time>2026-08-15T12:43:50Z</time></trkpt><trkpt lat="59.3729950301" lon="34.6705052163"><ele>156.59</ele><time>2026-08-15T12:44:07Z</time></trkpt><trkpt lat="59.3730309885" lon="34.6704001073"><ele>156.43</ele><time>2026-08-15T12:44:28Z</time></trkpt><trkpt lat="59.3730858061" lon="34.6704247501"><ele>156.56</ele><time>2026-08-15T12:44:58Z</time></trkpt><trkpt lat="59.3730873987" lon="34.6704052202"><ele>156.78</ele><time>2026-08-15T12:45:27Z</time></trkpt><trkpt lat="59.3731044140" lon="34.6703469660"><ele>157.03</ele><time>2026-08-15T12:45:57Z</time></trkpt><trkpt lat="59.3731876463" lon="34.6702623088"><ele>158.63</ele><time>2026-08-15T12:46:14Z</time></trkpt><trkpt lat="59.3732653465" lon="34.6701998636"><ele>157.86</ele><time>2026-08-15T12:46:29Z</time></trkpt><trkpt lat="59.3733588886" lon="34.6700667590"><ele>158.40</ele><time>2026-08-15T12:46:51Z</time></trkpt><trkpt lat="59.3734576274" lon="34.6700115222"><ele>158.71</ele><time>2026-08-15T12:47:11Z</time></trkpt><trkpt lat="59.3735317234" lon="34.6699996199"><ele>158.47</ele><time>2026-08-15T12:47:32Z</time></trkpt><trkpt lat="59.3736465555" lon="34.6698811837"><ele>158.26</ele><time>2026-08-15T12:47:51Z</time></trkpt><trkpt lat="59.3737268541" lon="34.6696911659"><ele>158.07</ele><time>2026-08-15T12:48:09Z</time></trkpt><trkpt lat="59.3737138622" lon="34.6697139647"><ele>158.26</ele><time>2026-08-15T12:48:40Z</time></trkpt><trkpt lat="59.3738079909" lon="34.6697225980"><ele>158.57</ele><time>2026-08-15T12:49:11Z</time></trkpt><trkpt lat="59.3738115951" lon="34.6696821973"><ele>158.67</ele><time>2026-08-15T12:49:41Z</time></trkpt><trkpt lat="59.3738847692" lon="34.6695844643"><ele>158.43</ele><time>2026-08-15T12:49:59Z</time></trkpt><trkpt lat="59.3739800714" lon="34.6694373619"><ele>158.88</ele><time>2026-08-15T12:50:20Z</time></trkpt><trkpt lat="59.3741242401" lon="34.6693080291"><ele>159.05</ele><time>2026-08-15T12:50:41Z</time></trkpt><trkpt lat="59.3742565904" lon="34.6691840608"><ele>159.63</ele><time>2026-08-15T12:50:59Z</time></trkpt><trkpt lat="59.3744096439" lon="34.6690714918"><ele>159.59</ele><time>2026-08-15T12:51:19Z</time></trkpt><trkpt lat="59.3744751904" lon="34.6689676400"><ele>159.48</ele><time>2026-08-15T12:51:38Z</time></trkpt><trkpt lat="59.3744750228" lon="34.6688998304"><ele>159.37</ele><time>2026-08-15T12:51:59Z</time></trkpt><trkpt lat="59.3745284155" lon="34.6688564122"><ele>159.51</ele><time>2026-08-15T12:52:29Z</time></trkpt><trkpt lat="59.3745061196" lon="34.6688471921"><ele>159.01</ele><time>2026-08-15T12:53:00Z</time></trkpt><trkpt lat="59.3745023478" lon="34.6688304283"><ele>158.89</ele><time>2026-08-15T12:53:25Z</time></trkpt><trkpt lat="59.3744880147" lon="34.6687924583"><ele>158.54</ele><time>2026-08-15T12:53:48Z</time></trkpt><trkpt lat="59.3744404055" lon="34.6687296778"><ele>158.37</ele><time>2026-08-15T12:53:57Z</time></trkpt><trkpt lat="59.3744020164" lon="34.6686943900"><ele>158.02</ele><time>2026-08-15T12:54:22Z</time></trkpt><trkpt lat="59.3743815646" lon="34.6686988324"><ele>158.20</ele><time>2026-08-15T12:54:59Z</time></trkpt><trkpt lat="59.3743662257" lon="34.6687139198"><ele>158.37</ele><time>2026-08-15T12:55:06Z</time></trkpt><trkpt lat="59.3743910361" lon="34.6687295940"><ele>158.66</ele><time>2026-08-15T12:55:35Z</time></trkpt><trkpt lat="59.3744179420" lon="34.6687317733"><ele>159.92</ele><time>2026-08-15T12:56:01Z</time></trkpt><trkpt lat="59.3744443450" lon="34.6688513830"><ele>160.69</ele><time>2026-08-15T12:56:20Z</time></trkpt><trkpt lat="59.3744495418" lon="34.6688555740"><ele>160.73</ele><time>2026-08-15T12:56:23Z</time></trkpt><trkpt lat="59.3745298404" lon="34.6689193603"><ele>160.87</ele><time>2026-08-15T12:56:48Z</time></trkpt><trkpt lat="59.3745202012" lon="34.6689534746"><ele>160.73</ele><time>2026-08-15T12:57:21Z</time></trkpt><trkpt lat="59.3745611887" lon="34.6689354535"><ele>160.47</ele><time>2026-08-15T12:57:51Z</time></trkpt><trkpt lat="59.3745151721" lon="34.6689767763"><ele>160.43</ele><time>2026-08-15T12:58:02Z</time></trkpt><trkpt lat="59.3744925410" lon="34.6689859126"><ele>160.89</ele><time>2026-08-15T12:58:30Z</time></trkpt><trkpt lat="59.3744877633" lon="34.6689443383"><ele>161.09</ele><time>2026-08-15T12:58:56Z</time></trkpt><trkpt lat="59.3745255657" lon="34.6688403189"><ele>161.16</ele><time>2026-08-15T12:59:18Z</time></trkpt><trkpt lat="59.3746253103" lon="34.6685446054"><ele>161.42</ele><time>2026-08-15T12:59:37Z</time></trkpt><trkpt lat="59.3746566586" lon="34.6684042923"><ele>161.58</ele><time>2026-08-15T12:59:55Z</time></trkpt><trkpt lat="59.3747696467" lon="34.6684522368"><ele>162.04</ele><time>2026-08-15T13:00:15Z</time></trkpt><trkpt lat="59.3748626020" lon="34.6684029512"><ele>161.82</ele><time>2026-08-15T13:00:34Z</time></trkpt><trkpt lat="59.3749584910" lon="34.6684218943"><ele>162.05</ele><time>2026-08-15T13:00:54Z</time></trkpt><trkpt lat="59.3750415556" lon="34.6684130095"><ele>162.17</ele><time>2026-08-15T13:01:14Z</time></trkpt><trkpt lat="59.3751288950" lon="34.6682946570"><ele>162.04</ele><time>2026-08-15T13:01:34Z</time></trkpt><trkpt lat="59.3751817010" lon="34.6680763923"><ele>162.77</ele><time>2026-08-15T13:01:57Z</time></trkpt><trkpt lat="59.3751850538" lon="34.6680162102"><ele>163.07</ele><time>2026-08-15T13:02:01Z</time></trkpt><trkpt lat="59.3751936872" lon="34.6678941697"><ele>162.44</ele><time>2026-08-15T13:02:27Z</time></trkpt><trkpt lat="59.3752924260" lon="34.6679161303"><ele>162.77</ele><time>2026-08-15T13:02:57Z</time></trkpt><trkpt lat="59.3752744049" lon="34.6679406054"><ele>163.15</ele><time>2026-08-15T13:03:29Z</time></trkpt><trkpt lat="59.3752982095" lon="34.6678810939"><ele>163.37</ele><time>2026-08-15T13:03:52Z</time></trkpt><trkpt lat="59.3753622472" lon="34.6678558644"><ele>163.67</ele><time>2026-08-15T13:04:09Z</time></trkpt><trkpt lat="59.3754223455" lon="34.6677320637"><ele>163.24</ele><time>2026-08-15T13:04:29Z</time></trkpt><trkpt lat="59.3754979502" lon="34.6675697900"><ele>163.17</ele><time>2026-08-15T13:04:48Z</time></trkpt><trkpt lat="59.3755726330" lon="34.6673976257"><ele>162.83</ele><time>2026-08-15T13:05:05Z</time></trkpt><trkpt lat="59.3756293785" lon="34.6672856435"><ele>163.52</ele><time>2026-08-15T13:05:21Z</time></trkpt><trkpt lat="59.3757306319" lon="34.6671579033"><ele>163.98</ele><time>2026-08-15T13:05:40Z</time></trkpt><trkpt lat="59.3758326396" lon="34.6670755092"><ele>163.87</ele><time>2026-08-15T13:06:01Z</time></trkpt><trkpt lat="59.3759297859" lon="34.6670459211"><ele>163.22</ele><time>2026-08-15T13:06:23Z</time></trkpt><trkpt lat="59.3759633973" lon="34.6669945400"><ele>164.04</ele><time>2026-08-15T13:06:50Z</time></trkpt><trkpt lat="59.3759936560" lon="34.6670121420"><ele>164.08</ele><time>2026-08-15T13:07:15Z</time></trkpt><trkpt lat="59.3760274351" lon="34.6670092922"><ele>164.48</ele><time>2026-08-15T13:07:46Z</time></trkpt><trkpt lat="59.3760083243" lon="34.6670310013"><ele>164.50</ele><time>2026-08-15T13:07:53Z</time></trkpt><trkpt lat="59.3760478031" lon="34.6670398861"><ele>164.17</ele><time>2026-08-15T13:08:24Z</time></trkpt><trkpt lat="59.3760112580" lon="34.6668805461"><ele>164.57</ele><time>2026-08-15T13:08:42Z</time></trkpt><trkpt lat="59.3760764692" lon="34.6667419095"><ele>165.22</ele><time>2026-08-15T13:09:05Z</time></trkpt><trkpt lat="59.3761554267" lon="34.6667704079"><ele>166.34</ele><time>2026-08-15T13:09:25Z</time></trkpt><trkpt lat="59.3762421794" lon="34.6666741837"><ele>166.79</ele><time>2026-08-15T13:09:44Z</time></trkpt><trkpt lat="59.3762593623" lon="34.6664477885"><ele>166.53</ele><time>2026-08-15T13:10:06Z</time></trkpt><trkpt lat="59.3763048761" lon="34.6662595309"><ele>166.53</ele><time>2026-08-15T13:10:26Z</time></trkpt><trkpt lat="59.3764202949" lon="34.6661060583"><ele>167.01</ele><time>2026-08-15T13:10:45Z</time></trkpt><trkpt lat="59.3765010964" lon="34.6659502387"><ele>166.30</ele><time>2026-08-15T13:11:04Z</time></trkpt><trkpt lat="59.3764895294" lon="34.6657540184"><ele>166.55</ele><time>2026-08-15T13:11:23Z</time></trkpt><trkpt lat="59.3765026890" lon="34.6656245179"><ele>166.73</ele><time>2026-08-15T13:11:49Z</time></trkpt><trkpt lat="59.3764728494" lon="34.6655658446"><ele>166.59</ele><time>2026-08-15T13:12:17Z</time></trkpt><trkpt lat="59.3765202072" lon="34.6655628271"><ele>166.65</ele><time>2026-08-15T13:12:43Z</time></trkpt><trkpt lat="59.3765858375" lon="34.6655814350"><ele>166.55</ele><time>2026-08-15T13:13:02Z</time></trkpt><trkpt lat="59.3766424153" lon="34.6656188183"><ele>166.64</ele><time>2026-08-15T13:13:18Z</time></trkpt><trkpt lat="59.3767356221" lon="34.6655880567"><ele>167.18</ele><time>2026-08-15T13:13:41Z</time></trkpt><trkpt lat="59.3767536432" lon="34.6654837020"><ele>167.40</ele><time>2026-08-15T13:14:00Z</time></trkpt><trkpt lat="59.3767017592" lon="34.6653397009"><ele>167.31</ele><time>2026-08-15T13:14:21Z</time></trkpt><trkpt lat="59.3766972329" lon="34.6651713923"><ele>168.72</ele><time>2026-08-15T13:14:41Z</time></trkpt><trkpt lat="59.3766979035" lon="34.6651421394"><ele>168.72</ele><time>2026-08-15T13:14:43Z</time></trkpt><trkpt lat="59.3767147511" lon="34.6649848949"><ele>168.81</ele><time>2026-08-15T13:15:08Z</time></trkpt><trkpt lat="59.3767661322" lon="34.6648628544"><ele>169.61</ele><time>2026-08-15T13:15:29Z</time></trkpt><trkpt lat="59.3768185191" lon="34.6646505408"><ele>170.10</ele><time>2026-08-15T13:15:53Z</time></trkpt><trkpt lat="59.3768397253" lon="34.6645238902"><ele>170.07</ele><time>2026-08-15T13:16:14Z</time></trkpt><trkpt lat="59.3768175971" lon="34.6644450165"><ele>170.17</ele><time>2026-08-15T13:16:39Z</time></trkpt><trkpt lat="59.3767692335" lon="34.6642461140"><ele>170.81</ele><time>2026-08-15T13:16:58Z</time></trkpt><trkpt lat="59.3767486978" lon="34.6639839280"><ele>170.42</ele><time>2026-08-15T13:17:16Z</time></trkpt><trkpt lat="59.3768171780" lon="34.6639748756"><ele>170.09</ele><time>2026-08-15T13:17:37Z</time></trkpt><trkpt lat="59.3769069482" lon="34.6640742011"><ele>169.29</ele><time>2026-08-15T13:18:00Z</time></trkpt><trkpt lat="59.3769258074" lon="34.6641798131"><ele>169.21</ele><time>2026-08-15T13:18:22Z</time></trkpt><trkpt lat="59.3769422360" lon="34.6642363071"><ele>169.47</ele><time>2026-08-15T13:18:45Z</time></trkpt><trkpt lat="59.3769244663" lon="34.6642401628"><ele>169.59</ele><time>2026-08-15T13:18:57Z</time></trkpt><trkpt lat="59.3768620212" lon="34.6642301884"><ele>169.62</ele><time>2026-08-15T13:19:11Z</time></trkpt><trkpt lat="59.3768785335" lon="34.6641784720"><ele>169.61</ele><time>2026-08-15T13:19:39Z</time></trkpt><trkpt lat="59.3768430781" lon="34.6641784720"><ele>169.49</ele><time>2026-08-15T13:20:10Z</time></trkpt><trkpt lat="59.3768885080" lon="34.6642286796"><ele>170.18</ele><time>2026-08-15T13:20:35Z</time></trkpt><trkpt lat="59.3769071996" lon="34.6642562561"><ele>170.13</ele><time>2026-08-15T13:21:02Z</time></trkpt><trkpt lat="59.3769022543" lon="34.6643181983"><ele>170.26</ele><time>2026-08-15T13:21:25Z</time></trkpt><trkpt lat="59.3769040983" lon="34.6644415800"><ele>170.12</ele><time>2026-08-15T13:21:48Z</time></trkpt><trkpt lat="59.3769154139" lon="34.6648510359"><ele>169.95</ele><time>2026-08-15T13:22:13Z</time></trkpt><trkpt lat="59.3769176770" lon="34.6651794389"><ele>169.88</ele><time>2026-08-15T13:22:32Z</time></trkpt><trkpt lat="59.3769687228" lon="34.6653135493"><ele>169.55</ele><time>2026-08-15T13:22:46Z</time></trkpt><trkpt lat="59.3769997358" lon="34.6654597297"><ele>169.65</ele><time>2026-08-15T13:23:05Z</time></trkpt><trkpt lat="59.3770270608" lon="34.6659268532"><ele>168.77</ele><time>2026-08-15T13:23:27Z</time></trkpt><trkpt lat="59.3770724908" lon="34.6662311163"><ele>169.02</ele><time>2026-08-15T13:23:47Z</time></trkpt><trkpt lat="59.3770905118" lon="34.6663287655"><ele>168.81</ele><time>2026-08-15T13:23:54Z</time></trkpt><trkpt lat="59.3770988099" lon="34.6663609520"><ele>168.82</ele><time>2026-08-15T13:23:56Z</time></trkpt><trkpt lat="59.3771307450" lon="34.6664981637"><ele>168.53</ele><time>2026-08-15T13:24:04Z</time></trkpt><trkpt lat="59.3771336786" lon="34.6667155065"><ele>168.80</ele><time>2026-08-15T13:24:18Z</time></trkpt><trkpt lat="59.3771401327" lon="34.6667675581"><ele>168.91</ele><time>2026-08-15T13:24:20Z</time></trkpt><trkpt lat="59.3771510292" lon="34.6671846416"><ele>168.82</ele><time>2026-08-15T13:24:42Z</time></trkpt><trkpt lat="59.3771427311" lon="34.6672189236"><ele>168.73</ele><time>2026-08-15T13:24:44Z</time></trkpt><trkpt lat="59.3771346845" lon="34.6672543790"><ele>168.83</ele><time>2026-08-15T13:24:46Z</time></trkpt><trkpt lat="59.3771382887" lon="34.6673974581"><ele>168.57</ele><time>2026-08-15T13:24:54Z</time></trkpt><trkpt lat="59.3771189265" lon="34.6678763162"><ele>167.60</ele><time>2026-08-15T13:25:15Z</time></trkpt><trkpt lat="59.3771125562" lon="34.6680616401"><ele>167.20</ele><time>2026-08-15T13:25:30Z</time></trkpt><trkpt lat="59.3771476764" lon="34.6682203095"><ele>166.52</ele><time>2026-08-15T13:25:47Z</time></trkpt><trkpt lat="59.3772318307" lon="34.6687174402"><ele>165.72</ele><time>2026-08-15T13:26:05Z</time></trkpt><trkpt lat="59.3772616703" lon="34.6688414086"><ele>165.39</ele><time>2026-08-15T13:26:14Z</time></trkpt><trkpt lat="59.3772348482" lon="34.6693868190"><ele>165.13</ele><time>2026-08-15T13:26:28Z</time></trkpt><trkpt lat="59.3773165718" lon="34.6696442273"><ele>164.75</ele><time>2026-08-15T13:26:47Z</time></trkpt><trkpt lat="59.3773394544" lon="34.6697640885"><ele>164.40</ele><time>2026-08-15T13:27:12Z</time></trkpt><trkpt lat="59.3773826212" lon="34.6698408667"><ele>164.53</ele><time>2026-08-15T13:27:28Z</time></trkpt><trkpt lat="59.3773699645" lon="34.6698051598"><ele>164.75</ele><time>2026-08-15T13:27:54Z</time></trkpt><trkpt lat="59.3773537874" lon="34.6698282938"><ele>164.56</ele><time>2026-08-15T13:28:22Z</time></trkpt><trkpt lat="59.3773545418" lon="34.6698012203"><ele>164.37</ele><time>2026-08-15T13:28:44Z</time></trkpt><trkpt lat="59.3773537036" lon="34.6696619969"><ele>163.82</ele><time>2026-08-15T13:29:12Z</time></trkpt><trkpt lat="59.3773402087" lon="34.6695108712"><ele>164.61</ele><time>2026-08-15T13:29:28Z</time></trkpt><trkpt lat="59.3773113750" lon="34.6692387946"><ele>164.87</ele><time>2026-08-15T13:29:49Z</time></trkpt><trkpt lat="59.3772656936" lon="34.6690106392"><ele>165.10</ele><time>2026-08-15T13:30:10Z</time></trkpt><trkpt lat="59.3772499356" lon="34.6688552387"><ele>165.47</ele><time>2026-08-15T13:30:24Z</time></trkpt><trkpt lat="59.3772170786" lon="34.6686990000"><ele>166.02</ele><time>2026-08-15T13:30:36Z</time></trkpt><trkpt lat="59.3771977164" lon="34.6684520692"><ele>166.43</ele><time>2026-08-15T13:30:51Z</time></trkpt><trkpt lat="59.3771939445" lon="34.6684257500"><ele>166.46</ele><time>2026-08-15T13:30:52Z</time></trkpt><trkpt lat="59.3771801982" lon="34.6683581918"><ele>166.51</ele><time>2026-08-15T13:30:56Z</time></trkpt><trkpt lat="59.3771366123" lon="34.6680460498"><ele>167.08</ele><time>2026-08-15T13:31:13Z</time></trkpt><trkpt lat="59.3771345168" lon="34.6679309662"><ele>167.45</ele><time>2026-08-15T13:31:23Z</time></trkpt><trkpt lat="59.3771326728" lon="34.6678739693"><ele>167.30</ele><time>2026-08-15T13:31:26Z</time></trkpt><trkpt lat="59.3771208543" lon="34.6674821991"><ele>168.03</ele><time>2026-08-15T13:31:41Z</time></trkpt><trkpt lat="59.3771319184" lon="34.6671840549"><ele>168.31</ele><time>2026-08-15T13:31:55Z</time></trkpt><trkpt lat="59.3771417253" lon="34.6667890158"><ele>167.92</ele><time>2026-08-15T13:32:16Z</time></trkpt><trkpt lat="59.3771483470" lon="34.6666762792"><ele>168.07</ele><time>2026-08-15T13:32:22Z</time></trkpt><trkpt lat="59.3771283142" lon="34.6664497163"><ele>167.87</ele><time>2026-08-15T13:32:35Z</time></trkpt><trkpt lat="59.3770853989" lon="34.6662050486"><ele>167.56</ele><time>2026-08-15T13:32:47Z</time></trkpt><trkpt lat="59.3770838901" lon="34.6661927272"><ele>167.41</ele><time>2026-08-15T13:32:48Z</time></trkpt><trkpt lat="59.3770598341" lon="34.6660689265"><ele>167.95</ele><time>2026-08-15T13:32:57Z</time></trkpt><trkpt lat="59.3769754283" lon="34.6658302937"><ele>168.37</ele><time>2026-08-15T13:33:11Z</time></trkpt><trkpt lat="59.3769699801" lon="34.6657635737"><ele>168.55</ele><time>2026-08-15T13:33:17Z</time></trkpt><trkpt lat="59.3769864924" lon="34.6655795909"><ele>168.50</ele><time>2026-08-15T13:33:31Z</time></trkpt><trkpt lat="59.3770083692" lon="34.6655117813"><ele>168.34</ele><time>2026-08-15T13:33:37Z</time></trkpt><trkpt lat="59.3769713212" lon="34.6649527084"><ele>169.17</ele><time>2026-08-15T13:34:05Z</time></trkpt><trkpt lat="59.3769462593" lon="34.6646021772"><ele>169.29</ele><time>2026-08-15T13:34:26Z</time></trkpt><trkpt lat="59.3769134860" lon="34.6642167773"><ele>169.04</ele><time>2026-08-15T13:34:40Z</time></trkpt><trkpt lat="59.3768796232" lon="34.6641154401"><ele>169.18</ele><time>2026-08-15T13:35:02Z</time></trkpt><trkpt lat="59.3769023381" lon="34.6641464531"><ele>169.15</ele><time>2026-08-15T13:35:26Z</time></trkpt><trkpt lat="59.3769031763" lon="34.6640888695"><ele>169.16</ele><time>2026-08-15T13:35:53Z</time></trkpt><trkpt lat="59.3769238796" lon="34.6640735306"><ele>168.84</ele><time>2026-08-15T13:36:20Z</time></trkpt><trkpt lat="59.3769059423" lon="34.6640783921"><ele>168.73</ele><time>2026-08-15T13:36:31Z</time></trkpt><trkpt lat="59.3768688943" lon="34.6640402544"><ele>169.09</ele><time>2026-08-15T13:36:52Z</time></trkpt><trkpt lat="59.3768982310" lon="34.6639269311"><ele>169.12</ele><time>2026-08-15T13:37:11Z</time></trkpt><trkpt lat="59.3769336026" lon="34.6639832575"><ele>169.58</ele><time>2026-08-15T13:37:29Z</time></trkpt><trkpt lat="59.3770327605" lon="34.6640124265"><ele>169.01</ele><time>2026-08-15T13:37:48Z</time></trkpt><trkpt lat="59.3771056831" lon="34.6640255023"><ele>168.68</ele><time>2026-08-15T13:38:06Z</time></trkpt><trkpt lat="59.3771295715" lon="34.6639462933"><ele>169.18</ele><time>2026-08-15T13:38:33Z</time></trkpt><trkpt lat="59.3771680444" lon="34.6638409328"><ele>168.38</ele><time>2026-08-15T13:38:54Z</time></trkpt><trkpt lat="59.3771289010" lon="34.6636810061"><ele>168.82</ele><time>2026-08-15T13:39:09Z</time></trkpt><trkpt lat="59.3770600017" lon="34.6634603105"><ele>169.46</ele><time>2026-08-15T13:39:29Z</time></trkpt><trkpt lat="59.3770594988" lon="34.6632096078"><ele>168.87</ele><time>2026-08-15T13:39:50Z</time></trkpt><trkpt lat="59.3770367000" lon="34.6630155668"><ele>168.22</ele><time>2026-08-15T13:40:11Z</time></trkpt><trkpt lat="59.3769838102" lon="34.6627398022"><ele>168.54</ele><time>2026-08-15T13:40:33Z</time></trkpt><trkpt lat="59.3770157453" lon="34.6625983994"><ele>168.52</ele><time>2026-08-15T13:40:57Z</time></trkpt><trkpt lat="59.3770277314" lon="34.6623968147"><ele>168.48</ele><time>2026-08-15T13:41:18Z</time></trkpt><trkpt lat="59.3770221155" lon="34.6623514686"><ele>168.71</ele><time>2026-08-15T13:41:44Z</time></trkpt><trkpt lat="59.3770067766" lon="34.6623133309"><ele>168.75</ele><time>2026-08-15T13:42:14Z</time></trkpt><trkpt lat="59.3769797869" lon="34.6621215530"><ele>169.12</ele><time>2026-08-15T13:42:36Z</time></trkpt><trkpt lat="59.3769797031" lon="34.6620236523"><ele>168.08</ele><time>2026-08-15T13:42:51Z</time></trkpt><trkpt lat="59.3769851513" lon="34.6617749613"><ele>167.34</ele><time>2026-08-15T13:43:13Z</time></trkpt><trkpt lat="59.3769355305" lon="34.6615753882"><ele>167.42</ele><time>2026-08-15T13:43:32Z</time></trkpt><trkpt lat="59.3769227900" lon="34.6613124479"><ele>167.14</ele><time>2026-08-15T13:43:50Z</time></trkpt><trkpt lat="59.3769192696" lon="34.6610726416"><ele>166.80</ele><time>2026-08-15T13:44:08Z</time></trkpt><trkpt lat="59.3769163359" lon="34.6608995553"><ele>166.88</ele><time>2026-08-15T13:44:24Z</time></trkpt><trkpt lat="59.3769583292" lon="34.6607411373"><ele>167.11</ele><time>2026-08-15T13:44:43Z</time></trkpt><trkpt lat="59.3769528810" lon="34.6607187577"><ele>167.03</ele><time>2026-08-15T13:45:04Z</time></trkpt><trkpt lat="59.3769368716" lon="34.6606706455"><ele>167.34</ele><time>2026-08-15T13:45:38Z</time></trkpt><trkpt lat="59.3769486062" lon="34.6606906783"><ele>167.09</ele><time>2026-08-15T13:46:10Z</time></trkpt><trkpt lat="59.3769144081" lon="34.6605643630"><ele>167.91</ele><time>2026-08-15T13:46:27Z</time></trkpt><trkpt lat="59.3769074511" lon="34.6604077891"><ele>167.89</ele><time>2026-08-15T13:46:47Z</time></trkpt><trkpt lat="59.3768994883" lon="34.6602980699"><ele>168.47</ele><time>2026-08-15T13:47:08Z</time></trkpt><trkpt lat="59.3768636975" lon="34.6602506284"><ele>168.29</ele><time>2026-08-15T13:47:30Z</time></trkpt><trkpt lat="59.3768238835" lon="34.6600927133"><ele>168.62</ele><time>2026-08-15T13:47:48Z</time></trkpt><trkpt lat="59.3767930381" lon="34.6599715948"><ele>168.40</ele><time>2026-08-15T13:48:08Z</time></trkpt><trkpt lat="59.3767642882" lon="34.6598094050"><ele>168.80</ele><time>2026-08-15T13:48:26Z</time></trkpt><trkpt lat="59.3768163398" lon="34.6596428566"><ele>168.95</ele><time>2026-08-15T13:48:47Z</time></trkpt><trkpt lat="59.3768434972" lon="34.6594401821"><ele>169.18</ele><time>2026-08-15T13:49:05Z</time></trkpt><trkpt lat="59.3768630270" lon="34.6594009548"><ele>169.35</ele><time>2026-08-15T13:49:14Z</time></trkpt><trkpt lat="59.3768890109" lon="34.6591774933"><ele>169.69</ele><time>2026-08-15T13:49:34Z</time></trkpt><trkpt lat="59.3769144081" lon="34.6589977015"><ele>169.28</ele><time>2026-08-15T13:49:53Z</time></trkpt><trkpt lat="59.3768442515" lon="34.6589049976"><ele>169.50</ele><time>2026-08-15T13:50:13Z</time></trkpt><trkpt lat="59.3767616060" lon="34.6588525269"><ele>169.33</ele><time>2026-08-15T13:50:43Z</time></trkpt><trkpt lat="59.3767667189" lon="34.6587926801"><ele>169.48</ele><time>2026-08-15T13:51:09Z</time></trkpt><trkpt lat="59.3768160883" lon="34.6588804387"><ele>169.93</ele><time>2026-08-15T13:51:39Z</time></trkpt><trkpt lat="59.3768273201" lon="34.6587766707"><ele>169.74</ele><time>2026-08-15T13:52:00Z</time></trkpt><trkpt lat="59.3767832313" lon="34.6586118825"><ele>169.62</ele><time>2026-08-15T13:52:18Z</time></trkpt><trkpt lat="59.3767386395" lon="34.6583766025"><ele>169.81</ele><time>2026-08-15T13:52:37Z</time></trkpt><trkpt lat="59.3767220434" lon="34.6581374668"><ele>169.30</ele><time>2026-08-15T13:52:55Z</time></trkpt><trkpt lat="59.3766888510" lon="34.6578760352"><ele>169.89</ele><time>2026-08-15T13:53:13Z</time></trkpt><trkpt lat="59.3766713329" lon="34.6576629672"><ele>169.83</ele><time>2026-08-15T13:53:30Z</time></trkpt><trkpt lat="59.3766205385" lon="34.6575659886"><ele>169.76</ele><time>2026-08-15T13:53:49Z</time></trkpt><trkpt lat="59.3766462710" lon="34.6574700158"><ele>169.46</ele><time>2026-08-15T13:54:06Z</time></trkpt><trkpt lat="59.3766974844" lon="34.6573234163"><ele>169.99</ele><time>2026-08-15T13:54:25Z</time></trkpt><trkpt lat="59.3766718358" lon="34.6570977755"><ele>169.99</ele><time>2026-08-15T13:54:46Z</time></trkpt><trkpt lat="59.3766367994" lon="34.6568419598"><ele>169.91</ele><time>2026-08-15T13:55:05Z</time></trkpt><trkpt lat="59.3765909504" lon="34.6566910017"><ele>169.94</ele><time>2026-08-15T13:55:24Z</time></trkpt><trkpt lat="59.3765558302" lon="34.6566651855"><ele>169.94</ele><time>2026-08-15T13:55:53Z</time></trkpt><trkpt lat="59.3765557464" lon="34.6567046642"><ele>169.91</ele><time>2026-08-15T13:56:25Z</time></trkpt><trkpt lat="59.3765081372" lon="34.6566926781"><ele>169.89</ele><time>2026-08-15T13:56:52Z</time></trkpt><trkpt lat="59.3765024375" lon="34.6565609984"><ele>169.34</ele><time>2026-08-15T13:57:11Z</time></trkpt><trkpt lat="59.3764513079" lon="34.6564387064"><ele>170.12</ele><time>2026-08-15T13:57:30Z</time></trkpt><trkpt lat="59.3764035311" lon="34.6562537178"><ele>170.54</ele><time>2026-08-15T13:57:48Z</time></trkpt><trkpt lat="59.3763343804" lon="34.6562048513"><ele>170.52</ele><time>2026-08-15T13:58:07Z</time></trkpt><trkpt lat="59.3763212208" lon="34.6560611017"><ele>170.51</ele><time>2026-08-15T13:58:23Z</time></trkpt><trkpt lat="59.3763085641" lon="34.6559269913"><ele>170.76</ele><time>2026-08-15T13:58:43Z</time></trkpt><trkpt lat="59.3762841728" lon="34.6559218783"><ele>170.39</ele><time>2026-08-15T13:58:47Z</time></trkpt><trkpt lat="59.3762231525" lon="34.6558193676"><ele>170.58</ele><time>2026-08-15T13:59:06Z</time></trkpt><trkpt lat="59.3761474639" lon="34.6557083074"><ele>171.60</ele><time>2026-08-15T13:59:26Z</time></trkpt><trkpt lat="59.3760854378" lon="34.6555106621"><ele>171.58</ele><time>2026-08-15T13:59:44Z</time></trkpt><trkpt lat="59.3760803249" lon="34.6552032139"><ele>171.47</ele><time>2026-08-15T14:00:04Z</time></trkpt><trkpt lat="59.3760499824" lon="34.6550418623"><ele>171.83</ele><time>2026-08-15T14:00:14Z</time></trkpt><trkpt lat="59.3760237470" lon="34.6549706999"><ele>171.31</ele><time>2026-08-15T14:00:45Z</time></trkpt><trkpt lat="59.3760290276" lon="34.6549472306"><ele>171.54</ele><time>2026-08-15T14:01:15Z</time></trkpt><trkpt lat="59.3760006130" lon="34.6548552811"><ele>171.70</ele><time>2026-08-15T14:01:44Z</time></trkpt><trkpt lat="59.3759294506" lon="34.6551734582"><ele>172.17</ele><time>2026-08-15T14:02:17Z</time></trkpt><trkpt lat="59.3759485614" lon="34.6550137829"><ele>171.62</ele><time>2026-08-15T14:03:01Z</time></trkpt><trkpt lat="59.3759218231" lon="34.6549820155"><ele>171.67</ele><time>2026-08-15T14:03:04Z</time></trkpt><trkpt lat="59.3759251758" lon="34.6551008709"><ele>171.69</ele><time>2026-08-15T14:03:10Z</time></trkpt><trkpt lat="59.3759135250" lon="34.6550582070"><ele>171.55</ele><time>2026-08-15T14:03:14Z</time></trkpt><trkpt lat="59.3758982699" lon="34.6548494138"><ele>171.87</ele><time>2026-08-15T14:03:30Z</time></trkpt><trkpt lat="59.3758888822" lon="34.6548024751"><ele>172.14</ele><time>2026-08-15T14:03:36Z</time></trkpt><trkpt lat="59.3758012075" lon="34.6546047460"><ele>173.08</ele><time>2026-08-15T14:03:53Z</time></trkpt><trkpt lat="59.3757980224" lon="34.6545575559"><ele>173.45</ele><time>2026-08-15T14:03:59Z</time></trkpt><trkpt lat="59.3756777421" lon="34.6543397103"><ele>172.58</ele><time>2026-08-15T14:04:17Z</time></trkpt><trkpt lat="59.3755860440" lon="34.6542099584"><ele>172.93</ele><time>2026-08-15T14:04:32Z</time></trkpt><trkpt lat="59.3754907418" lon="34.6539842337"><ele>172.58</ele><time>2026-08-15T14:04:53Z</time></trkpt><trkpt lat="59.3755000457" lon="34.6538523864"><ele>172.56</ele><time>2026-08-15T14:05:11Z</time></trkpt><trkpt lat="59.3754372653" lon="34.6536401566"><ele>172.71</ele><time>2026-08-15T14:05:30Z</time></trkpt><trkpt lat="59.3753999658" lon="34.6536053717"><ele>172.82</ele><time>2026-08-15T14:05:58Z</time></trkpt><trkpt lat="59.3753920030" lon="34.6536089759"><ele>172.54</ele><time>2026-08-15T14:06:19Z</time></trkpt><trkpt lat="59.3753256183" lon="34.6535301860"><ele>172.51</ele><time>2026-08-15T14:06:45Z</time></trkpt><trkpt lat="59.3753205054" lon="34.6535293479"><ele>172.50</ele><time>2026-08-15T14:06:46Z</time></trkpt><trkpt lat="59.3753064238" lon="34.6534724347"><ele>172.89</ele><time>2026-08-15T14:06:54Z</time></trkpt><trkpt lat="59.3752709683" lon="34.6535683237"><ele>172.80</ele><time>2026-08-15T14:07:23Z</time></trkpt><trkpt lat="59.3753179070" lon="34.6535117459"><ele>172.73</ele><time>2026-08-15T14:07:57Z</time></trkpt><trkpt lat="59.3753827829" lon="34.6534977481"><ele>172.56</ele><time>2026-08-15T14:08:25Z</time></trkpt><trkpt lat="59.3754366785" lon="34.6534867678"><ele>172.64</ele><time>2026-08-15T14:08:51Z</time></trkpt><trkpt lat="59.3754139636" lon="34.6534501389"><ele>172.62</ele><time>2026-08-15T14:09:13Z</time></trkpt><trkpt lat="59.3754469883" lon="34.6532882005"><ele>172.23</ele><time>2026-08-15T14:09:34Z</time></trkpt><trkpt lat="59.3754318170" lon="34.6531185508"><ele>172.21</ele><time>2026-08-15T14:09:53Z</time></trkpt><trkpt lat="59.3754032347" lon="34.6529578697"><ele>172.24</ele><time>2026-08-15T14:10:13Z</time></trkpt><trkpt lat="59.3754011393" lon="34.6529388428"><ele>172.28</ele><time>2026-08-15T14:10:33Z</time></trkpt><trkpt lat="59.3754087668" lon="34.6529111825"><ele>172.39</ele><time>2026-08-15T14:10:36Z</time></trkpt><trkpt lat="59.3754179869" lon="34.6529014595"><ele>173.02</ele><time>2026-08-15T14:10:55Z</time></trkpt><trkpt lat="59.3754267879" lon="34.6527700312"><ele>173.85</ele><time>2026-08-15T14:11:13Z</time></trkpt><trkpt lat="59.3753329106" lon="34.6526548639"><ele>173.78</ele><time>2026-08-15T14:11:33Z</time></trkpt><trkpt lat="59.3753692880" lon="34.6525168978"><ele>174.72</ele><time>2026-08-15T14:11:51Z</time></trkpt><trkpt lat="59.3754346669" lon="34.6522674523"><ele>173.98</ele><time>2026-08-15T14:12:08Z</time></trkpt><trkpt lat="59.3754427135" lon="34.6522460785"><ele>174.03</ele><time>2026-08-15T14:12:09Z</time></trkpt><trkpt lat="59.3755154684" lon="34.6520811226"><ele>173.64</ele><time>2026-08-15T14:12:21Z</time></trkpt><trkpt lat="59.3756163865" lon="34.6519170888"><ele>172.88</ele><time>2026-08-15T14:12:36Z</time></trkpt><trkpt lat="59.3756705336" lon="34.6518829744"><ele>172.53</ele><time>2026-08-15T14:12:56Z</time></trkpt><trkpt lat="59.3757070787" lon="34.6518158354"><ele>172.42</ele><time>2026-08-15T14:13:14Z</time></trkpt><trkpt lat="59.3757403549" lon="34.6516959742"><ele>172.67</ele><time>2026-08-15T14:13:30Z</time></trkpt><trkpt lat="59.3757871259" lon="34.6517101396"><ele>172.97</ele><time>2026-08-15T14:13:52Z</time></trkpt><trkpt lat="59.3758301251" lon="34.6516359597"><ele>173.14</ele><time>2026-08-15T14:14:06Z</time></trkpt><trkpt lat="59.3758440390" lon="34.6515487041"><ele>172.78</ele><time>2026-08-15T14:14:30Z</time></trkpt><trkpt lat="59.3758499064" lon="34.6514533181"><ele>172.78</ele><time>2026-08-15T14:14:49Z</time></trkpt><trkpt lat="59.3758640718" lon="34.6514779609"><ele>172.96</ele><time>2026-08-15T14:15:04Z</time></trkpt><trkpt lat="59.3758654129" lon="34.6514840797"><ele>173.22</ele><time>2026-08-15T14:15:30Z</time></trkpt><trkpt lat="59.3758893013" lon="34.6514901984"><ele>173.11</ele><time>2026-08-15T14:15:54Z</time></trkpt><trkpt lat="59.3758878764" lon="34.6514821518"><ele>173.54</ele><time>2026-08-15T14:16:20Z</time></trkpt><trkpt lat="59.3758603837" lon="34.6514309384"><ele>173.47</ele><time>2026-08-15T14:16:41Z</time></trkpt><trkpt lat="59.3758576177" lon="34.6514058765"><ele>173.39</ele><time>2026-08-15T14:17:00Z</time></trkpt><trkpt lat="59.3758575339" lon="34.6514032781"><ele>173.35</ele><time>2026-08-15T14:17:22Z</time></trkpt><trkpt lat="59.3758514989" lon="34.6514000092"><ele>173.47</ele><time>2026-08-15T14:17:44Z</time></trkpt><trkpt lat="59.3758436199" lon="34.6513989195"><ele>173.54</ele><time>2026-08-15T14:18:14Z</time></trkpt><trkpt lat="59.3758532591" lon="34.6514117438"><ele>173.57</ele><time>2026-08-15T14:18:36Z</time></trkpt><trkpt lat="59.3758411892" lon="34.6514049545"><ele>173.50</ele><time>2026-08-15T14:19:07Z</time></trkpt><trkpt lat="59.3758343160" lon="34.6514135040"><ele>173.05</ele><time>2026-08-15T14:19:38Z</time></trkpt><trkpt lat="59.3758262694" lon="34.6514005121"><ele>172.76</ele><time>2026-08-15T14:20:11Z</time></trkpt><trkpt lat="59.3758200668" lon="34.6514125820"><ele>172.68</ele><time>2026-08-15T14:20:36Z</time></trkpt><trkpt lat="59.3758091703" lon="34.6515363827"><ele>172.89</ele><time>2026-08-15T14:20:57Z</time></trkpt><trkpt lat="59.3757974356" lon="34.6515736822"><ele>172.71</ele><time>2026-08-15T14:21:20Z</time></trkpt><trkpt lat="59.3757450487" lon="34.6517949644"><ele>172.34</ele><time>2026-08-15T14:21:40Z</time></trkpt><trkpt lat="59.3757299613" lon="34.6518424060"><ele>172.31</ele><time>2026-08-15T14:21:59Z</time></trkpt><trkpt lat="59.3756909855" lon="34.6518189367"><ele>172.32</ele><time>2026-08-15T14:22:28Z</time></trkpt><trkpt lat="59.3756841961" lon="34.6517863311"><ele>172.24</ele><time>2026-08-15T14:22:51Z</time></trkpt><trkpt lat="59.3756793346" lon="34.6517891809"><ele>172.78</ele><time>2026-08-15T14:22:55Z</time></trkpt><trkpt lat="59.3756774906" lon="34.6518061124"><ele>171.90</ele><time>2026-08-15T14:23:21Z</time></trkpt><trkpt lat="59.3756562006" lon="34.6518664621"><ele>172.22</ele><time>2026-08-15T14:23:44Z</time></trkpt><trkpt lat="59.3756594695" lon="34.6518728323"><ele>172.09</ele><time>2026-08-15T14:24:12Z</time></trkpt><trkpt lat="59.3756417837" lon="34.6518894285"><ele>172.09</ele><time>2026-08-15T14:24:45Z</time></trkpt><trkpt lat="59.3755862117" lon="34.6519345231"><ele>171.88</ele><time>2026-08-15T14:25:00Z</time></trkpt><trkpt lat="59.3755267002" lon="34.6520358603"><ele>172.90</ele><time>2026-08-15T14:25:24Z</time></trkpt><trkpt lat="59.3754852097" lon="34.6521066036"><ele>173.48</ele><time>2026-08-15T14:25:33Z</time></trkpt><trkpt lat="59.3754329067" lon="34.6523638442"><ele>174.14</ele><time>2026-08-15T14:25:51Z</time></trkpt><trkpt lat="59.3753192481" lon="34.6526436321"><ele>173.39</ele><time>2026-08-15T14:26:13Z</time></trkpt><trkpt lat="59.3753029034" lon="34.6526854578"><ele>173.37</ele><time>2026-08-15T14:26:16Z</time></trkpt><trkpt lat="59.3752674479" lon="34.6527559496"><ele>173.32</ele><time>2026-08-15T14:26:25Z</time></trkpt><trkpt lat="59.3752412964" lon="34.6529154573"><ele>172.57</ele><time>2026-08-15T14:26:39Z</time></trkpt><trkpt lat="59.3751746602" lon="34.6532452013"><ele>172.61</ele><time>2026-08-15T14:27:01Z</time></trkpt><trkpt lat="59.3751638476" lon="34.6532455366"><ele>172.36</ele><time>2026-08-15T14:27:27Z</time></trkpt><trkpt lat="59.3752066791" lon="34.6531965025"><ele>172.84</ele><time>2026-08-15T14:27:55Z</time></trkpt><trkpt lat="59.3751542084" lon="34.6532520745"><ele>173.06</ele><time>2026-08-15T14:28:23Z</time></trkpt><trkpt lat="59.3750366941" lon="34.6529685147"><ele>173.69</ele><time>2026-08-15T14:28:46Z</time></trkpt><trkpt lat="59.3750196788" lon="34.6527529322"><ele>174.13</ele><time>2026-08-15T14:29:05Z</time></trkpt><trkpt lat="59.3749386258" lon="34.6525101922"><ele>174.42</ele><time>2026-08-15T14:29:24Z</time></trkpt><trkpt lat="59.3748987280" lon="34.6523940191"><ele>174.29</ele><time>2026-08-15T14:29:47Z</time></trkpt><trkpt lat="59.3749016616" lon="34.6523884032"><ele>174.16</ele><time>2026-08-15T14:29:49Z</time></trkpt><trkpt lat="59.3749045953" lon="34.6522464976"><ele>173.83</ele><time>2026-08-15T14:30:08Z</time></trkpt><trkpt lat="59.3747829739" lon="34.6521589067"><ele>173.65</ele><time>2026-08-15T14:30:29Z</time></trkpt><trkpt lat="59.3746621069" lon="34.6520494390"><ele>173.65</ele><time>2026-08-15T14:30:47Z</time></trkpt><trkpt lat="59.3745182734" lon="34.6519833896"><ele>173.47</ele><time>2026-08-15T14:31:07Z</time></trkpt><trkpt lat="59.3744177744" lon="34.6517979819"><ele>172.94</ele><time>2026-08-15T14:31:25Z</time></trkpt><trkpt lat="59.3743928801" lon="34.6515467763"><ele>172.29</ele><time>2026-08-15T14:31:44Z</time></trkpt><trkpt lat="59.3744041119" lon="34.6512793936"><ele>173.04</ele><time>2026-08-15T14:32:05Z</time></trkpt><trkpt lat="59.3743438460" lon="34.6511297766"><ele>172.47</ele><time>2026-08-15T14:32:27Z</time></trkpt><trkpt lat="59.3742997572" lon="34.6511349734"><ele>172.24</ele><time>2026-08-15T14:32:57Z</time></trkpt><trkpt lat="59.3742906209" lon="34.6510273498"><ele>171.82</ele><time>2026-08-15T14:33:29Z</time></trkpt><trkpt lat="59.3742356356" lon="34.6509109251"><ele>171.43</ele><time>2026-08-15T14:33:48Z</time></trkpt><trkpt lat="59.3741935585" lon="34.6508129407"><ele>171.05</ele><time>2026-08-15T14:34:07Z</time></trkpt><trkpt lat="59.3741569296" lon="34.6506541874"><ele>171.28</ele><time>2026-08-15T14:34:27Z</time></trkpt><trkpt lat="59.3741045427" lon="34.6506931633"><ele>171.77</ele><time>2026-08-15T14:34:46Z</time></trkpt><trkpt lat="59.3740660697" lon="34.6507354919"><ele>171.73</ele><time>2026-08-15T14:34:54Z</time></trkpt><trkpt lat="59.3739307020" lon="34.6507671755"><ele>171.58</ele><time>2026-08-15T14:35:14Z</time></trkpt><trkpt lat="59.3737999443" lon="34.6506318077"><ele>172.08</ele><time>2026-08-15T14:35:36Z</time></trkpt><trkpt lat="59.3737165444" lon="34.6504277922"><ele>172.03</ele><time>2026-08-15T14:35:56Z</time></trkpt><trkpt lat="59.3736520037" lon="34.6504239365"><ele>170.86</ele><time>2026-08-15T14:36:18Z</time></trkpt><trkpt lat="59.3736386765" lon="34.6504028141"><ele>170.80</ele><time>2026-08-15T14:36:25Z</time></trkpt><trkpt lat="59.3735826015" lon="34.6503245272"><ele>170.30</ele><time>2026-08-15T14:36:48Z</time></trkpt><trkpt lat="59.3735610601" lon="34.6502977889"><ele>170.62</ele><time>2026-08-15T14:37:07Z</time></trkpt><trkpt lat="59.3735273648" lon="34.6502972860"><ele>170.62</ele><time>2026-08-15T14:37:10Z</time></trkpt><trkpt lat="59.3734825216" lon="34.6502764989"><ele>170.93</ele><time>2026-08-15T14:37:21Z</time></trkpt><trkpt lat="59.3734661769" lon="34.6501910035"><ele>170.58</ele><time>2026-08-15T14:37:49Z</time></trkpt><trkpt lat="59.3734120298" lon="34.6501780953"><ele>171.03</ele><time>2026-08-15T14:38:16Z</time></trkpt><trkpt lat="59.3733041547" lon="34.6501497645"><ele>171.12</ele><time>2026-08-15T14:38:34Z</time></trkpt><trkpt lat="59.3731920887" lon="34.6501749102"><ele>171.53</ele><time>2026-08-15T14:38:49Z</time></trkpt><trkpt lat="59.3730555475" lon="34.6501771733"><ele>171.28</ele><time>2026-08-15T14:39:07Z</time></trkpt><trkpt lat="59.3729040865" lon="34.6500958689"><ele>170.88</ele><time>2026-08-15T14:39:24Z</time></trkpt><trkpt lat="59.3727310840" lon="34.6499116346"><ele>170.38</ele><time>2026-08-15T14:39:47Z</time></trkpt><trkpt lat="59.3726800382" lon="34.6497623529"><ele>169.86</ele><time>2026-08-15T14:40:08Z</time></trkpt><trkpt lat="59.3726667110" lon="34.6496944595"><ele>170.20</ele><time>2026-08-15T14:40:23Z</time></trkpt><trkpt lat="59.3726002425" lon="34.6495820582"><ele>169.70</ele><time>2026-08-15T14:40:53Z</time></trkpt><trkpt lat="59.3724911101" lon="34.6496450901"><ele>169.83</ele><time>2026-08-15T14:41:19Z</time></trkpt><trkpt lat="59.3723533954" lon="34.6496624406"><ele>170.16</ele><time>2026-08-15T14:41:39Z</time></trkpt><trkpt lat="59.3722199555" lon="34.6496568248"><ele>169.61</ele><time>2026-08-15T14:41:56Z</time></trkpt><trkpt lat="59.3721836619" lon="34.6496605128"><ele>169.08</ele><time>2026-08-15T14:42:18Z</time></trkpt><trkpt lat="59.3720954843" lon="34.6496688109"><ele>169.81</ele><time>2026-08-15T14:42:41Z</time></trkpt><trkpt lat="59.3719800655" lon="34.6495587565"><ele>170.11</ele><time>2026-08-15T14:43:01Z</time></trkpt><trkpt lat="59.3718457036" lon="34.6494209580"><ele>169.31</ele><time>2026-08-15T14:43:20Z</time></trkpt><trkpt lat="59.3718322087" lon="34.6493311878"><ele>169.23</ele><time>2026-08-15T14:43:38Z</time></trkpt><trkpt lat="59.3717913050" lon="34.6492235642"><ele>169.15</ele><time>2026-08-15T14:44:19Z</time></trkpt><trkpt lat="59.3717426900" lon="34.6492560022"><ele>168.66</ele><time>2026-08-15T14:44:37Z</time></trkpt><trkpt lat="59.3716200627" lon="34.6493098140"><ele>168.70</ele><time>2026-08-15T14:44:57Z</time></trkpt><trkpt lat="59.3715514988" lon="34.6492494643"><ele>168.68</ele><time>2026-08-15T14:45:11Z</time></trkpt><trkpt lat="59.3714790791" lon="34.6492297668"><ele>168.10</ele><time>2026-08-15T14:45:29Z</time></trkpt><trkpt lat="59.3713732995" lon="34.6492589358"><ele>168.28</ele><time>2026-08-15T14:45:48Z</time></trkpt><trkpt lat="59.3713255227" lon="34.6492270846"><ele>168.30</ele><time>2026-08-15T14:46:05Z</time></trkpt><trkpt lat="59.3712928332" lon="34.6491082292"><ele>168.13</ele><time>2026-08-15T14:46:25Z</time></trkpt><trkpt lat="59.3712448888" lon="34.6490329597"><ele>167.77</ele><time>2026-08-15T14:46:45Z</time></trkpt><trkpt lat="59.3712336570" lon="34.6489929780"><ele>168.16</ele><time>2026-08-15T14:47:11Z</time></trkpt><trkpt lat="59.3711266201" lon="34.6489368193"><ele>167.88</ele><time>2026-08-15T14:47:31Z</time></trkpt><trkpt lat="59.3710096925" lon="34.6488385834"><ele>167.48</ele><time>2026-08-15T14:47:49Z</time></trkpt><trkpt lat="59.3709050026" lon="34.6488497313"><ele>167.64</ele><time>2026-08-15T14:48:06Z</time></trkpt><trkpt lat="59.3708947767" lon="34.6488278545"><ele>167.86</ele><time>2026-08-15T14:48:33Z</time></trkpt><trkpt lat="59.3708859757" lon="34.6488285251"><ele>167.14</ele><time>2026-08-15T14:49:02Z</time></trkpt><trkpt lat="59.3708198424" lon="34.6487789880"><ele>167.23</ele><time>2026-08-15T14:49:27Z</time></trkpt><trkpt lat="59.3706864025" lon="34.6487396769"><ele>167.25</ele><time>2026-08-15T14:49:45Z</time></trkpt><trkpt lat="59.3705503643" lon="34.6486164629"><ele>166.95</ele><time>2026-08-15T14:50:03Z</time></trkpt><trkpt lat="59.3704290781" lon="34.6485139523"><ele>167.04</ele><time>2026-08-15T14:50:21Z</time></trkpt><trkpt lat="59.3703362066" lon="34.6484211646"><ele>167.21</ele><time>2026-08-15T14:50:38Z</time></trkpt><trkpt lat="59.3702227157" lon="34.6483044885"><ele>167.42</ele><time>2026-08-15T14:50:57Z</time></trkpt><trkpt lat="59.3700867612" lon="34.6482259501"><ele>167.29</ele><time>2026-08-15T14:51:13Z</time></trkpt><trkpt lat="59.3700658064" lon="34.6482271235"><ele>167.08</ele><time>2026-08-15T14:51:30Z</time></trkpt><trkpt lat="59.3700556643" lon="34.6482083481"><ele>166.80</ele><time>2026-08-15T14:51:56Z</time></trkpt><trkpt lat="59.3700182810" lon="34.6482268721"><ele>167.06</ele><time>2026-08-15T14:52:31Z</time></trkpt><trkpt lat="59.3699269183" lon="34.6481870580"><ele>166.86</ele><time>2026-08-15T14:52:47Z</time></trkpt><trkpt lat="59.3697544187" lon="34.6481209248"><ele>166.70</ele><time>2026-08-15T14:53:07Z</time></trkpt><trkpt lat="59.3697374035" lon="34.6481191646"><ele>166.66</ele><time>2026-08-15T14:53:09Z</time></trkpt><trkpt lat="59.3696153630" lon="34.6481086873"><ele>165.72</ele><time>2026-08-15T14:53:25Z</time></trkpt><trkpt lat="59.3694944121" lon="34.6480197553"><ele>166.41</ele><time>2026-08-15T14:53:42Z</time></trkpt><trkpt lat="59.3693406042" lon="34.6479906701"><ele>166.39</ele><time>2026-08-15T14:54:01Z</time></trkpt><trkpt lat="59.3692354951" lon="34.6478791907"><ele>166.16</ele><time>2026-08-15T14:54:16Z</time></trkpt><trkpt lat="59.3690846208" lon="34.6478187572"><ele>166.24</ele><time>2026-08-15T14:54:36Z</time></trkpt><trkpt lat="59.3689972814" lon="34.6477846429"><ele>166.03</ele><time>2026-08-15T14:54:54Z</time></trkpt><trkpt lat="59.3689918332" lon="34.6477834694"><ele>166.51</ele><time>2026-08-15T14:55:19Z</time></trkpt><trkpt lat="59.3689904083" lon="34.6477565635"><ele>165.92</ele><time>2026-08-15T14:55:48Z</time></trkpt><trkpt lat="59.3689609040" lon="34.6476738341"><ele>166.27</ele><time>2026-08-15T14:56:12Z</time></trkpt><trkpt lat="59.3688490056" lon="34.6474870015"><ele>166.40</ele><time>2026-08-15T14:56:29Z</time></trkpt><trkpt lat="59.3687213492" lon="34.6473906934"><ele>166.62</ele><time>2026-08-15T14:56:48Z</time></trkpt><trkpt lat="59.3685477600" lon="34.6473447606"><ele>166.46</ele><time>2026-08-15T14:57:11Z</time></trkpt><trkpt lat="59.3683856539" lon="34.6472860873"><ele>166.60</ele><time>2026-08-15T14:57:30Z</time></trkpt><trkpt lat="59.3682372104" lon="34.6472382266"><ele>166.01</ele><time>2026-08-15T14:57:45Z</time></trkpt><trkpt lat="59.3681346998" lon="34.6471391525"><ele>166.30</ele><time>2026-08-15T14:58:01Z</time></trkpt><trkpt lat="59.3681258149" lon="34.6471105702"><ele>165.91</ele><time>2026-08-15T14:58:30Z</time></trkpt><trkpt lat="59.3681187741" lon="34.6470891964"><ele>166.33</ele><time>2026-08-15T14:58:54Z</time></trkpt><trkpt lat="59.3680504616" lon="34.6470640507"><ele>165.78</ele><time>2026-08-15T14:59:11Z</time></trkpt><trkpt lat="59.3679363001" lon="34.6470177826"><ele>165.55</ele><time>2026-08-15T14:59:26Z</time></trkpt><trkpt lat="59.3678088952" lon="34.6469589416"><ele>165.17</ele><time>2026-08-15T14:59:42Z</time></trkpt><trkpt lat="59.3676726054" lon="34.6469609533"><ele>165.33</ele><time>2026-08-15T14:59:58Z</time></trkpt><trkpt lat="59.3675492238" lon="34.6468674950"><ele>164.43</ele><time>2026-08-15T15:00:18Z</time></trkpt><trkpt lat="59.3674281891" lon="34.6468406729"><ele>165.67</ele><time>2026-08-15T15:00:38Z</time></trkpt><trkpt lat="59.3673424423" lon="34.6468598675"><ele>166.35</ele><time>2026-08-15T15:00:58Z</time></trkpt><trkpt lat="59.3671986088" lon="34.6466792375"><ele>166.60</ele><time>2026-08-15T15:01:18Z</time></trkpt><trkpt lat="59.3671729602" lon="34.6466345619"><ele>166.09</ele><time>2026-08-15T15:01:50Z</time></trkpt><trkpt lat="59.3671334814" lon="34.6465743799"><ele>165.94</ele><time>2026-08-15T15:02:24Z</time></trkpt><trkpt lat="59.3670303002" lon="34.6465540119"><ele>165.24</ele><time>2026-08-15T15:02:45Z</time></trkpt><trkpt lat="59.3668361753" lon="34.6465424448"><ele>164.86</ele><time>2026-08-15T15:03:05Z</time></trkpt><trkpt lat="59.3666607421" lon="34.6463691909"><ele>164.83</ele><time>2026-08-15T15:03:23Z</time></trkpt><trkpt lat="59.3665817007" lon="34.6463056561"><ele>164.74</ele><time>2026-08-15T15:03:37Z</time></trkpt><trkpt lat="59.3664449919" lon="34.6461792570"><ele>164.62</ele><time>2026-08-15T15:03:58Z</time></trkpt><trkpt lat="59.3663372006" lon="34.6460247785"><ele>164.54</ele><time>2026-08-15T15:04:16Z</time></trkpt><trkpt lat="59.3662464246" lon="34.6459274646"><ele>164.49</ele><time>2026-08-15T15:04:36Z</time></trkpt><trkpt lat="59.3662277330" lon="34.6459044982"><ele>164.34</ele><time>2026-08-15T15:05:12Z</time></trkpt><trkpt lat="59.3661628570" lon="34.6458601579"><ele>164.27</ele><time>2026-08-15T15:05:46Z</time></trkpt><trkpt lat="59.3660072889" lon="34.6458309051"><ele>162.98</ele><time>2026-08-15T15:06:04Z</time></trkpt><trkpt lat="59.3658748548" lon="34.6458050050"><ele>162.41</ele><time>2026-08-15T15:06:24Z</time></trkpt><trkpt lat="59.3658519723" lon="34.6457938571"><ele>162.21</ele><time>2026-08-15T15:06:29Z</time></trkpt><trkpt lat="59.3656902853" lon="34.6456832998"><ele>162.61</ele><time>2026-08-15T15:06:50Z</time></trkpt><trkpt lat="59.3656817358" lon="34.6456676256"><ele>162.13</ele><time>2026-08-15T15:06:53Z</time></trkpt><trkpt lat="59.3655780517" lon="34.6455486864"><ele>162.76</ele><time>2026-08-15T15:07:17Z</time></trkpt><trkpt lat="59.3654087372" lon="34.6454341896"><ele>161.50</ele><time>2026-08-15T15:07:36Z</time></trkpt><trkpt lat="59.3652589526" lon="34.6453859936"><ele>161.32</ele><time>2026-08-15T15:07:53Z</time></trkpt><trkpt lat="59.3651981838" lon="34.6453301702"><ele>161.80</ele><time>2026-08-15T15:08:11Z</time></trkpt><trkpt lat="59.3651769776" lon="34.6453262307"><ele>161.59</ele><time>2026-08-15T15:08:27Z</time></trkpt><trkpt lat="59.3651488144" lon="34.6453855745"><ele>161.12</ele><time>2026-08-15T15:08:57Z</time></trkpt><trkpt lat="59.3651416898" lon="34.6454104688"><ele>161.20</ele><time>2026-08-15T15:09:22Z</time></trkpt><trkpt lat="59.3652140256" lon="34.6455938648"><ele>161.08</ele><time>2026-08-15T15:09:39Z</time></trkpt><trkpt lat="59.3652647361" lon="34.6458120458"><ele>161.63</ele><time>2026-08-15T15:09:58Z</time></trkpt><trkpt lat="59.3653182127" lon="34.6461632475"><ele>161.37</ele><time>2026-08-15T15:10:19Z</time></trkpt><trkpt lat="59.3653787300" lon="34.6464528423"><ele>161.28</ele><time>2026-08-15T15:10:39Z</time></trkpt><trkpt lat="59.3654286861" lon="34.6466115117"><ele>161.20</ele><time>2026-08-15T15:10:55Z</time></trkpt><trkpt lat="59.3654424325" lon="34.6468164492"><ele>161.41</ele><time>2026-08-15T15:11:13Z</time></trkpt><trkpt lat="59.3654177058" lon="34.6469617914"><ele>160.99</ele><time>2026-08-15T15:11:23Z</time></trkpt><trkpt lat="59.3653115071" lon="34.6470850054"><ele>161.15</ele><time>2026-08-15T15:11:46Z</time></trkpt><trkpt lat="59.3652887922" lon="34.6471092291"><ele>160.71</ele><time>2026-08-15T15:11:49Z</time></trkpt><trkpt lat="59.3652685918" lon="34.6471416671"><ele>160.94</ele><time>2026-08-15T15:11:56Z</time></trkpt><trkpt lat="59.3652307894" lon="34.6472023521"><ele>160.60</ele><time>2026-08-15T15:12:25Z</time></trkpt><trkpt lat="59.3652472179" lon="34.6472570021"><ele>160.54</ele><time>2026-08-15T15:12:51Z</time></trkpt><trkpt lat="59.3652881216" lon="34.6474557370"><ele>161.03</ele><time>2026-08-15T15:13:08Z</time></trkpt><trkpt lat="59.3653574400" lon="34.6476967167"><ele>161.25</ele><time>2026-08-15T15:13:26Z</time></trkpt><trkpt lat="59.3654408399" lon="34.6479941066"><ele>160.90</ele><time>2026-08-15T15:13:48Z</time></trkpt><trkpt lat="59.3654525746" lon="34.6481022332"><ele>160.87</ele><time>2026-08-15T15:13:59Z</time></trkpt><trkpt lat="59.3654579390" lon="34.6482379362"><ele>160.75</ele><time>2026-08-15T15:14:10Z</time></trkpt><trkpt lat="59.3654576875" lon="34.6482709609"><ele>160.87</ele><time>2026-08-15T15:14:12Z</time></trkpt><trkpt lat="59.3654802348" lon="34.6485385112"><ele>160.77</ele><time>2026-08-15T15:14:35Z</time></trkpt><trkpt lat="59.3655007705" lon="34.6486165468"><ele>160.41</ele><time>2026-08-15T15:14:43Z</time></trkpt><trkpt lat="59.3655077275" lon="34.6487124357"><ele>160.25</ele><time>2026-08-15T15:14:57Z</time></trkpt><trkpt lat="59.3654845096" lon="34.6488479711"><ele>159.59</ele><time>2026-08-15T15:15:19Z</time></trkpt><trkpt lat="59.3654620461" lon="34.6488804091"><ele>159.86</ele><time>2026-08-15T15:15:37Z</time></trkpt><trkpt lat="59.3654135149" lon="34.6491063014"><ele>159.34</ele><time>2026-08-15T15:15:55Z</time></trkpt><trkpt lat="59.3653558474" lon="34.6492781304"><ele>159.55</ele><time>2026-08-15T15:16:22Z</time></trkpt><trkpt lat="59.3654496409" lon="34.6493300982"><ele>159.28</ele><time>2026-08-15T15:17:06Z</time></trkpt><trkpt lat="59.3655068893" lon="34.6493447665"><ele>159.36</ele><time>2026-08-15T15:17:25Z</time></trkpt><trkpt lat="59.3655669875" lon="34.6494215447"><ele>159.42</ele><time>2026-08-15T15:17:42Z</time></trkpt><trkpt lat="59.3656674866" lon="34.6495362930"><ele>158.99</ele><time>2026-08-15T15:18:00Z</time></trkpt><trkpt lat="59.3656865973" lon="34.6495704073"><ele>159.46</ele><time>2026-08-15T15:18:06Z</time></trkpt><trkpt lat="59.3658603542" lon="34.6496231295"><ele>159.70</ele><time>2026-08-15T15:18:29Z</time></trkpt><trkpt lat="59.3659690674" lon="34.6498011611"><ele>159.81</ele><time>2026-08-15T15:18:48Z</time></trkpt><trkpt lat="59.3660235498" lon="34.6499547176"><ele>159.63</ele><time>2026-08-15T15:19:04Z</time></trkpt><trkpt lat="59.3660395592" lon="34.6500191744"><ele>159.73</ele><time>2026-08-15T15:19:09Z</time></trkpt><trkpt lat="59.3661182653" lon="34.6501723956"><ele>158.88</ele><time>2026-08-15T15:19:30Z</time></trkpt><trkpt lat="59.3661742564" lon="34.6502692066"><ele>158.59</ele><time>2026-08-15T15:19:44Z</time></trkpt><trkpt lat="59.3662434909" lon="34.6503562108"><ele>158.99</ele><time>2026-08-15T15:20:14Z</time></trkpt><trkpt lat="59.3662589137" lon="34.6503596473"><ele>158.99</ele><time>2026-08-15T15:20:16Z</time></trkpt><trkpt lat="59.3662429880" lon="34.6503957734"><ele>159.32</ele><time>2026-08-15T15:20:43Z</time></trkpt><trkpt lat="59.3662974704" lon="34.6504519321"><ele>158.87</ele><time>2026-08-15T15:21:12Z</time></trkpt><trkpt lat="59.3663720693" lon="34.6506319754"><ele>159.02</ele><time>2026-08-15T15:21:32Z</time></trkpt><trkpt lat="59.3664161582" lon="34.6507470589"><ele>159.04</ele><time>2026-08-15T15:21:48Z</time></trkpt><trkpt lat="59.3664547149" lon="34.6508208197"><ele>159.11</ele><time>2026-08-15T15:21:56Z</time></trkpt><trkpt lat="59.3665222730" lon="34.6508152876"><ele>158.59</ele><time>2026-08-15T15:22:12Z</time></trkpt><trkpt lat="59.3666270468" lon="34.6506643295"><ele>159.08</ele><time>2026-08-15T15:22:33Z</time></trkpt><trkpt lat="59.3666972872" lon="34.6507029701"><ele>159.14</ele><time>2026-08-15T15:22:53Z</time></trkpt><trkpt lat="59.3668408692" lon="34.6508424450"><ele>159.12</ele><time>2026-08-15T15:23:13Z</time></trkpt><trkpt lat="59.3669373449" lon="34.6509997733"><ele>158.89</ele><time>2026-08-15T15:23:30Z</time></trkpt><trkpt lat="59.3669673521" lon="34.6510312054"><ele>159.10</ele><time>2026-08-15T15:23:34Z</time></trkpt><trkpt lat="59.3670577928" lon="34.6511586942"><ele>158.67</ele><time>2026-08-15T15:23:54Z</time></trkpt><trkpt lat="59.3670777418" lon="34.6513140108"><ele>158.89</ele><time>2026-08-15T15:24:18Z</time></trkpt><trkpt lat="59.3670914881" lon="34.6513090655"><ele>158.46</ele><time>2026-08-15T15:24:47Z</time></trkpt><trkpt lat="59.3671201542" lon="34.6512652282"><ele>158.91</ele><time>2026-08-15T15:25:16Z</time></trkpt><trkpt lat="59.3671856169" lon="34.6514533181"><ele>159.23</ele><time>2026-08-15T15:25:38Z</time></trkpt><trkpt lat="59.3672162946" lon="34.6515063755"><ele>159.40</ele><time>2026-08-15T15:25:48Z</time></trkpt><trkpt lat="59.3672357406" lon="34.6515111532"><ele>159.49</ele><time>2026-08-15T15:25:50Z</time></trkpt><trkpt lat="59.3673217390" lon="34.6517813858"><ele>160.01</ele><time>2026-08-15T15:26:13Z</time></trkpt><trkpt lat="59.3673821725" lon="34.6519316733"><ele>159.89</ele><time>2026-08-15T15:26:27Z</time></trkpt><trkpt lat="59.3673910573" lon="34.6519831382"><ele>159.74</ele><time>2026-08-15T15:26:35Z</time></trkpt><trkpt lat="59.3674867786" lon="34.6522061806"><ele>159.24</ele><time>2026-08-15T15:26:55Z</time></trkpt><trkpt lat="59.3676147703" lon="34.6522588190"><ele>159.05</ele><time>2026-08-15T15:27:13Z</time></trkpt><trkpt lat="59.3676658161" lon="34.6523914207"><ele>158.85</ele><time>2026-08-15T15:27:32Z</time></trkpt><trkpt lat="59.3677617889" lon="34.6524602361"><ele>158.66</ele><time>2026-08-15T15:27:52Z</time></trkpt><trkpt lat="59.3678322807" lon="34.6525464859"><ele>158.60</ele><time>2026-08-15T15:28:25Z</time></trkpt><trkpt lat="59.3678269163" lon="34.6525661834"><ele>158.42</ele><time>2026-08-15T15:28:33Z</time></trkpt><trkpt lat="59.3678825721" lon="34.6525872219"><ele>158.88</ele><time>2026-08-15T15:29:00Z</time></trkpt><trkpt lat="59.3679519743" lon="34.6526200790"><ele>159.15</ele><time>2026-08-15T15:29:21Z</time></trkpt><trkpt lat="59.3680036068" lon="34.6526658442"><ele>159.47</ele><time>2026-08-15T15:29:33Z</time></trkpt><trkpt lat="59.3681127392" lon="34.6527925786"><ele>159.93</ele><time>2026-08-15T15:29:55Z</time></trkpt><trkpt lat="59.3681419920" lon="34.6527877171"><ele>160.30</ele><time>2026-08-15T15:29:59Z</time></trkpt><trkpt lat="59.3681585044" lon="34.6527887229"><ele>160.50</ele><time>2026-08-15T15:30:01Z</time></trkpt><trkpt lat="59.3682705704" lon="34.6528551076"><ele>162.03</ele><time>2026-08-15T15:30:21Z</time></trkpt><trkpt lat="59.3683294952" lon="34.6529138647"><ele>162.14</ele><time>2026-08-15T15:30:34Z</time></trkpt><trkpt lat="59.3684517872" lon="34.6531456243"><ele>161.00</ele><time>2026-08-15T15:30:57Z</time></trkpt><trkpt lat="59.3685119692" lon="34.6532579418"><ele>161.26</ele><time>2026-08-15T15:31:17Z</time></trkpt><trkpt lat="59.3685629312" lon="34.6530120168"><ele>160.49</ele><time>2026-08-15T15:31:36Z</time></trkpt><trkpt lat="59.3686404638" lon="34.6530505735"><ele>160.25</ele><time>2026-08-15T15:31:53Z</time></trkpt><trkpt lat="59.3686120491" lon="34.6531182993"><ele>160.57</ele><time>2026-08-15T15:32:15Z</time></trkpt><trkpt lat="59.3686847202" lon="34.6532258391"><ele>160.51</ele><time>2026-08-15T15:32:46Z</time></trkpt><trkpt lat="59.3687703833" lon="34.6531783976"><ele>160.63</ele><time>2026-08-15T15:33:15Z</time></trkpt><trkpt lat="59.3688294757" lon="34.6533016115"><ele>160.72</ele><time>2026-08-15T15:33:34Z</time></trkpt><trkpt lat="59.3689137138" lon="34.6534596104"><ele>160.69</ele><time>2026-08-15T15:33:54Z</time></trkpt><trkpt lat="59.3690439686" lon="34.6535170265"><ele>160.58</ele><time>2026-08-15T15:34:13Z</time></trkpt><trkpt lat="59.3692043982" lon="34.6535192896"><ele>160.79</ele><time>2026-08-15T15:34:31Z</time></trkpt><trkpt lat="59.3693094235" lon="34.6536689904"><ele>161.11</ele><time>2026-08-15T15:34:53Z</time></trkpt><trkpt lat="59.3694391754" lon="34.6536610276"><ele>161.08</ele><time>2026-08-15T15:35:15Z</time></trkpt><trkpt lat="59.3694862816" lon="34.6536542382"><ele>161.12</ele><time>2026-08-15T15:35:46Z</time></trkpt><trkpt lat="59.3695123494" lon="34.6536331996"><ele>161.33</ele><time>2026-08-15T15:36:18Z</time></trkpt><trkpt lat="59.3695852719" lon="34.6537057031"><ele>160.91</ele><time>2026-08-15T15:36:40Z</time></trkpt><trkpt lat="59.3696100824" lon="34.6538408194"><ele>161.21</ele><time>2026-08-15T15:36:49Z</time></trkpt><trkpt lat="59.3696299475" lon="34.6539341938"><ele>161.01</ele><time>2026-08-15T15:36:56Z</time></trkpt><trkpt lat="59.3697417621" lon="34.6538704075"><ele>161.61</ele><time>2026-08-15T15:37:15Z</time></trkpt><trkpt lat="59.3698604498" lon="34.6539850719"><ele>161.60</ele><time>2026-08-15T15:37:34Z</time></trkpt><trkpt lat="59.3699753657" lon="34.6540880017"><ele>162.26</ele><time>2026-08-15T15:37:53Z</time></trkpt><trkpt lat="59.3700721767" lon="34.6541687194"><ele>161.71</ele><time>2026-08-15T15:38:10Z</time></trkpt><trkpt lat="59.3702274095" lon="34.6541597508"><ele>161.89</ele><time>2026-08-15T15:38:29Z</time></trkpt><trkpt lat="59.3702860828" lon="34.6541945357"><ele>162.00</ele><time>2026-08-15T15:38:47Z</time></trkpt><trkpt lat="59.3703646213" lon="34.6543011535"><ele>161.96</ele><time>2026-08-15T15:39:14Z</time></trkpt><trkpt lat="59.3704086263" lon="34.6543358546"><ele>162.25</ele><time>2026-08-15T15:39:43Z</time></trkpt><trkpt lat="59.3703942094" lon="34.6543151513"><ele>161.58</ele><time>2026-08-15T15:40:12Z</time></trkpt><trkpt lat="59.3704315927" lon="34.6543635987"><ele>161.51</ele><time>2026-08-15T15:40:42Z</time></trkpt><trkpt lat="59.3704522122" lon="34.6543205995"><ele>161.65</ele><time>2026-08-15T15:41:11Z</time></trkpt><trkpt lat="59.3704183493" lon="34.6543305740"><ele>161.69</ele><time>2026-08-15T15:41:50Z</time></trkpt><trkpt lat="59.3703900184" lon="34.6542800311"><ele>161.43</ele><time>2026-08-15T15:42:20Z</time></trkpt><trkpt lat="59.3703909405" lon="34.6543102060"><ele>162.73</ele><time>2026-08-15T15:42:47Z</time></trkpt><trkpt lat="59.3703924492" lon="34.6543231979"><ele>162.49</ele><time>2026-08-15T15:43:01Z</time></trkpt><trkpt lat="59.3704869132" lon="34.6543904208"><ele>162.55</ele><time>2026-08-15T15:43:30Z</time></trkpt><trkpt lat="59.3704670481" lon="34.6543927677"><ele>162.76</ele><time>2026-08-15T15:43:57Z</time></trkpt><trkpt lat="59.3704405613" lon="34.6543781832"><ele>162.90</ele><time>2026-08-15T15:44:25Z</time></trkpt><trkpt lat="59.3704278208" lon="34.6542958729"><ele>163.40</ele><time>2026-08-15T15:44:53Z</time></trkpt><trkpt lat="59.3704284914" lon="34.6542954538"><ele>163.29</ele><time>2026-08-15T15:44:54Z</time></trkpt><trkpt lat="59.3704285752" lon="34.6542926040"><ele>163.09</ele><time>2026-08-15T15:45:15Z</time></trkpt><trkpt lat="59.3705154117" lon="34.6543427277"><ele>163.09</ele><time>2026-08-15T15:45:34Z</time></trkpt><trkpt lat="59.3706235383" lon="34.6545278840"><ele>163.17</ele><time>2026-08-15T15:45:53Z</time></trkpt><trkpt lat="59.3706665374" lon="34.6546880621"><ele>163.07</ele><time>2026-08-15T15:46:13Z</time></trkpt><trkpt lat="59.3707433157" lon="34.6547692828"><ele>162.85</ele><time>2026-08-15T15:46:41Z</time></trkpt><trkpt lat="59.3708545435" lon="34.6547571290"><ele>163.39</ele><time>2026-08-15T15:46:58Z</time></trkpt><trkpt lat="59.3709537014" lon="34.6547261160"><ele>163.68</ele><time>2026-08-15T15:47:16Z</time></trkpt><trkpt lat="59.3710697070" lon="34.6547693666"><ele>163.02</ele><time>2026-08-15T15:47:34Z</time></trkpt><trkpt lat="59.3711608183" lon="34.6548532695"><ele>163.26</ele><time>2026-08-15T15:47:52Z</time></trkpt><trkpt lat="59.3711924180" lon="34.6548600588"><ele>163.00</ele><time>2026-08-15T15:48:24Z</time></trkpt><trkpt lat="59.3712332379" lon="34.6549442131"><ele>162.73</ele><time>2026-08-15T15:48:53Z</time></trkpt><trkpt lat="59.3712936714" lon="34.6551147848"><ele>162.98</ele><time>2026-08-15T15:49:09Z</time></trkpt><trkpt lat="59.3713617325" lon="34.6551404335"><ele>162.89</ele><time>2026-08-15T15:49:28Z</time></trkpt><trkpt lat="59.3714190647" lon="34.6550920699"><ele>163.07</ele><time>2026-08-15T15:49:43Z</time></trkpt><trkpt lat="59.3714241777" lon="34.6550144535"><ele>162.92</ele><time>2026-08-15T15:50:03Z</time></trkpt><trkpt lat="59.3714298774" lon="34.6551128570"><ele>162.49</ele><time>2026-08-15T15:50:28Z</time></trkpt><trkpt lat="59.3715235870" lon="34.6552109253"><ele>162.77</ele><time>2026-08-15T15:50:47Z</time></trkpt><trkpt lat="59.3715887982" lon="34.6552943252"><ele>162.71</ele><time>2026-08-15T15:51:02Z</time></trkpt><trkpt lat="59.3716958351" lon="34.6553929802"><ele>163.03</ele><time>2026-08-15T15:51:22Z</time></trkpt><trkpt lat="59.3717068154" lon="34.6553965844"><ele>162.90</ele><time>2026-08-15T15:51:46Z</time></trkpt><trkpt lat="59.3717870302" lon="34.6553666610"><ele>163.27</ele><time>2026-08-15T15:52:04Z</time></trkpt><trkpt lat="59.3718291074" lon="34.6553368215"><ele>162.54</ele><time>2026-08-15T15:52:23Z</time></trkpt><trkpt lat="59.3718885351" lon="34.6555157751"><ele>162.54</ele><time>2026-08-15T15:52:42Z</time></trkpt><trkpt lat="59.3719741981" lon="34.6556378156"><ele>162.81</ele><time>2026-08-15T15:52:59Z</time></trkpt><trkpt lat="59.3720648065" lon="34.6557349619"><ele>162.08</ele><time>2026-08-15T15:53:17Z</time></trkpt><trkpt lat="59.3721974920" lon="34.6557454392"><ele>162.35</ele><time>2026-08-15T15:53:35Z</time></trkpt><trkpt lat="59.3722502980" lon="34.6557554975"><ele>162.67</ele><time>2026-08-15T15:53:52Z</time></trkpt><trkpt lat="59.3722636253" lon="34.6557785477"><ele>162.45</ele><time>2026-08-15T15:54:22Z</time></trkpt><trkpt lat="59.3722144235" lon="34.6558463573"><ele>162.27</ele><time>2026-08-15T15:54:52Z</time></trkpt><trkpt lat="59.3722849991" lon="34.6557563357"><ele>162.58</ele><time>2026-08-15T15:55:16Z</time></trkpt><trkpt lat="59.3724082969" lon="34.6557057090"><ele>163.36</ele><time>2026-08-15T15:55:32Z</time></trkpt><trkpt lat="59.3725051917" lon="34.6557469480"><ele>163.88</ele><time>2026-08-15T15:55:50Z</time></trkpt><trkpt lat="59.3726031762" lon="34.6559011750"><ele>163.95</ele><time>2026-08-15T15:56:09Z</time></trkpt><trkpt lat="59.3726746738" lon="34.6560056135"><ele>164.06</ele><time>2026-08-15T15:56:26Z</time></trkpt><trkpt lat="59.3727647793" lon="34.6561477706"><ele>165.07</ele><time>2026-08-15T15:56:45Z</time></trkpt><trkpt lat="59.3729112949" lon="34.6560980659"><ele>165.36</ele><time>2026-08-15T15:57:05Z</time></trkpt><trkpt lat="59.3730503507" lon="34.6561910212"><ele>165.44</ele><time>2026-08-15T15:57:26Z</time></trkpt><trkpt lat="59.3730750773" lon="34.6562341880"><ele>165.61</ele><time>2026-08-15T15:57:56Z</time></trkpt><trkpt lat="59.3731231894" lon="34.6562507004"><ele>165.57</ele><time>2026-08-15T15:58:28Z</time></trkpt><trkpt lat="59.3731241953" lon="34.6562611777"><ele>165.43</ele><time>2026-08-15T15:58:58Z</time></trkpt><trkpt lat="59.3732083496" lon="34.6562441625"><ele>166.07</ele><time>2026-08-15T15:59:14Z</time></trkpt><trkpt lat="59.3732989579" lon="34.6563097928"><ele>165.51</ele><time>2026-08-15T15:59:35Z</time></trkpt><trkpt lat="59.3734018877" lon="34.6564977989"><ele>164.54</ele><time>2026-08-15T15:59:54Z</time></trkpt><trkpt lat="59.3734762352" lon="34.6566816978"><ele>164.47</ele><time>2026-08-15T16:00:15Z</time></trkpt><trkpt lat="59.3735584617" lon="34.6566993836"><ele>164.72</ele><time>2026-08-15T16:00:34Z</time></trkpt><trkpt lat="59.3736784067" lon="34.6568864677"><ele>164.13</ele><time>2026-08-15T16:00:56Z</time></trkpt><trkpt lat="59.3736917339" lon="34.6569047403"><ele>164.19</ele><time>2026-08-15T16:00:58Z</time></trkpt><trkpt lat="59.3738311250" lon="34.6568759903"><ele>164.42</ele><time>2026-08-15T16:01:19Z</time></trkpt><trkpt lat="59.3738440331" lon="34.6568721347"><ele>164.63</ele><time>2026-08-15T16:01:25Z</time></trkpt><trkpt lat="59.3739377428" lon="34.6569550317"><ele>164.80</ele><time>2026-08-15T16:01:49Z</time></trkpt><trkpt lat="59.3739767186" lon="34.6570391022"><ele>164.79</ele><time>2026-08-15T16:02:18Z</time></trkpt><trkpt lat="59.3739899620" lon="34.6569816023"><ele>164.66</ele><time>2026-08-15T16:02:45Z</time></trkpt><trkpt lat="59.3740669917" lon="34.6571265254"><ele>164.57</ele><time>2026-08-15T16:03:07Z</time></trkpt><trkpt lat="59.3741967436" lon="34.6571948379"><ele>164.70</ele><time>2026-08-15T16:03:26Z</time></trkpt><trkpt lat="59.3742498010" lon="34.6573595423"><ele>164.22</ele><time>2026-08-15T16:03:43Z</time></trkpt><trkpt lat="59.3743099831" lon="34.6575533319"><ele>164.40</ele><time>2026-08-15T16:04:03Z</time></trkpt><trkpt lat="59.3744073808" lon="34.6576700080"><ele>165.56</ele><time>2026-08-15T16:04:25Z</time></trkpt><trkpt lat="59.3744994979" lon="34.6577936411"><ele>165.33</ele><time>2026-08-15T16:04:45Z</time></trkpt><trkpt lat="59.3746240530" lon="34.6578827407"><ele>165.15</ele><time>2026-08-15T16:05:03Z</time></trkpt><trkpt lat="59.3747099675" lon="34.6580064576"><ele>164.88</ele><time>2026-08-15T16:05:29Z</time></trkpt><trkpt lat="59.3747285753" lon="34.6580404881"><ele>165.00</ele><time>2026-08-15T16:05:56Z</time></trkpt><trkpt lat="59.3747828901" lon="34.6580616944"><ele>164.41</ele><time>2026-08-15T16:06:25Z</time></trkpt><trkpt lat="59.3748542201" lon="34.6580650471"><ele>164.05</ele><time>2026-08-15T16:06:42Z</time></trkpt><trkpt lat="59.3749227840" lon="34.6580575034"><ele>164.47</ele><time>2026-08-15T16:06:58Z</time></trkpt><trkpt lat="59.3750468362" lon="34.6581289172"><ele>163.71</ele><time>2026-08-15T16:07:15Z</time></trkpt><trkpt lat="59.3751780968" lon="34.6581296716"><ele>162.43</ele><time>2026-08-15T16:07:33Z</time></trkpt><trkpt lat="59.3753333297" lon="34.6582688112"><ele>161.34</ele><time>2026-08-15T16:07:52Z</time></trkpt><trkpt lat="59.3753562961" lon="34.6583065297"><ele>161.69</ele><time>2026-08-15T16:08:10Z</time></trkpt><trkpt lat="59.3753433879" lon="34.6583076194"><ele>161.69</ele><time>2026-08-15T16:08:16Z</time></trkpt><trkpt lat="59.3753091060" lon="34.6584878303"><ele>162.09</ele><time>2026-08-15T16:08:48Z</time></trkpt><trkpt lat="59.3753288873" lon="34.6585873235"><ele>162.80</ele><time>2026-08-15T16:09:16Z</time></trkpt><trkpt lat="59.3753401190" lon="34.6588143054"><ele>163.37</ele><time>2026-08-15T16:09:33Z</time></trkpt><trkpt lat="59.3752962817" lon="34.6590495855"><ele>162.97</ele><time>2026-08-15T16:09:54Z</time></trkpt><trkpt lat="59.3752190843" lon="34.6592583787"><ele>163.62</ele><time>2026-08-15T16:10:11Z</time></trkpt><trkpt lat="59.3751719780" lon="34.6594176348"><ele>163.32</ele><time>2026-08-15T16:10:29Z</time></trkpt><trkpt lat="59.3751468323" lon="34.6596163698"><ele>163.29</ele><time>2026-08-15T16:10:46Z</time></trkpt><trkpt lat="59.3751259614" lon="34.6597211435"><ele>163.43</ele><time>2026-08-15T16:11:02Z</time></trkpt><trkpt lat="59.3751437310" lon="34.6597884502"><ele>163.32</ele><time>2026-08-15T16:11:18Z</time></trkpt><trkpt lat="59.3751785997" lon="34.6598658990"><ele>163.15</ele><time>2026-08-15T16:11:36Z</time></trkpt><trkpt lat="59.3751415517" lon="34.6599866822"><ele>163.27</ele><time>2026-08-15T16:11:56Z</time></trkpt><trkpt lat="59.3750728201" lon="34.6601199545"><ele>163.24</ele><time>2026-08-15T16:12:15Z</time></trkpt><trkpt lat="59.3750383705" lon="34.6602091379"><ele>163.28</ele><time>2026-08-15T16:12:42Z</time></trkpt><trkpt lat="59.3750697188" lon="34.6602040250"><ele>163.29</ele><time>2026-08-15T16:13:12Z</time></trkpt><trkpt lat="59.3750304077" lon="34.6602224652"><ele>163.62</ele><time>2026-08-15T16:13:36Z</time></trkpt><trkpt lat="59.3750581518" lon="34.6600632928"><ele>163.93</ele><time>2026-08-15T16:13:59Z</time></trkpt><trkpt lat="59.3750061840" lon="34.6601444297"><ele>164.43</ele><time>2026-08-15T16:14:18Z</time></trkpt><trkpt lat="59.3750059325" lon="34.6601628698"><ele>164.54</ele><time>2026-08-15T16:14:20Z</time></trkpt><trkpt lat="59.3750045076" lon="34.6604425739"><ele>164.69</ele><time>2026-08-15T16:14:38Z</time></trkpt><trkpt lat="59.3749186769" lon="34.6605530474"><ele>164.08</ele><time>2026-08-15T16:14:56Z</time></trkpt><trkpt lat="59.3748550583" lon="34.6607155725"><ele>165.25</ele><time>2026-08-15T16:15:15Z</time></trkpt><trkpt lat="59.3748852331" lon="34.6609182470"><ele>164.84</ele><time>2026-08-15T16:15:34Z</time></trkpt><trkpt lat="59.3748460896" lon="34.6611016430"><ele>164.16</ele><time>2026-08-15T16:15:55Z</time></trkpt><trkpt lat="59.3748238776" lon="34.6612088475"><ele>163.84</ele><time>2026-08-15T16:16:14Z</time></trkpt><trkpt lat="59.3748203572" lon="34.6612387709"><ele>163.78</ele><time>2026-08-15T16:16:17Z</time></trkpt><trkpt lat="59.3747361191" lon="34.6613487415"><ele>164.12</ele><time>2026-08-15T16:16:36Z</time></trkpt><trkpt lat="59.3747294974" lon="34.6613676846"><ele>163.67</ele><time>2026-08-15T16:16:40Z</time></trkpt><trkpt lat="59.3747167569" lon="34.6616000310"><ele>165.42</ele><time>2026-08-15T16:17:00Z</time></trkpt><trkpt lat="59.3747011665" lon="34.6617377456"><ele>165.28</ele><time>2026-08-15T16:17:19Z</time></trkpt><trkpt lat="59.3746833131" lon="34.6617374104"><ele>165.11</ele><time>2026-08-15T16:17:43Z</time></trkpt><trkpt lat="59.3747090455" lon="34.6618118417"><ele>165.04</ele><time>2026-08-15T16:18:10Z</time></trkpt><trkpt lat="59.3746343628" lon="34.6617942397"><ele>165.60</ele><time>2026-08-15T16:18:26Z</time></trkpt><trkpt lat="59.3744749390" lon="34.6618499793"><ele>165.34</ele><time>2026-08-15T16:18:44Z</time></trkpt><trkpt lat="59.3743372243" lon="34.6619325411"><ele>165.70</ele><time>2026-08-15T16:19:01Z</time></trkpt><trkpt lat="59.3742053770" lon="34.6619973332"><ele>166.22</ele><time>2026-08-15T16:19:16Z</time></trkpt><trkpt lat="59.3741054647" lon="34.6620647237"><ele>166.18</ele><time>2026-08-15T16:19:37Z</time></trkpt><trkpt lat="59.3740258366" lon="34.6619940642"><ele>166.57</ele><time>2026-08-15T16:19:56Z</time></trkpt><trkpt lat="59.3740225676" lon="34.6617316268"><ele>165.04</ele><time>2026-08-15T16:20:16Z</time></trkpt><trkpt lat="59.3739066459" lon="34.6615265217"><ele>165.63</ele><time>2026-08-15T16:20:37Z</time></trkpt><trkpt lat="59.3738307897" lon="34.6614416968"><ele>166.55</ele><time>2026-08-15T16:20:53Z</time></trkpt><trkpt lat="59.3737443723" lon="34.6613583807"><ele>166.23</ele><time>2026-08-15T16:21:24Z</time></trkpt><trkpt lat="59.3737582024" lon="34.6612354182"><ele>166.30</ele><time>2026-08-15T16:21:46Z</time></trkpt><trkpt lat="59.3737775646" lon="34.6612226777"><ele>166.25</ele><time>2026-08-15T16:21:59Z</time></trkpt><trkpt lat="59.3736869562" lon="34.6613240149"><ele>166.61</ele><time>2026-08-15T16:22:20Z</time></trkpt><trkpt lat="59.3736282829" lon="34.6613801736"><ele>164.69</ele><time>2026-08-15T16:22:43Z</time></trkpt><trkpt lat="59.3735543545" lon="34.6613007970"><ele>164.29</ele><time>2026-08-15T16:23:01Z</time></trkpt><trkpt lat="59.3734799232" lon="34.6611845400"><ele>164.33</ele><time>2026-08-15T16:23:21Z</time></trkpt><trkpt lat="59.3733717967" lon="34.6611646749"><ele>165.62</ele><time>2026-08-15T16:23:40Z</time></trkpt><trkpt lat="59.3733040709" lon="34.6610554587"><ele>164.26</ele><time>2026-08-15T16:23:58Z</time></trkpt><trkpt lat="59.3731925916" lon="34.6609727293"><ele>164.05</ele><time>2026-08-15T16:24:16Z</time></trkpt><trkpt lat="59.3731096946" lon="34.6609579772"><ele>163.95</ele><time>2026-08-15T16:24:35Z</time></trkpt><trkpt lat="59.3729900010" lon="34.6608835459"><ele>163.74</ele><time>2026-08-15T16:24:56Z</time></trkpt><trkpt lat="59.3728834670" lon="34.6608065162"><ele>163.74</ele><time>2026-08-15T16:25:16Z</time></trkpt><trkpt lat="59.3727891706" lon="34.6607343480"><ele>163.75</ele><time>2026-08-15T16:25:45Z</time></trkpt><trkpt lat="59.3727517035" lon="34.6606774349"><ele>163.65</ele><time>2026-08-15T16:26:15Z</time></trkpt><trkpt lat="59.3727014959" lon="34.6606558934"><ele>163.58</ele><time>2026-08-15T16:26:34Z</time></trkpt><trkpt lat="59.3726932816" lon="34.6605810430"><ele>164.08</ele><time>2026-08-15T16:26:54Z</time></trkpt><trkpt lat="59.3726364523" lon="34.6604864951"><ele>164.72</ele><time>2026-08-15T16:27:12Z</time></trkpt><trkpt lat="59.3725113105" lon="34.6603684779"><ele>164.74</ele><time>2026-08-15T16:27:34Z</time></trkpt><trkpt lat="59.3724190257" lon="34.6602158435"><ele>164.37</ele><time>2026-08-15T16:27:54Z</time></trkpt><trkpt lat="59.3723165989" lon="34.6600580961"><ele>164.33</ele><time>2026-08-15T16:28:11Z</time></trkpt><trkpt lat="59.3722032756" lon="34.6601466089"><ele>164.51</ele><time>2026-08-15T16:28:31Z</time></trkpt><trkpt lat="59.3721389864" lon="34.6600286756"><ele>164.04</ele><time>2026-08-15T16:28:50Z</time></trkpt><trkpt lat="59.3721037824" lon="34.6599520650"><ele>164.25</ele><time>2026-08-15T16:29:04Z</time></trkpt><trkpt lat="59.3721152656" lon="34.6599819884"><ele>164.35</ele><time>2026-08-15T16:29:34Z</time></trkpt><trkpt lat="59.3721250724" lon="34.6599725168"><ele>164.48</ele><time>2026-08-15T16:30:00Z</time></trkpt><trkpt lat="59.3720668182" lon="34.6598715149"><ele>164.94</ele><time>2026-08-15T16:30:18Z</time></trkpt><trkpt lat="59.3720114138" lon="34.6599110775"><ele>165.46</ele><time>2026-08-15T16:30:36Z</time></trkpt><trkpt lat="59.3719785567" lon="34.6599181183"><ele>165.40</ele><time>2026-08-15T16:30:41Z</time></trkpt><trkpt lat="59.3718505651" lon="34.6599612851"><ele>166.06</ele><time>2026-08-15T16:31:01Z</time></trkpt><trkpt lat="59.3717685901" lon="34.6600950602"><ele>165.37</ele><time>2026-08-15T16:31:18Z</time></trkpt><trkpt lat="59.3717325479" lon="34.6600764524"><ele>165.69</ele><time>2026-08-15T16:31:35Z</time></trkpt><trkpt lat="59.3717393372" lon="34.6598703414"><ele>166.06</ele><time>2026-08-15T16:31:53Z</time></trkpt><trkpt lat="59.3716680072" lon="34.6597652324"><ele>166.40</ele><time>2026-08-15T16:32:09Z</time></trkpt><trkpt lat="59.3716411851" lon="34.6597348060"><ele>166.01</ele><time>2026-08-15T16:32:29Z</time></trkpt><trkpt lat="59.3716286961" lon="34.6596640628"><ele>165.91</ele><time>2026-08-15T16:33:11Z</time></trkpt><trkpt lat="59.3716557696" lon="34.6596226562"><ele>166.13</ele><time>2026-08-15T16:33:50Z</time></trkpt><trkpt lat="59.3716727849" lon="34.6595474705"><ele>166.29</ele><time>2026-08-15T16:34:03Z</time></trkpt><trkpt lat="59.3717290275" lon="34.6593995299"><ele>166.20</ele><time>2026-08-15T16:34:42Z</time></trkpt><trkpt lat="59.3716438673" lon="34.6594644897"><ele>166.24</ele><time>2026-08-15T16:35:14Z</time></trkpt><trkpt lat="59.3716550991" lon="34.6594659146"><ele>166.34</ele><time>2026-08-15T16:35:16Z</time></trkpt><trkpt lat="59.3716872856" lon="34.6594802476"><ele>166.38</ele><time>2026-08-15T16:35:19Z</time></trkpt><trkpt lat="59.3717793189" lon="34.6595324669"><ele>166.38</ele><time>2026-08-15T16:35:49Z</time></trkpt><trkpt lat="59.3717645667" lon="34.6594930720"><ele>166.67</ele><time>2026-08-15T16:35:59Z</time></trkpt><trkpt lat="59.3717511557" lon="34.6594947483"><ele>166.76</ele><time>2026-08-15T16:36:01Z</time></trkpt><trkpt lat="59.3717219867" lon="34.6594898868"><ele>166.77</ele><time>2026-08-15T16:36:30Z</time></trkpt><trkpt lat="59.3717030436" lon="34.6595765557"><ele>167.70</ele><time>2026-08-15T16:36:58Z</time></trkpt><trkpt lat="59.3716506567" lon="34.6595536731"><ele>167.56</ele><time>2026-08-15T16:37:22Z</time></trkpt><trkpt lat="59.3716600444" lon="34.6597314533"><ele>167.27</ele><time>2026-08-15T16:37:37Z</time></trkpt><trkpt lat="59.3716633134" lon="34.6599449404"><ele>167.18</ele><time>2026-08-15T16:37:50Z</time></trkpt><trkpt lat="59.3716528360" lon="34.6600903664"><ele>166.91</ele><time>2026-08-15T16:38:05Z</time></trkpt><trkpt lat="59.3716525845" lon="34.6601741016"><ele>167.26</ele><time>2026-08-15T16:38:13Z</time></trkpt><trkpt lat="59.3716512434" lon="34.6602165978"><ele>167.23</ele><time>2026-08-15T16:38:15Z</time></trkpt><trkpt lat="59.3717250042" lon="34.6604586672"><ele>167.19</ele><time>2026-08-15T16:38:28Z</time></trkpt><trkpt lat="59.3718310352" lon="34.6606136486"><ele>166.52</ele><time>2026-08-15T16:38:43Z</time></trkpt><trkpt lat="59.3719608709" lon="34.6608977951"><ele>166.39</ele><time>2026-08-15T16:39:05Z</time></trkpt><trkpt lat="59.3720477913" lon="34.6610878129"><ele>166.27</ele><time>2026-08-15T16:39:26Z</time></trkpt><trkpt lat="59.3721176963" lon="34.6612334903"><ele>166.97</ele><time>2026-08-15T16:39:53Z</time></trkpt><trkpt lat="59.3721596058" lon="34.6612228453"><ele>167.11</ele><time>2026-08-15T16:40:21Z</time></trkpt><trkpt lat="59.3721650541" lon="34.6611904074"><ele>167.14</ele><time>2026-08-15T16:40:52Z</time></trkpt><trkpt lat="59.3721616175" lon="34.6611478273"><ele>167.34</ele><time>2026-08-15T16:41:20Z</time></trkpt><trkpt lat="59.3721813988" lon="34.6611437201"><ele>167.18</ele><time>2026-08-15T16:41:24Z</time></trkpt><trkpt lat="59.3722630385" lon="34.6612407826"><ele>167.49</ele><time>2026-08-15T16:41:40Z</time></trkpt><trkpt lat="59.3721039500" lon="34.6610817779"><ele>167.25</ele><time>2026-08-15T16:42:00Z</time></trkpt><trkpt lat="59.3720124196" lon="34.6609333344"><ele>167.77</ele><time>2026-08-15T16:42:13Z</time></trkpt><trkpt lat="59.3718821649" lon="34.6607093699"><ele>167.64</ele><time>2026-08-15T16:42:32Z</time></trkpt><trkpt lat="59.3717814982" lon="34.6605581604"><ele>168.17</ele><time>2026-08-15T16:42:48Z</time></trkpt><trkpt lat="59.3717071507" lon="34.6603941265"><ele>168.61</ele><time>2026-08-15T16:43:04Z</time></trkpt><trkpt lat="59.3716646545" lon="34.6601967327"><ele>168.51</ele><time>2026-08-15T16:43:21Z</time></trkpt><trkpt lat="59.3716809154" lon="34.6599581838"><ele>168.66</ele><time>2026-08-15T16:43:41Z</time></trkpt><trkpt lat="59.3716296181" lon="34.6596987639"><ele>169.12</ele><time>2026-08-15T16:44:00Z</time></trkpt><trkpt lat="59.3715467211" lon="34.6595291141"><ele>169.13</ele><time>2026-08-15T16:44:19Z</time></trkpt><trkpt lat="59.3714982737" lon="34.6594966762"><ele>169.01</ele><time>2026-08-15T16:44:35Z</time></trkpt><trkpt lat="59.3714357447" lon="34.6593960095"><ele>169.09</ele><time>2026-08-15T16:44:51Z</time></trkpt><trkpt lat="59.3712624907" lon="34.6594763082"><ele>168.90</ele><time>2026-08-15T16:45:13Z</time></trkpt><trkpt lat="59.3711295538" lon="34.6593864542"><ele>169.05</ele><time>2026-08-15T16:45:40Z</time></trkpt><trkpt lat="59.3711232673" lon="34.6593623143"><ele>168.68</ele><time>2026-08-15T16:46:12Z</time></trkpt><trkpt lat="59.3711589742" lon="34.6593767311"><ele>168.29</ele><time>2026-08-15T16:46:39Z</time></trkpt><trkpt lat="59.3711990397" lon="34.6593790781"><ele>168.34</ele><time>2026-08-15T16:46:49Z</time></trkpt><trkpt lat="59.3711087666" lon="34.6593691874"><ele>168.35</ele><time>2026-08-15T16:47:41Z</time></trkpt><trkpt lat="59.3711628299" lon="34.6594817564"><ele>168.35</ele><time>2026-08-15T16:48:04Z</time></trkpt><trkpt lat="59.3710902426" lon="34.6592572890"><ele>168.35</ele><time>2026-08-15T16:48:33Z</time></trkpt><trkpt lat="59.3711216748" lon="34.6592931636"><ele>168.56</ele><time>2026-08-15T16:49:00Z</time></trkpt><trkpt lat="59.3710622471" lon="34.6592199057"><ele>168.60</ele><time>2026-08-15T16:49:18Z</time></trkpt><trkpt lat="59.3709439784" lon="34.6591428760"><ele>168.65</ele><time>2026-08-15T16:49:37Z</time></trkpt><trkpt lat="59.3708099518" lon="34.6591055766"><ele>168.37</ele><time>2026-08-15T16:49:58Z</time></trkpt><trkpt lat="59.3707156554" lon="34.6591597237"><ele>168.29</ele><time>2026-08-15T16:50:18Z</time></trkpt><trkpt lat="59.3705644459" lon="34.6590327378"><ele>168.29</ele><time>2026-08-15T16:50:38Z</time></trkpt><trkpt lat="59.3704100512" lon="34.6587953623"><ele>168.58</ele><time>2026-08-15T16:50:59Z</time></trkpt><trkpt lat="59.3703353684" lon="34.6586612519"><ele>168.38</ele><time>2026-08-15T16:51:19Z</time></trkpt><trkpt lat="59.3702859152" lon="34.6585927717"><ele>168.34</ele><time>2026-08-15T16:51:45Z</time></trkpt><trkpt lat="59.3702547345" lon="34.6585750859"><ele>168.36</ele><time>2026-08-15T16:52:11Z</time></trkpt><trkpt lat="59.3701868411" lon="34.6585695539"><ele>168.30</ele><time>2026-08-15T16:52:32Z</time></trkpt><trkpt lat="59.3701095600" lon="34.6585019957"><ele>167.71</ele><time>2026-08-15T16:52:52Z</time></trkpt><trkpt lat="59.3700304348" lon="34.6583811287"><ele>168.10</ele><time>2026-08-15T16:53:11Z</time></trkpt><trkpt lat="59.3699643854" lon="34.6583051048"><ele>167.96</ele><time>2026-08-15T16:53:31Z</time></trkpt><trkpt lat="59.3698270898" lon="34.6582328528"><ele>167.75</ele><time>2026-08-15T16:53:52Z</time></trkpt><trkpt lat="59.3697227351" lon="34.6583320946"><ele>167.53</ele><time>2026-08-15T16:54:10Z</time></trkpt><trkpt lat="59.3695792370" lon="34.6583689749"><ele>167.51</ele><time>2026-08-15T16:54:29Z</time></trkpt><trkpt lat="59.3694664165" lon="34.6581896860"><ele>167.39</ele><time>2026-08-15T16:54:47Z</time></trkpt><trkpt lat="59.3693955895" lon="34.6580823138"><ele>167.44</ele><time>2026-08-15T16:55:12Z</time></trkpt><trkpt lat="59.3693716172" lon="34.6580998320"><ele>167.32</ele><time>2026-08-15T16:55:45Z</time></trkpt><trkpt lat="59.3694150355" lon="34.6580352075"><ele>166.94</ele><time>2026-08-15T16:56:17Z</time></trkpt><trkpt lat="59.3693456333" lon="34.6580516361"><ele>167.10</ele><time>2026-08-15T16:56:40Z</time></trkpt><trkpt lat="59.3691884726" lon="34.6579627879"><ele>166.80</ele><time>2026-08-15T16:57:02Z</time></trkpt><trkpt lat="59.3690519314" lon="34.6577336267"><ele>166.82</ele><time>2026-08-15T16:57:23Z</time></trkpt><trkpt lat="59.3689194974" lon="34.6575590316"><ele>166.79</ele><time>2026-08-15T16:57:41Z</time></trkpt><trkpt lat="59.3688234407" lon="34.6574700158"><ele>166.78</ele><time>2026-08-15T16:57:58Z</time></trkpt><trkpt lat="59.3687234446" lon="34.6574993525"><ele>166.77</ele><time>2026-08-15T16:58:18Z</time></trkpt><trkpt lat="59.3686298188" lon="34.6574345604"><ele>166.54</ele><time>2026-08-15T16:58:35Z</time></trkpt><trkpt lat="59.3685859814" lon="34.6573622245"><ele>166.57</ele><time>2026-08-15T16:58:52Z</time></trkpt><trkpt lat="59.3685594946" lon="34.6572759748"><ele>166.47</ele><time>2026-08-15T16:59:18Z</time></trkpt><trkpt lat="59.3685240392" lon="34.6572372504"><ele>166.78</ele><time>2026-08-15T16:59:51Z</time></trkpt><trkpt lat="59.3684479315" lon="34.6571421158"><ele>166.73</ele><time>2026-08-15T17:00:10Z</time></trkpt><trkpt lat="59.3683741707" lon="34.6570600569"><ele>166.43</ele><time>2026-08-15T17:00:26Z</time></trkpt><trkpt lat="59.3682409823" lon="34.6570748929"><ele>166.43</ele><time>2026-08-15T17:00:46Z</time></trkpt><trkpt lat="59.3682126515" lon="34.6570679359"><ele>166.26</ele><time>2026-08-15T17:00:50Z</time></trkpt><trkpt lat="59.3680635374" lon="34.6570677683"><ele>166.29</ele><time>2026-08-15T17:01:10Z</time></trkpt><trkpt lat="59.3679793831" lon="34.6568847913"><ele>166.48</ele><time>2026-08-15T17:01:29Z</time></trkpt><trkpt lat="59.3679254875" lon="34.6568521019"><ele>166.26</ele><time>2026-08-15T17:01:48Z</time></trkpt><trkpt lat="59.3678698316" lon="34.6567712165"><ele>166.16</ele><time>2026-08-15T17:02:08Z</time></trkpt><trkpt lat="59.3677751999" lon="34.6566652693"><ele>166.91</ele><time>2026-08-15T17:02:28Z</time></trkpt><trkpt lat="59.3676952366" lon="34.6566444822"><ele>165.75</ele><time>2026-08-15T17:02:45Z</time></trkpt><trkpt lat="59.3675500620" lon="34.6566885710"><ele>164.59</ele><time>2026-08-15T17:03:04Z</time></trkpt><trkpt lat="59.3674591184" lon="34.6568074264"><ele>164.96</ele><time>2026-08-15T17:03:24Z</time></trkpt><trkpt lat="59.3674463779" lon="34.6568545327"><ele>164.93</ele><time>2026-08-15T17:03:44Z</time></trkpt><trkpt lat="59.3674761336" lon="34.6569376811"><ele>164.53</ele><time>2026-08-15T17:04:26Z</time></trkpt><trkpt lat="59.3673967570" lon="34.6568611544"><ele>164.65</ele><time>2026-08-15T17:04:45Z</time></trkpt><trkpt lat="59.3673687615" lon="34.6568333264"><ele>164.41</ele><time>2026-08-15T17:04:58Z</time></trkpt><trkpt lat="59.3672893848" lon="34.6567982901"><ele>164.50</ele><time>2026-08-15T17:05:17Z</time></trkpt><trkpt lat="59.3672665022" lon="34.6567599010"><ele>164.33</ele><time>2026-08-15T17:05:23Z</time></trkpt><trkpt lat="59.3672198988" lon="34.6567529440"><ele>164.38</ele><time>2026-08-15T17:05:43Z</time></trkpt><trkpt lat="59.3671919033" lon="34.6566172410"><ele>164.44</ele><time>2026-08-15T17:05:59Z</time></trkpt><trkpt lat="59.3671743013" lon="34.6565040015"><ele>164.39</ele><time>2026-08-15T17:06:17Z</time></trkpt><trkpt lat="59.3671535980" lon="34.6563929413"><ele>164.50</ele><time>2026-08-15T17:06:33Z</time></trkpt><trkpt lat="59.3671244290" lon="34.6562869940"><ele>164.48</ele><time>2026-08-15T17:06:52Z</time></trkpt><trkpt lat="59.3670824356" lon="34.6561563201"><ele>164.78</ele><time>2026-08-15T17:07:14Z</time></trkpt><trkpt lat="59.3670015503" lon="34.6560545638"><ele>164.55</ele><time>2026-08-15T17:07:32Z</time></trkpt><trkpt lat="59.3668984529" lon="34.6559681464"><ele>164.97</ele><time>2026-08-15T17:07:51Z</time></trkpt><trkpt lat="59.3667865545" lon="34.6558765322"><ele>164.71</ele><time>2026-08-15T17:08:09Z</time></trkpt><trkpt lat="59.3666888215" lon="34.6558237262"><ele>164.52</ele><time>2026-08-15T17:08:28Z</time></trkpt><trkpt lat="59.3665728159" lon="34.6557768714"><ele>164.45</ele><time>2026-08-15T17:08:51Z</time></trkpt><trkpt lat="59.3664864823" lon="34.6557979099"><ele>164.42</ele><time>2026-08-15T17:09:10Z</time></trkpt><trkpt lat="59.3664057646" lon="34.6558059566"><ele>164.51</ele><time>2026-08-15T17:09:39Z</time></trkpt><trkpt lat="59.3663908448" lon="34.6558440942"><ele>164.35</ele><time>2026-08-15T17:10:04Z</time></trkpt><trkpt lat="59.3663350213" lon="34.6559863351"><ele>164.18</ele><time>2026-08-15T17:10:21Z</time></trkpt><trkpt lat="59.3663432356" lon="34.6561978944"><ele>164.56</ele><time>2026-08-15T17:10:38Z</time></trkpt><trkpt lat="59.3663820438" lon="34.6564028319"><ele>164.27</ele><time>2026-08-15T17:10:58Z</time></trkpt><trkpt lat="59.3663867377" lon="34.6564242058"><ele>164.29</ele><time>2026-08-15T17:11:00Z</time></trkpt><trkpt lat="59.3663314171" lon="34.6565501019"><ele>164.47</ele><time>2026-08-15T17:11:22Z</time></trkpt><trkpt lat="59.3664375320" lon="34.6567441430"><ele>164.54</ele><time>2026-08-15T17:11:42Z</time></trkpt><trkpt lat="59.3664868176" lon="34.6570054069"><ele>164.63</ele><time>2026-08-15T17:12:00Z</time></trkpt><trkpt lat="59.3664626777" lon="34.6572199836"><ele>163.91</ele><time>2026-08-15T17:12:19Z</time></trkpt><trkpt lat="59.3664689641" lon="34.6574737038"><ele>164.16</ele><time>2026-08-15T17:12:39Z</time></trkpt><trkpt lat="59.3664397113" lon="34.6575808246"><ele>163.93</ele><time>2026-08-15T17:12:57Z</time></trkpt><trkpt lat="59.3664698023" lon="34.6576084848"><ele>163.83</ele><time>2026-08-15T17:13:20Z</time></trkpt><trkpt lat="59.3664636835" lon="34.6576234885"><ele>164.07</ele><time>2026-08-15T17:13:49Z</time></trkpt><trkpt lat="59.3664888293" lon="34.6576674096"><ele>164.12</ele><time>2026-08-15T17:14:09Z</time></trkpt><trkpt lat="59.3664758373" lon="34.6577169467"><ele>164.23</ele><time>2026-08-15T17:14:25Z</time></trkpt><trkpt lat="59.3665132206" lon="34.6578604449"><ele>164.22</ele><time>2026-08-15T17:14:41Z</time></trkpt><trkpt lat="59.3665239494" lon="34.6579362173"><ele>164.23</ele><time>2026-08-15T17:15:03Z</time></trkpt><trkpt lat="59.3665185012" lon="34.6581515484"><ele>164.43</ele><time>2026-08-15T17:15:21Z</time></trkpt><trkpt lat="59.3665413838" lon="34.6583800390"><ele>164.49</ele><time>2026-08-15T17:15:40Z</time></trkpt><trkpt lat="59.3665500171" lon="34.6585281473"><ele>164.16</ele><time>2026-08-15T17:15:58Z</time></trkpt><trkpt lat="59.3665531185" lon="34.6586547978"><ele>164.54</ele><time>2026-08-15T17:16:08Z</time></trkpt><trkpt lat="59.3665147293" lon="34.6588710509"><ele>164.49</ele><time>2026-08-15T17:16:26Z</time></trkpt><trkpt lat="59.3664154038" lon="34.6589968633"><ele>164.66</ele><time>2026-08-15T17:16:41Z</time></trkpt><trkpt lat="59.3663484324" lon="34.6590621583"><ele>164.74</ele><time>2026-08-15T17:16:58Z</time></trkpt><trkpt lat="59.3662973866" lon="34.6592095960"><ele>164.64</ele><time>2026-08-15T17:17:19Z</time></trkpt><trkpt lat="59.3662745878" lon="34.6592609771"><ele>164.77</ele><time>2026-08-15T17:17:24Z</time></trkpt><trkpt lat="59.3662249669" lon="34.6594162099"><ele>164.56</ele><time>2026-08-15T17:17:46Z</time></trkpt><trkpt lat="59.3662249669" lon="34.6595001966"><ele>164.79</ele><time>2026-08-15T17:18:10Z</time></trkpt><trkpt lat="59.3662534654" lon="34.6595794894"><ele>165.07</ele><time>2026-08-15T17:18:36Z</time></trkpt><trkpt lat="59.3662497774" lon="34.6596573573"><ele>165.09</ele><time>2026-08-15T17:18:50Z</time></trkpt><trkpt lat="59.3662915193" lon="34.6597773861"><ele>164.83</ele><time>2026-08-15T17:19:05Z</time></trkpt><trkpt lat="59.3663700577" lon="34.6598206367"><ele>165.05</ele><time>2026-08-15T17:19:25Z</time></trkpt><trkpt lat="59.3664745800" lon="34.6597683337"><ele>165.31</ele><time>2026-08-15T17:19:43Z</time></trkpt><trkpt lat="59.3665765040" lon="34.6597375721"><ele>165.36</ele><time>2026-08-15T17:20:03Z</time></trkpt><trkpt lat="59.3667027354" lon="34.6598104946"><ele>165.12</ele><time>2026-08-15T17:20:22Z</time></trkpt><trkpt lat="59.3667274620" lon="34.6598506439"><ele>165.08</ele><time>2026-08-15T17:20:27Z</time></trkpt><trkpt lat="59.3667969480" lon="34.6599748638"><ele>165.60</ele><time>2026-08-15T17:20:50Z</time></trkpt><trkpt lat="59.3668875564" lon="34.6600645501"><ele>165.04</ele><time>2026-08-15T17:21:09Z</time></trkpt><trkpt lat="59.3669550307" lon="34.6601030231"><ele>165.24</ele><time>2026-08-15T17:21:23Z</time></trkpt><trkpt lat="59.3670648336" lon="34.6601328626"><ele>165.48</ele><time>2026-08-15T17:21:43Z</time></trkpt><trkpt lat="59.3671053182" lon="34.6600978263"><ele>165.02</ele><time>2026-08-15T17:22:03Z</time></trkpt><trkpt lat="59.3671553582" lon="34.6601659711"><ele>164.95</ele><time>2026-08-15T17:22:37Z</time></trkpt><trkpt lat="59.3672053143" lon="34.6601019334"><ele>165.54</ele><time>2026-08-15T17:23:03Z</time></trkpt><trkpt lat="59.3672659993" lon="34.6601617802"><ele>165.52</ele><time>2026-08-15T17:23:23Z</time></trkpt><trkpt lat="59.3673556857" lon="34.6601902787"><ele>165.99</ele><time>2026-08-15T17:23:41Z</time></trkpt><trkpt lat="59.3674633931" lon="34.6602682304"><ele>166.12</ele><time>2026-08-15T17:24:04Z</time></trkpt><trkpt lat="59.3675569352" lon="34.6604502853"><ele>166.46</ele><time>2026-08-15T17:24:22Z</time></trkpt><trkpt lat="59.3676352222" lon="34.6606074460"><ele>166.24</ele><time>2026-08-15T17:24:41Z</time></trkpt><trkpt lat="59.3677004334" lon="34.6607502736"><ele>166.26</ele><time>2026-08-15T17:24:59Z</time></trkpt><trkpt lat="59.3678102363" lon="34.6609798539"><ele>166.42</ele><time>2026-08-15T17:25:19Z</time></trkpt><trkpt lat="59.3678677361" lon="34.6610110346"><ele>166.35</ele><time>2026-08-15T17:25:36Z</time></trkpt><trkpt lat="59.3679502141" lon="34.6610345878"><ele>166.44</ele><time>2026-08-15T17:25:54Z</time></trkpt><trkpt lat="59.3679700792" lon="34.6611137968"><ele>166.56</ele><time>2026-08-15T17:26:17Z</time></trkpt><trkpt lat="59.3679835740" lon="34.6611223463"><ele>166.63</ele><time>2026-08-15T17:26:47Z</time></trkpt><trkpt lat="59.3679762818" lon="34.6610751562"><ele>165.85</ele><time>2026-08-15T17:27:09Z</time></trkpt><trkpt lat="59.3679733481" lon="34.6610205900"><ele>165.95</ele><time>2026-08-15T17:27:37Z</time></trkpt><trkpt lat="59.3679445982" lon="34.6609980427"><ele>165.94</ele><time>2026-08-15T17:28:08Z</time></trkpt><trkpt lat="59.3679132499" lon="34.6610344201"><ele>166.79</ele><time>2026-08-15T17:28:45Z</time></trkpt><trkpt lat="59.3679404911" lon="34.6610310674"><ele>166.82</ele><time>2026-08-15T17:29:12Z</time></trkpt><trkpt lat="59.3679585122" lon="34.6610348392"><ele>166.70</ele><time>2026-08-15T17:29:37Z</time></trkpt><trkpt lat="59.3680313509" lon="34.6609187499"><ele>167.13</ele><time>2026-08-15T17:29:55Z</time></trkpt><trkpt lat="59.3680920359" lon="34.6609474998"><ele>166.85</ele><time>2026-08-15T17:30:12Z</time></trkpt><trkpt lat="59.3681207020" lon="34.6611233521"><ele>166.91</ele><time>2026-08-15T17:30:30Z</time></trkpt><trkpt lat="59.3681904394" lon="34.6612370107"><ele>167.56</ele><time>2026-08-15T17:30:48Z</time></trkpt><trkpt lat="59.3682941236" lon="34.6613546088"><ele>167.57</ele><time>2026-08-15T17:31:07Z</time></trkpt><trkpt lat="59.3683698960" lon="34.6613244340"><ele>167.71</ele><time>2026-08-15T17:31:23Z</time></trkpt><trkpt lat="59.3684435729" lon="34.6613632422"><ele>167.45</ele><time>2026-08-15T17:31:40Z</time></trkpt><trkpt lat="59.3685296550" lon="34.6614240110"><ele>167.51</ele><time>2026-08-15T17:31:57Z</time></trkpt><trkpt lat="59.3685681280" lon="34.6614958439"><ele>167.26</ele><time>2026-08-15T17:32:19Z</time></trkpt><trkpt lat="59.3686566409" lon="34.6614963468"><ele>167.40</ele><time>2026-08-15T17:32:37Z</time></trkpt><trkpt lat="59.3686954491" lon="34.6615670063"><ele>167.39</ele><time>2026-08-15T17:32:52Z</time></trkpt><trkpt lat="59.3687553797" lon="34.6615230013"><ele>167.45</ele><time>2026-08-15T17:33:11Z</time></trkpt><trkpt lat="59.3688706309" lon="34.6615652461"><ele>167.55</ele><time>2026-08-15T17:33:31Z</time></trkpt><trkpt lat="59.3689462356" lon="34.6616497356"><ele>167.45</ele><time>2026-08-15T17:33:48Z</time></trkpt><trkpt lat="59.3689740635" lon="34.6617067326"><ele>167.57</ele><time>2026-08-15T17:34:03Z</time></trkpt><trkpt lat="59.3690275401" lon="34.6617638133"><ele>167.71</ele><time>2026-08-15T17:34:18Z</time></trkpt><trkpt lat="59.3690920807" lon="34.6618529968"><ele>167.83</ele><time>2026-08-15T17:34:34Z</time></trkpt><trkpt lat="59.3691560347" lon="34.6619085688"><ele>167.53</ele><time>2026-08-15T17:34:52Z</time></trkpt><trkpt lat="59.3691525143" lon="34.6618527453"><ele>167.74</ele><time>2026-08-15T17:35:08Z</time></trkpt><trkpt lat="59.3691696133" lon="34.6618563496"><ele>167.80</ele><time>2026-08-15T17:35:29Z</time></trkpt><trkpt lat="59.3692467269" lon="34.6619212255"><ele>167.77</ele><time>2026-08-15T17:35:57Z</time></trkpt><trkpt lat="59.3693737127" lon="34.6620715968"><ele>167.73</ele><time>2026-08-15T17:36:18Z</time></trkpt><trkpt lat="59.3695035484" lon="34.6621963196"><ele>168.16</ele><time>2026-08-15T17:36:37Z</time></trkpt><trkpt lat="59.3696555961" lon="34.6623131633"><ele>168.46</ele><time>2026-08-15T17:36:56Z</time></trkpt><trkpt lat="59.3698151037" lon="34.6624231339"><ele>168.47</ele><time>2026-08-15T17:37:16Z</time></trkpt><trkpt lat="59.3699346296" lon="34.6623843256"><ele>168.68</ele><time>2026-08-15T17:37:32Z</time></trkpt><trkpt lat="59.3700520601" lon="34.6623920370"><ele>168.50</ele><time>2026-08-15T17:37:47Z</time></trkpt><trkpt lat="59.3701159302" lon="34.6623637900"><ele>168.34</ele><time>2026-08-15T17:38:07Z</time></trkpt><trkpt lat="59.3701429199" lon="34.6623458527"><ele>168.17</ele><time>2026-08-15T17:38:31Z</time></trkpt><trkpt lat="59.3701648805" lon="34.6623481158"><ele>168.68</ele><time>2026-08-15T17:38:56Z</time></trkpt><trkpt lat="59.3701755255" lon="34.6624159254"><ele>167.78</ele><time>2026-08-15T17:39:18Z</time></trkpt><trkpt lat="59.3701544870" lon="34.6624066215"><ele>168.56</ele><time>2026-08-15T17:39:52Z</time></trkpt><trkpt lat="59.3701754417" lon="34.6624114830"><ele>168.91</ele><time>2026-08-15T17:40:25Z</time></trkpt><trkpt lat="59.3701924570" lon="34.6624327730"><ele>168.79</ele><time>2026-08-15T17:40:53Z</time></trkpt><trkpt lat="59.3701635394" lon="34.6624663845"><ele>169.08</ele><time>2026-08-15T17:41:21Z</time></trkpt><trkpt lat="59.3701984081" lon="34.6625276562"><ele>169.03</ele><time>2026-08-15T17:41:42Z</time></trkpt><trkpt lat="59.3702491187" lon="34.6626282390"><ele>169.00</ele><time>2026-08-15T17:42:01Z</time></trkpt><trkpt lat="59.3703531381" lon="34.6627860703"><ele>168.65</ele><time>2026-08-15T17:42:20Z</time></trkpt><trkpt lat="59.3703745957" lon="34.6628504433"><ele>168.68</ele><time>2026-08-15T17:42:25Z</time></trkpt><trkpt lat="59.3704377115" lon="34.6629245393"><ele>168.33</ele><time>2026-08-15T17:42:43Z</time></trkpt><trkpt lat="59.3704902660" lon="34.6627854835"><ele>168.49</ele><time>2026-08-15T17:43:04Z</time></trkpt><trkpt lat="59.3705855682" lon="34.6626994852"><ele>168.18</ele><time>2026-08-15T17:43:22Z</time></trkpt><trkpt lat="59.3706268072" lon="34.6627181768"><ele>167.91</ele><time>2026-08-15T17:43:30Z</time></trkpt><trkpt lat="59.3707253784" lon="34.6627910994"><ele>167.70</ele><time>2026-08-15T17:43:47Z</time></trkpt><trkpt lat="59.3707658630" lon="34.6628203522"><ele>167.80</ele><time>2026-08-15T17:44:11Z</time></trkpt><trkpt lat="59.3707962893" lon="34.6628735773"><ele>167.76</ele><time>2026-08-15T17:44:42Z</time></trkpt><trkpt lat="59.3708526995" lon="34.6629480924"><ele>167.24</ele><time>2026-08-15T17:45:09Z</time></trkpt><trkpt lat="59.3708606623" lon="34.6629913431"><ele>167.71</ele><time>2026-08-15T17:45:15Z</time></trkpt><trkpt lat="59.3709390331" lon="34.6631832886"><ele>167.46</ele><time>2026-08-15T17:45:34Z</time></trkpt><trkpt lat="59.3710128777" lon="34.6632360946"><ele>167.65</ele><time>2026-08-15T17:45:55Z</time></trkpt><trkpt lat="59.3710604031" lon="34.6632205043"><ele>167.73</ele><time>2026-08-15T17:46:12Z</time></trkpt><trkpt lat="59.3710914161" lon="34.6632657666"><ele>167.74</ele><time>2026-08-15T17:46:30Z</time></trkpt><trkpt lat="59.3711537775" lon="34.6633653436"><ele>167.58</ele><time>2026-08-15T17:46:50Z</time></trkpt><trkpt lat="59.3712303881" lon="34.6634494979"><ele>167.59</ele><time>2026-08-15T17:47:09Z</time></trkpt><trkpt lat="59.3712538574" lon="34.6634323988"><ele>167.55</ele><time>2026-08-15T17:47:14Z</time></trkpt><trkpt lat="59.3713963497" lon="34.6635252703"><ele>167.60</ele><time>2026-08-15T17:47:39Z</time></trkpt><trkpt lat="59.3714417797" lon="34.6634986997"><ele>167.31</ele><time>2026-08-15T17:47:53Z</time></trkpt><trkpt lat="59.3714930769" lon="34.6634992864"><ele>167.37</ele><time>2026-08-15T17:48:02Z</time></trkpt><trkpt lat="59.3715528399" lon="34.6635044832"><ele>167.38</ele><time>2026-08-15T17:48:17Z</time></trkpt><trkpt lat="59.3716174643" lon="34.6635613963"><ele>167.54</ele><time>2026-08-15T17:48:38Z</time></trkpt><trkpt lat="59.3716328871" lon="34.6636077482"><ele>167.56</ele><time>2026-08-15T17:49:01Z</time></trkpt><trkpt lat="59.3716179673" lon="34.6636052337"><ele>167.74</ele><time>2026-08-15T17:49:30Z</time></trkpt><trkpt lat="59.3717000261" lon="34.6636373363"><ele>167.67</ele><time>2026-08-15T17:49:58Z</time></trkpt><trkpt lat="59.3717794027" lon="34.6637055650"><ele>167.92</ele><time>2026-08-15T17:50:19Z</time></trkpt><trkpt lat="59.3718168698" lon="34.6637465525"><ele>168.16</ele><time>2026-08-15T17:50:29Z</time></trkpt><trkpt lat="59.3718839251" lon="34.6638745442"><ele>168.14</ele><time>2026-08-15T17:50:50Z</time></trkpt><trkpt lat="59.3719379883" lon="34.6639602073"><ele>168.32</ele><time>2026-08-15T17:51:13Z</time></trkpt><trkpt lat="59.3720374815" lon="34.6639726125"><ele>168.17</ele><time>2026-08-15T17:51:34Z</time></trkpt><trkpt lat="59.3720464502" lon="34.6639682539"><ele>168.25</ele><time>2026-08-15T17:51:35Z</time></trkpt><trkpt lat="59.3720736075" lon="34.6639842633"><ele>168.30</ele><time>2026-08-15T17:51:42Z</time></trkpt><trkpt lat="59.3720964063" lon="34.6639977582"><ele>168.18</ele><time>2026-08-15T17:51:48Z</time></trkpt><trkpt lat="59.3721410818" lon="34.6640016977"><ele>168.26</ele><time>2026-08-15T17:51:52Z</time></trkpt><trkpt lat="59.3722635414" lon="34.6640740335"><ele>167.96</ele><time>2026-08-15T17:52:11Z</time></trkpt><trkpt lat="59.3723588437" lon="34.6641666535"><ele>168.00</ele><time>2026-08-15T17:52:29Z</time></trkpt><trkpt lat="59.3724490330" lon="34.6642344631"><ele>168.39</ele><time>2026-08-15T17:52:51Z</time></trkpt><trkpt lat="59.3725096341" lon="34.6642363071"><ele>168.50</ele><time>2026-08-15T17:53:13Z</time></trkpt><trkpt lat="59.3725552317" lon="34.6643455233"><ele>168.60</ele><time>2026-08-15T17:53:25Z</time></trkpt><trkpt lat="59.3725820538" lon="34.6645207051"><ele>168.12</ele><time>2026-08-15T17:53:46Z</time></trkpt><trkpt lat="59.3726407271" lon="34.6645475272"><ele>167.72</ele><time>2026-08-15T17:54:06Z</time></trkpt><trkpt lat="59.3727304135" lon="34.6645345353"><ele>167.81</ele><time>2026-08-15T17:54:25Z</time></trkpt><trkpt lat="59.3728067726" lon="34.6644614451"><ele>167.45</ele><time>2026-08-15T17:54:48Z</time></trkpt><trkpt lat="59.3728873227" lon="34.6644640435"><ele>167.66</ele><time>2026-08-15T17:55:06Z</time></trkpt><trkpt lat="59.3729419727" lon="34.6644405741"><ele>167.60</ele><time>2026-08-15T17:55:36Z</time></trkpt><trkpt lat="59.3729959521" lon="34.6644196194"><ele>167.41</ele><time>2026-08-15T17:56:02Z</time></trkpt><trkpt lat="59.3729428109" lon="34.6644381434"><ele>167.13</ele><time>2026-08-15T17:56:21Z</time></trkpt><trkpt lat="59.3729488458" lon="34.6646324359"><ele>167.28</ele><time>2026-08-15T17:56:45Z</time></trkpt><trkpt lat="59.3730249535" lon="34.6646744292"><ele>166.59</ele><time>2026-08-15T17:57:04Z</time></trkpt><trkpt lat="59.3731039111" lon="34.6647068672"><ele>167.28</ele><time>2026-08-15T17:57:23Z</time></trkpt><trkpt lat="59.3732379377" lon="34.6647720784"><ele>167.33</ele><time>2026-08-15T17:57:43Z</time></trkpt><trkpt lat="59.3733226787" lon="34.6648533829"><ele>167.76</ele><time>2026-08-15T17:58:00Z</time></trkpt><trkpt lat="59.3734097667" lon="34.6649113018"><ele>167.98</ele><time>2026-08-15T17:58:16Z</time></trkpt><trkpt lat="59.3734998722" lon="34.6649164986"><ele>167.94</ele><time>2026-08-15T17:58:36Z</time></trkpt><trkpt lat="59.3735686876" lon="34.6649384592"><ele>167.64</ele><time>2026-08-15T17:58:53Z</time></trkpt><trkpt lat="59.3736531772" lon="34.6650066879"><ele>168.45</ele><time>2026-08-15T17:59:12Z</time></trkpt><trkpt lat="59.3737667520" lon="34.6651570592"><ele>168.74</ele><time>2026-08-15T17:59:29Z</time></trkpt><trkpt lat="59.3738308735" lon="34.6652100328"><ele>168.54</ele><time>2026-08-15T17:59:45Z</time></trkpt><trkpt lat="59.3738587853" lon="34.6652790997"><ele>168.67</ele><time>2026-08-15T18:00:13Z</time></trkpt><trkpt lat="59.3738493975" lon="34.6653065085"><ele>168.62</ele><time>2026-08-15T18:00:50Z</time></trkpt><trkpt lat="59.3738573603" lon="34.6653126273"><ele>169.10</ele><time>2026-08-15T18:00:56Z</time></trkpt><trkpt lat="59.3738704361" lon="34.6652743220"><ele>168.79</ele><time>2026-08-15T18:00:59Z</time></trkpt><trkpt lat="59.3738493975" lon="34.6653634217"><ele>168.53</ele><time>2026-08-15T18:01:21Z</time></trkpt><trkpt lat="59.3737986870" lon="34.6655328199"><ele>168.52</ele><time>2026-08-15T18:01:40Z</time></trkpt><trkpt lat="59.3737457972" lon="34.6657567006"><ele>168.13</ele><time>2026-08-15T18:01:57Z</time></trkpt><trkpt lat="59.3737264350" lon="34.6659535915"><ele>168.37</ele><time>2026-08-15T18:02:13Z</time></trkpt><trkpt lat="59.3737296201" lon="34.6659854427"><ele>168.47</ele><time>2026-08-15T18:02:15Z</time></trkpt><trkpt lat="59.3737074919" lon="34.6661748737"><ele>168.49</ele><time>2026-08-15T18:02:34Z</time></trkpt><trkpt lat="59.3736366648" lon="34.6663162764"><ele>168.82</ele><time>2026-08-15T18:02:52Z</time></trkpt><trkpt lat="59.3735609762" lon="34.6664611995"><ele>168.18</ele><time>2026-08-15T18:03:10Z</time></trkpt><trkpt lat="59.3735176418" lon="34.6665646322"><ele>168.81</ele><time>2026-08-15T18:03:30Z</time></trkpt><trkpt lat="59.3734596390" lon="34.6666419134"><ele>167.78</ele><time>2026-08-15T18:03:45Z</time></trkpt><trkpt lat="59.3733671028" lon="34.6667594276"><ele>167.46</ele><time>2026-08-15T18:04:01Z</time></trkpt><trkpt lat="59.3732739799" lon="34.6669417340"><ele>167.87</ele><time>2026-08-15T18:04:21Z</time></trkpt><trkpt lat="59.3731865566" lon="34.6670720726"><ele>168.37</ele><time>2026-08-15T18:04:40Z</time></trkpt><trkpt lat="59.3731283024" lon="34.6672646888"><ele>168.21</ele><time>2026-08-15T18:05:00Z</time></trkpt><trkpt lat="59.3730829563" lon="34.6674487554"><ele>168.09</ele><time>2026-08-15T18:05:17Z</time></trkpt><trkpt lat="59.3729778472" lon="34.6677258611"><ele>167.86</ele><time>2026-08-15T18:05:36Z</time></trkpt><trkpt lat="59.3729109596" lon="34.6678764839"><ele>167.95</ele><time>2026-08-15T18:05:54Z</time></trkpt><trkpt lat="59.3728240393" lon="34.6680602990"><ele>167.81</ele><time>2026-08-15T18:06:11Z</time></trkpt><trkpt lat="59.3727592472" lon="34.6682404261"><ele>167.39</ele><time>2026-08-15T18:06:30Z</time></trkpt><trkpt lat="59.3727120571" lon="34.6684144344"><ele>166.93</ele><time>2026-08-15T18:06:50Z</time></trkpt><trkpt lat="59.3726931978" lon="34.6685064677"><ele>167.09</ele><time>2026-08-15T18:06:58Z</time></trkpt><trkpt lat="59.3726522941" lon="34.6685401630"><ele>167.23</ele><time>2026-08-15T18:07:20Z</time></trkpt><trkpt lat="59.3726290762" lon="34.6685113292"><ele>166.59</ele><time>2026-08-15T18:07:48Z</time></trkpt><trkpt lat="59.3725765217" lon="34.6684068907"><ele>167.07</ele><time>2026-08-15T18:08:09Z</time></trkpt><trkpt lat="59.3725434970" lon="34.6683035418"><ele>167.14</ele><time>2026-08-15T18:08:27Z</time></trkpt><trkpt lat="59.3724875897" lon="34.6683150250"><ele>167.06</ele><time>2026-08-15T18:08:46Z</time></trkpt><trkpt lat="59.3724265695" lon="34.6682711877"><ele>167.35</ele><time>2026-08-15T18:09:06Z</time></trkpt><trkpt lat="59.3723477796" lon="34.6681317966"><ele>167.51</ele><time>2026-08-15T18:09:27Z</time></trkpt><trkpt lat="59.3722238112" lon="34.6680578683"><ele>167.71</ele><time>2026-08-15T18:09:45Z</time></trkpt><trkpt lat="59.3722013477" lon="34.6680504922"><ele>167.61</ele><time>2026-08-15T18:09:51Z</time></trkpt><trkpt lat="59.3720672373" lon="34.6680188086"><ele>167.96</ele><time>2026-08-15T18:10:12Z</time></trkpt><trkpt lat="59.3719870225" lon="34.6680996940"><ele>167.38</ele><time>2026-08-15T18:10:32Z</time></trkpt><trkpt lat="59.3719203025" lon="34.6680202335"><ele>163.12</ele><time>2026-08-15T18:10:49Z</time></trkpt><trkpt lat="59.3719198834" lon="34.6680224128"><ele>167.45</ele><time>2026-08-15T18:10:50Z</time></trkpt><trkpt lat="59.3718747888" lon="34.6680263523"><ele>167.21</ele><time>2026-08-15T18:11:05Z</time></trkpt><trkpt lat="59.3718288559" lon="34.6680437867"><ele>167.75</ele><time>2026-08-15T18:11:22Z</time></trkpt><trkpt lat="59.3717844319" lon="34.6679990273"><ele>167.71</ele><time>2026-08-15T18:11:57Z</time></trkpt><trkpt lat="59.3717873655" lon="34.6679442097"><ele>167.71</ele><time>2026-08-15T18:12:29Z</time></trkpt><trkpt lat="59.3717416003" lon="34.6679432038"><ele>167.32</ele><time>2026-08-15T18:12:49Z</time></trkpt><trkpt lat="59.3716996908" lon="34.6678448003"><ele>167.66</ele><time>2026-08-15T18:13:07Z</time></trkpt><trkpt lat="59.3716737069" lon="34.6676779166"><ele>168.91</ele><time>2026-08-15T18:13:21Z</time></trkpt><trkpt lat="59.3715970963" lon="34.6677467320"><ele>167.87</ele><time>2026-08-15T18:13:38Z</time></trkpt><trkpt lat="59.3714751396" lon="34.6677432116"><ele>167.94</ele><time>2026-08-15T18:13:56Z</time></trkpt><trkpt lat="59.3713576254" lon="34.6676050778"><ele>167.82</ele><time>2026-08-15T18:14:18Z</time></trkpt><trkpt lat="59.3712634966" lon="34.6675339155"><ele>168.24</ele><time>2026-08-15T18:14:37Z</time></trkpt><trkpt lat="59.3712519296" lon="34.6675347537"><ele>168.02</ele><time>2026-08-15T18:14:43Z</time></trkpt><trkpt lat="59.3711632490" lon="34.6675396152"><ele>168.19</ele><time>2026-08-15T18:15:04Z</time></trkpt><trkpt lat="59.3710764125" lon="34.6674848814"><ele>167.98</ele><time>2026-08-15T18:15:22Z</time></trkpt><trkpt lat="59.3710650969" lon="34.6674779244"><ele>168.12</ele><time>2026-08-15T18:15:24Z</time></trkpt><trkpt lat="59.3709625863" lon="34.6674759127"><ele>168.26</ele><time>2026-08-15T18:15:45Z</time></trkpt><trkpt lat="59.3708941899" lon="34.6674313210"><ele>168.01</ele><time>2026-08-15T18:16:17Z</time></trkpt><trkpt lat="59.3709157314" lon="34.6673969552"><ele>168.11</ele><time>2026-08-15T18:16:53Z</time></trkpt><trkpt lat="59.3708504364" lon="34.6673725639"><ele>167.76</ele><time>2026-08-15T18:17:11Z</time></trkpt><trkpt lat="59.3708191719" lon="34.6673839632"><ele>167.92</ele><time>2026-08-15T18:17:30Z</time></trkpt><trkpt lat="59.3707514461" lon="34.6673744917"><ele>167.74</ele><time>2026-08-15T18:17:49Z</time></trkpt><trkpt lat="59.3706137314" lon="34.6673475858"><ele>167.82</ele><time>2026-08-15T18:18:06Z</time></trkpt><trkpt lat="59.3704981450" lon="34.6672974620"><ele>167.91</ele><time>2026-08-15T18:18:22Z</time></trkpt><trkpt lat="59.3704126496" lon="34.6671239566"><ele>168.11</ele><time>2026-08-15T18:18:43Z</time></trkpt><trkpt lat="59.3704066146" lon="34.6671012416"><ele>167.97</ele><time>2026-08-15T18:18:46Z</time></trkpt><trkpt lat="59.3703298364" lon="34.6669733338"><ele>168.24</ele><time>2026-08-15T18:19:07Z</time></trkpt><trkpt lat="59.3702712469" lon="34.6669558994"><ele>167.79</ele><time>2026-08-15T18:19:34Z</time></trkpt><trkpt lat="59.3702053651" lon="34.6671221126"><ele>167.78</ele><time>2026-08-15T18:19:53Z</time></trkpt><trkpt lat="59.3701309338" lon="34.6670843940"><ele>167.75</ele><time>2026-08-15T18:20:11Z</time></trkpt><trkpt lat="59.3700684886" lon="34.6670781914"><ele>167.76</ele><time>2026-08-15T18:20:37Z</time></trkpt><trkpt lat="59.3700625375" lon="34.6670258883"><ele>167.54</ele><time>2026-08-15T18:21:04Z</time></trkpt><trkpt lat="59.3700843304" lon="34.6670450829"><ele>167.32</ele><time>2026-08-15T18:21:29Z</time></trkpt><trkpt lat="59.3700732663" lon="34.6670222003"><ele>167.51</ele><time>2026-08-15T18:21:42Z</time></trkpt><trkpt lat="59.3699726835" lon="34.6670173388"><ele>167.80</ele><time>2026-08-15T18:22:00Z</time></trkpt><trkpt lat="59.3699539080" lon="34.6669765189"><ele>167.73</ele><time>2026-08-15T18:22:23Z</time></trkpt><trkpt lat="59.3699157704" lon="34.6670591645"><ele>167.68</ele><time>2026-08-15T18:22:49Z</time></trkpt><trkpt lat="59.3699150160" lon="34.6670569852"><ele>167.83</ele><time>2026-08-15T18:23:22Z</time></trkpt><trkpt lat="59.3699294329" lon="34.6670844778"><ele>167.89</ele><time>2026-08-15T18:23:55Z</time></trkpt><trkpt lat="59.3699284270" lon="34.6671216097"><ele>168.14</ele><time>2026-08-15T18:24:23Z</time></trkpt><trkpt lat="59.3699148484" lon="34.6671235375"><ele>168.37</ele><time>2026-08-15T18:24:54Z</time></trkpt><trkpt lat="59.3699063826" lon="34.6671546344"><ele>168.24</ele><time>2026-08-15T18:25:34Z</time></trkpt><trkpt lat="59.3699263316" lon="34.6671553049"><ele>168.25</ele><time>2026-08-15T18:26:17Z</time></trkpt><trkpt lat="59.3699015211" lon="34.6671449952"><ele>168.65</ele><time>2026-08-15T18:26:49Z</time></trkpt><trkpt lat="59.3699139263" lon="34.6670166682"><ele>168.50</ele><time>2026-08-15T18:27:18Z</time></trkpt><trkpt lat="59.3698850088" lon="34.6668549813"><ele>168.26</ele><time>2026-08-15T18:27:38Z</time></trkpt><trkpt lat="59.3698139302" lon="34.6667777002"><ele>168.40</ele><time>2026-08-15T18:27:56Z</time></trkpt><trkpt lat="59.3697602022" lon="34.6666498762"><ele>168.42</ele><time>2026-08-15T18:28:16Z</time></trkpt><trkpt lat="59.3696773890" lon="34.6665347088"><ele>168.02</ele><time>2026-08-15T18:28:35Z</time></trkpt><trkpt lat="59.3695818353" lon="34.6664974093"><ele>168.32</ele><time>2026-08-15T18:28:55Z</time></trkpt><trkpt lat="59.3694061507" lon="34.6664519794"><ele>167.75</ele><time>2026-08-15T18:29:20Z</time></trkpt><trkpt lat="59.3692888878" lon="34.6664241515"><ele>168.60</ele><time>2026-08-15T18:29:40Z</time></trkpt><trkpt lat="59.3691913225" lon="34.6664233971"><ele>167.99</ele><time>2026-08-15T18:29:56Z</time></trkpt><trkpt lat="59.3691261113" lon="34.6664637141"><ele>168.02</ele><time>2026-08-15T18:30:21Z</time></trkpt><trkpt lat="59.3691088445" lon="34.6664658096"><ele>167.99</ele><time>2026-08-15T18:30:46Z</time></trkpt><trkpt lat="59.3690717127" lon="34.6664197929"><ele>167.78</ele><time>2026-08-15T18:31:09Z</time></trkpt><trkpt lat="59.3689804338" lon="34.6663766261"><ele>167.92</ele><time>2026-08-15T18:31:26Z</time></trkpt><trkpt lat="59.3688933458" lon="34.6663109958"><ele>168.26</ele><time>2026-08-15T18:31:40Z</time></trkpt><trkpt lat="59.3688169029" lon="34.6663028654"><ele>167.97</ele><time>2026-08-15T18:32:07Z</time></trkpt><trkpt lat="59.3687102851" lon="34.6662317868"><ele>167.88</ele><time>2026-08-15T18:32:24Z</time></trkpt><trkpt lat="59.3686844688" lon="34.6662554238"><ele>167.90</ele><time>2026-08-15T18:32:28Z</time></trkpt><trkpt lat="59.3685762584" lon="34.6661893744"><ele>167.93</ele><time>2026-08-15T18:32:47Z</time></trkpt><trkpt lat="59.3684811238" lon="34.6661179606"><ele>167.68</ele><time>2026-08-15T18:33:05Z</time></trkpt><trkpt lat="59.3684120569" lon="34.6660150308"><ele>167.98</ele><time>2026-08-15T18:33:21Z</time></trkpt><trkpt lat="59.3683806248" lon="34.6659861133"><ele>167.87</ele><time>2026-08-15T18:33:28Z</time></trkpt><trkpt lat="59.3682896812" lon="34.6658656653"><ele>167.70</ele><time>2026-08-15T18:33:50Z</time></trkpt><trkpt lat="59.3682356179" lon="34.6658207383"><ele>167.86</ele><time>2026-08-15T18:34:18Z</time></trkpt><trkpt lat="59.3682036828" lon="34.6658211574"><ele>168.04</ele><time>2026-08-15T18:34:41Z</time></trkpt><trkpt lat="59.3681393936" lon="34.6657976042"><ele>168.04</ele><time>2026-08-15T18:35:09Z</time></trkpt><trkpt lat="59.3681140803" lon="34.6656722110"><ele>167.78</ele><time>2026-08-15T18:35:27Z</time></trkpt><trkpt lat="59.3680501264" lon="34.6655710414"><ele>167.65</ele><time>2026-08-15T18:35:45Z</time></trkpt><trkpt lat="59.3679159321" lon="34.6655214205"><ele>167.60</ele><time>2026-08-15T18:36:02Z</time></trkpt><trkpt lat="59.3678164389" lon="34.6655738913"><ele>167.52</ele><time>2026-08-15T18:36:20Z</time></trkpt><trkpt lat="59.3677622080" lon="34.6655440517"><ele>167.60</ele><time>2026-08-15T18:36:36Z</time></trkpt><trkpt lat="59.3676998466" lon="34.6655360050"><ele>167.61</ele><time>2026-08-15T18:36:53Z</time></trkpt><trkpt lat="59.3676033709" lon="34.6654873062"><ele>167.69</ele><time>2026-08-15T18:37:06Z</time></trkpt><trkpt lat="59.3675057217" lon="34.6653961111"><ele>167.51</ele><time>2026-08-15T18:37:22Z</time></trkpt><trkpt lat="59.3674511556" lon="34.6653425507"><ele>167.49</ele><time>2026-08-15T18:37:36Z</time></trkpt><trkpt lat="59.3674568553" lon="34.6653236914"><ele>167.63</ele><time>2026-08-15T18:38:07Z</time></trkpt><trkpt lat="59.3674446177" lon="34.6653433051"><ele>167.68</ele><time>2026-08-15T18:38:40Z</time></trkpt><trkpt lat="59.3673720304" lon="34.6653442271"><ele>167.55</ele><time>2026-08-15T18:38:51Z</time></trkpt><trkpt lat="59.3672825117" lon="34.6653140523"><ele>167.43</ele><time>2026-08-15T18:39:05Z</time></trkpt><trkpt lat="59.3671686854" lon="34.6653237753"><ele>167.61</ele><time>2026-08-15T18:39:19Z</time></trkpt><trkpt lat="59.3670665938" lon="34.6653196681"><ele>167.71</ele><time>2026-08-15T18:39:33Z</time></trkpt><trkpt lat="59.3669961859" lon="34.6653103642"><ele>167.36</ele><time>2026-08-15T18:39:47Z</time></trkpt><trkpt lat="59.3669569585" lon="34.6652513556"><ele>167.65</ele><time>2026-08-15T18:40:04Z</time></trkpt><trkpt lat="59.3669164740" lon="34.6651816182"><ele>167.11</ele><time>2026-08-15T18:40:23Z</time></trkpt><trkpt lat="59.3668518495" lon="34.6650866512"><ele>167.35</ele><time>2026-08-15T18:40:46Z</time></trkpt><trkpt lat="59.3667867221" lon="34.6649579890"><ele>167.61</ele><time>2026-08-15T18:41:05Z</time></trkpt><trkpt lat="59.3667682819" lon="34.6649253834"><ele>168.96</ele><time>2026-08-15T18:41:10Z</time></trkpt><trkpt lat="59.3667065911" lon="34.6648376249"><ele>167.53</ele><time>2026-08-15T18:41:32Z</time></trkpt><trkpt lat="59.3666512705" lon="34.6647733357"><ele>167.89</ele><time>2026-08-15T18:41:49Z</time></trkpt><trkpt lat="59.3666273821" lon="34.6647721622"><ele>167.89</ele><time>2026-08-15T18:41:56Z</time></trkpt><trkpt lat="59.3665697984" lon="34.6648926102"><ele>167.50</ele><time>2026-08-15T18:42:18Z</time></trkpt><trkpt lat="59.3665283918" lon="34.6649706457"><ele>167.43</ele><time>2026-08-15T18:42:49Z</time></trkpt><trkpt lat="59.3665376958" lon="34.6650449932"><ele>167.60</ele><time>2026-08-15T18:43:13Z</time></trkpt><trkpt lat="59.3665615004" lon="34.6652056742"><ele>167.49</ele><time>2026-08-15T18:43:34Z</time></trkpt><trkpt lat="59.3666146416" lon="34.6652651858"><ele>167.50</ele><time>2026-08-15T18:43:52Z</time></trkpt><trkpt lat="59.3666266277" lon="34.6654073428"><ele>167.34</ele><time>2026-08-15T18:44:09Z</time></trkpt><trkpt lat="59.3666039966" lon="34.6654092707"><ele>167.58</ele><time>2026-08-15T18:44:32Z</time></trkpt><trkpt lat="59.3666638434" lon="34.6654636692"><ele>167.07</ele><time>2026-08-15T18:44:59Z</time></trkpt><trkpt lat="59.3666726444" lon="34.6654657647"><ele>167.08</ele><time>2026-08-15T18:45:31Z</time></trkpt><trkpt lat="59.3666753266" lon="34.6654884797"><ele>167.32</ele><time>2026-08-15T18:45:59Z</time></trkpt><trkpt lat="59.3666603230" lon="34.6654777508"><ele>167.60</ele><time>2026-08-15T18:46:31Z</time></trkpt><trkpt lat="59.3666135520" lon="34.6653671935"><ele>167.32</ele><time>2026-08-15T18:47:04Z</time></trkpt><trkpt lat="59.3665344268" lon="34.6653570514"><ele>167.35</ele><time>2026-08-15T18:47:30Z</time></trkpt><trkpt lat="59.3664376158" lon="34.6652082726"><ele>167.33</ele><time>2026-08-15T18:47:55Z</time></trkpt><trkpt lat="59.3663393799" lon="34.6651060134"><ele>167.41</ele><time>2026-08-15T18:48:16Z</time></trkpt><trkpt lat="59.3662256375" lon="34.6651192568"><ele>167.69</ele><time>2026-08-15T18:48:29Z</time></trkpt><trkpt lat="59.3660963047" lon="34.6651665308"><ele>167.38</ele><time>2026-08-15T18:48:51Z</time></trkpt><trkpt lat="59.3659901898" lon="34.6652108710"><ele>167.66</ele><time>2026-08-15T18:49:09Z</time></trkpt><trkpt lat="59.3658686522" lon="34.6653088555"><ele>167.50</ele><time>2026-08-15T18:49:29Z</time></trkpt><trkpt lat="59.3656928837" lon="34.6652956121"><ele>167.57</ele><time>2026-08-15T18:49:52Z</time></trkpt><trkpt lat="59.3655408360" lon="34.6653081011"><ele>167.05</ele><time>2026-08-15T18:50:10Z</time></trkpt><trkpt lat="59.3654600345" lon="34.6652482543"><ele>167.34</ele><time>2026-08-15T18:50:27Z</time></trkpt><trkpt lat="59.3653060589" lon="34.6651765890"><ele>166.79</ele><time>2026-08-15T18:50:47Z</time></trkpt><trkpt lat="59.3651742116" lon="34.6651953645"><ele>166.84</ele><time>2026-08-15T18:51:07Z</time></trkpt><trkpt lat="59.3650980201" lon="34.6654009726"><ele>166.63</ele><time>2026-08-15T18:51:28Z</time></trkpt><trkpt lat="59.3650639895" lon="34.6654514316"><ele>166.58</ele><time>2026-08-15T18:51:34Z</time></trkpt><trkpt lat="59.3650211580" lon="34.6655092668"><ele>166.69</ele><time>2026-08-15T18:51:39Z</time></trkpt><trkpt lat="59.3650012091" lon="34.6655478235"><ele>166.66</ele><time>2026-08-15T18:51:41Z</time></trkpt><trkpt lat="59.3649155460" lon="34.6656856220"><ele>166.51</ele><time>2026-08-15T18:51:57Z</time></trkpt><trkpt lat="59.3648470659" lon="34.6656386834"><ele>166.85</ele><time>2026-08-15T18:52:20Z</time></trkpt><trkpt lat="59.3648235127" lon="34.6656287927"><ele>166.91</ele><time>2026-08-15T18:52:44Z</time></trkpt><trkpt lat="59.3647981994" lon="34.6656545252"><ele>167.18</ele><time>2026-08-15T18:53:13Z</time></trkpt><trkpt lat="59.3648037314" lon="34.6656261105"><ele>167.20</ele><time>2026-08-15T18:53:42Z</time></trkpt><trkpt lat="59.3648024742" lon="34.6656993683"><ele>167.23</ele><time>2026-08-15T18:54:04Z</time></trkpt><trkpt lat="59.3648210820" lon="34.6656775754"><ele>167.03</ele><time>2026-08-15T18:54:29Z</time></trkpt><trkpt lat="59.3647940923" lon="34.6656448860"><ele>167.08</ele><time>2026-08-15T18:55:01Z</time></trkpt><trkpt lat="59.3648114428" lon="34.6655956842"><ele>167.18</ele><time>2026-08-15T18:55:30Z</time></trkpt><trkpt lat="59.3648662604" lon="34.6656640805"><ele>166.88</ele><time>2026-08-15T18:55:51Z</time></trkpt><trkpt lat="59.3649595510" lon="34.6656161360"><ele>166.57</ele><time>2026-08-15T18:56:08Z</time></trkpt><trkpt lat="59.3649836909" lon="34.6656366717"><ele>166.67</ele><time>2026-08-15T18:56:26Z</time></trkpt><trkpt lat="59.3650482316" lon="34.6657058224"><ele>166.94</ele><time>2026-08-15T18:56:47Z</time></trkpt><trkpt lat="59.3651065696" lon="34.6657935809"><ele>167.69</ele><time>2026-08-15T18:57:04Z</time></trkpt><trkpt lat="59.3651731219" lon="34.6658002026"><ele>167.26</ele><time>2026-08-15T18:57:24Z</time></trkpt><trkpt lat="59.3653419334" lon="34.6657946706"><ele>167.23</ele><time>2026-08-15T18:57:47Z</time></trkpt><trkpt lat="59.3653655704" lon="34.6657910664"><ele>167.37</ele><time>2026-08-15T18:57:51Z</time></trkpt><trkpt lat="59.3654539995" lon="34.6657644957"><ele>167.41</ele><time>2026-08-15T18:58:09Z</time></trkpt><trkpt lat="59.3655394111" lon="34.6657998674"><ele>167.46</ele><time>2026-08-15T18:58:28Z</time></trkpt><trkpt lat="59.3656497169" lon="34.6657228377"><ele>167.94</ele><time>2026-08-15T18:58:48Z</time></trkpt><trkpt lat="59.3657757808" lon="34.6656429581"><ele>167.95</ele><time>2026-08-15T18:59:08Z</time></trkpt><trkpt lat="59.3658880144" lon="34.6655691974"><ele>167.59</ele><time>2026-08-15T18:59:25Z</time></trkpt><trkpt lat="59.3660428282" lon="34.6655842848"><ele>167.32</ele><time>2026-08-15T18:59:44Z</time></trkpt><trkpt lat="59.3661583308" lon="34.6654775832"><ele>167.62</ele><time>2026-08-15T19:00:07Z</time></trkpt><trkpt lat="59.3662449159" lon="34.6654203348"><ele>167.69</ele><time>2026-08-15T19:00:24Z</time></trkpt><trkpt lat="59.3663610052" lon="34.6652109548"><ele>167.51</ele><time>2026-08-15T19:00:46Z</time></trkpt><trkpt lat="59.3664544635" lon="34.6651262138"><ele>167.73</ele><time>2026-08-15T19:01:06Z</time></trkpt><trkpt lat="59.3664906733" lon="34.6651006490"><ele>167.39</ele><time>2026-08-15T19:01:29Z</time></trkpt><trkpt lat="59.3664891645" lon="34.6650926862"><ele>167.31</ele><time>2026-08-15T19:01:31Z</time></trkpt><trkpt lat="59.3664775137" lon="34.6651651058"><ele>167.21</ele><time>2026-08-15T19:01:58Z</time></trkpt><trkpt lat="59.3664893322" lon="34.6651146468"><ele>167.10</ele><time>2026-08-15T19:02:15Z</time></trkpt><trkpt lat="59.3665075209" lon="34.6652271319"><ele>166.49</ele><time>2026-08-15T19:02:46Z</time></trkpt><trkpt lat="59.3664933555" lon="34.6652971208"><ele>166.81</ele><time>2026-08-15T19:03:03Z</time></trkpt><trkpt lat="59.3664673716" lon="34.6654557064"><ele>166.76</ele><time>2026-08-15T19:03:26Z</time></trkpt><trkpt lat="59.3665314093" lon="34.6655054949"><ele>166.64</ele><time>2026-08-15T19:03:46Z</time></trkpt><trkpt lat="59.3666268792" lon="34.6657109354"><ele>166.79</ele><time>2026-08-15T19:04:06Z</time></trkpt><trkpt lat="59.3666732311" lon="34.6659260150"><ele>166.63</ele><time>2026-08-15T19:04:27Z</time></trkpt><trkpt lat="59.3666723929" lon="34.6661222354"><ele>166.37</ele><time>2026-08-15T19:04:46Z</time></trkpt><trkpt lat="59.3666226882" lon="34.6663441882"><ele>166.25</ele><time>2026-08-15T19:05:06Z</time></trkpt><trkpt lat="59.3665701337" lon="34.6664955653"><ele>166.11</ele><time>2026-08-15T19:05:24Z</time></trkpt><trkpt lat="59.3665824551" lon="34.6665169392"><ele>165.91</ele><time>2026-08-15T19:05:44Z</time></trkpt><trkpt lat="59.3665714748" lon="34.6665493771"><ele>165.86</ele><time>2026-08-15T19:06:09Z</time></trkpt><trkpt lat="59.3665503524" lon="34.6665825695"><ele>165.98</ele><time>2026-08-15T19:06:40Z</time></trkpt><trkpt lat="59.3665167410" lon="34.6667144168"><ele>165.97</ele><time>2026-08-15T19:06:57Z</time></trkpt><trkpt lat="59.3664882425" lon="34.6668427438"><ele>166.32</ele><time>2026-08-15T19:07:13Z</time></trkpt><trkpt lat="59.3664641865" lon="34.6669060271"><ele>166.91</ele><time>2026-08-15T19:07:31Z</time></trkpt><trkpt lat="59.3665104546" lon="34.6670620982"><ele>166.29</ele><time>2026-08-15T19:07:49Z</time></trkpt><trkpt lat="59.3664989714" lon="34.6672707237"><ele>166.59</ele><time>2026-08-15T19:08:09Z</time></trkpt><trkpt lat="59.3665368576" lon="34.6674861386"><ele>166.43</ele><time>2026-08-15T19:08:31Z</time></trkpt><trkpt lat="59.3665765878" lon="34.6676699538"><ele>166.42</ele><time>2026-08-15T19:08:52Z</time></trkpt><trkpt lat="59.3666306511" lon="34.6678640787"><ele>166.52</ele><time>2026-08-15T19:09:12Z</time></trkpt><trkpt lat="59.3666666094" lon="34.6679443773"><ele>166.84</ele><time>2026-08-15T19:09:29Z</time></trkpt><trkpt lat="59.3666495103" lon="34.6681678388"><ele>166.70</ele><time>2026-08-15T19:09:49Z</time></trkpt><trkpt lat="59.3666196708" lon="34.6683256701"><ele>167.20</ele><time>2026-08-15T19:10:08Z</time></trkpt><trkpt lat="59.3666234426" lon="34.6683601197"><ele>166.78</ele><time>2026-08-15T19:10:25Z</time></trkpt><trkpt lat="59.3665871490" lon="34.6683933958"><ele>166.89</ele><time>2026-08-15T19:10:49Z</time></trkpt><trkpt lat="59.3666114565" lon="34.6683622152"><ele>166.94</ele><time>2026-08-15T19:10:56Z</time></trkpt><trkpt lat="59.3666447327" lon="34.6683509834"><ele>166.86</ele><time>2026-08-15T19:10:59Z</time></trkpt><trkpt lat="59.3666909169" lon="34.6684277616"><ele>166.83</ele><time>2026-08-15T19:11:24Z</time></trkpt><trkpt lat="59.3667876441" lon="34.6685953997"><ele>166.32</ele><time>2026-08-15T19:11:43Z</time></trkpt><trkpt lat="59.3668585550" lon="34.6687346231"><ele>165.82</ele><time>2026-08-15T19:11:59Z</time></trkpt><trkpt lat="59.3669484090" lon="34.6688052826"><ele>165.88</ele><time>2026-08-15T19:12:17Z</time></trkpt><trkpt lat="59.3670332339" lon="34.6688839886"><ele>165.89</ele><time>2026-08-15T19:12:35Z</time></trkpt><trkpt lat="59.3671370856" lon="34.6689729206"><ele>165.76</ele><time>2026-08-15T19:12:50Z</time></trkpt><trkpt lat="59.3672308791" lon="34.6690552309"><ele>165.67</ele><time>2026-08-15T19:13:06Z</time></trkpt><trkpt lat="59.3672816735" lon="34.6690880042"><ele>165.85</ele><time>2026-08-15T19:13:27Z</time></trkpt><trkpt lat="59.3673820049" lon="34.6691881679"><ele>165.86</ele><time>2026-08-15T19:13:44Z</time></trkpt><trkpt lat="59.3674801569" lon="34.6692141518"><ele>165.75</ele><time>2026-08-15T19:14:03Z</time></trkpt><trkpt lat="59.3674475513" lon="34.6691905148"><ele>165.66</ele><time>2026-08-15T19:14:29Z</time></trkpt><trkpt lat="59.3674230762" lon="34.6692058537"><ele>165.50</ele><time>2026-08-15T19:14:58Z</time></trkpt><trkpt lat="59.3675053027" lon="34.6693133935"><ele>165.33</ele><time>2026-08-15T19:15:23Z</time></trkpt><trkpt lat="59.3675979227" lon="34.6693223622"><ele>165.62</ele><time>2026-08-15T19:15:44Z</time></trkpt><trkpt lat="59.3676364794" lon="34.6693910938"><ele>166.28</ele><time>2026-08-15T19:16:05Z</time></trkpt><trkpt lat="59.3676340487" lon="34.6694601607"><ele>165.76</ele><time>2026-08-15T19:16:29Z</time></trkpt><trkpt lat="59.3676311988" lon="34.6694524493"><ele>165.74</ele><time>2026-08-15T19:16:58Z</time></trkpt><trkpt lat="59.3677119166" lon="34.6695009805"><ele>166.34</ele><time>2026-08-15T19:17:20Z</time></trkpt><trkpt lat="59.3677797262" lon="34.6696091071"><ele>165.91</ele><time>2026-08-15T19:17:40Z</time></trkpt><trkpt lat="59.3678467814" lon="34.6696740668"><ele>165.91</ele><time>2026-08-15T19:18:01Z</time></trkpt><trkpt lat="59.3679316901" lon="34.6697583050"><ele>165.63</ele><time>2026-08-15T19:18:22Z</time></trkpt><trkpt lat="59.3679727614" lon="34.6698078420"><ele>165.24</ele><time>2026-08-15T19:18:41Z</time></trkpt><trkpt lat="59.3680276629" lon="34.6699192375"><ele>165.52</ele><time>2026-08-15T19:19:06Z</time></trkpt><trkpt lat="59.3681041896" lon="34.6699778270"><ele>165.59</ele><time>2026-08-15T19:19:31Z</time></trkpt><trkpt lat="59.3681596778" lon="34.6699962672"><ele>166.21</ele><time>2026-08-15T19:19:52Z</time></trkpt><trkpt lat="59.3682800420" lon="34.6701049805"><ele>166.70</ele><time>2026-08-15T19:20:15Z</time></trkpt><trkpt lat="59.3683961313" lon="34.6701921523"><ele>166.27</ele><time>2026-08-15T19:20:31Z</time></trkpt><trkpt lat="59.3684398849" lon="34.6702329721"><ele>166.28</ele><time>2026-08-15T19:20:44Z</time></trkpt><trkpt lat="59.3684107158" lon="34.6702562738"><ele>165.86</ele><time>2026-08-15T19:20:58Z</time></trkpt><trkpt lat="59.3684082851" lon="34.6702592075"><ele>165.93</ele><time>2026-08-15T19:21:31Z</time></trkpt><trkpt lat="59.3684015796" lon="34.6702771448"><ele>166.38</ele><time>2026-08-15T19:21:44Z</time></trkpt><trkpt lat="59.3685458321" lon="34.6704097465"><ele>166.20</ele><time>2026-08-15T19:22:04Z</time></trkpt><trkpt lat="59.3686231971" lon="34.6704562660"><ele>165.47</ele><time>2026-08-15T19:22:21Z</time></trkpt><trkpt lat="59.3686801940" lon="34.6705213934"><ele>165.24</ele><time>2026-08-15T19:22:40Z</time></trkpt><trkpt lat="59.3687773403" lon="34.6706643887"><ele>165.58</ele><time>2026-08-15T19:23:02Z</time></trkpt><trkpt lat="59.3688992132" lon="34.6706596110"><ele>165.03</ele><time>2026-08-15T19:23:17Z</time></trkpt><trkpt lat="59.3690217566" lon="34.6706614550"><ele>165.00</ele><time>2026-08-15T19:23:37Z</time></trkpt><trkpt lat="59.3691303860" lon="34.6706700046"><ele>165.06</ele><time>2026-08-15T19:23:59Z</time></trkpt><trkpt lat="59.3692109361" lon="34.6707285941"><ele>164.55</ele><time>2026-08-15T19:24:17Z</time></trkpt><trkpt lat="59.3693355750" lon="34.6709065419"><ele>164.26</ele><time>2026-08-15T19:24:37Z</time></trkpt><trkpt lat="59.3693438731" lon="34.6709817275"><ele>164.51</ele><time>2026-08-15T19:24:51Z</time></trkpt><trkpt lat="59.3693384249" lon="34.6710115671"><ele>164.05</ele><time>2026-08-15T19:25:22Z</time></trkpt><trkpt lat="59.3693143688" lon="34.6711652912"><ele>164.24</ele><time>2026-08-15T19:25:45Z</time></trkpt><trkpt lat="59.3693070766" lon="34.6712726634"><ele>164.14</ele><time>2026-08-15T19:26:03Z</time></trkpt><trkpt lat="59.3692360818" lon="34.6714591607"><ele>164.16</ele><time>2026-08-15T19:26:22Z</time></trkpt><trkpt lat="59.3692112714" lon="34.6716339234"><ele>163.49</ele><time>2026-08-15T19:26:42Z</time></trkpt><trkpt lat="59.3692168873" lon="34.6716772579"><ele>163.65</ele><time>2026-08-15T19:26:49Z</time></trkpt><trkpt lat="59.3691528495" lon="34.6720084269"><ele>163.00</ele><time>2026-08-15T19:27:09Z</time></trkpt><trkpt lat="59.3691070843" lon="34.6723393444"><ele>162.52</ele><time>2026-08-15T19:27:29Z</time></trkpt><trkpt lat="59.3691123649" lon="34.6724072378"><ele>162.45</ele><time>2026-08-15T19:27:34Z</time></trkpt><trkpt lat="59.3691014685" lon="34.6724408492"><ele>162.31</ele><time>2026-08-15T19:27:37Z</time></trkpt><trkpt lat="59.3690785859" lon="34.6725269314"><ele>162.37</ele><time>2026-08-15T19:27:44Z</time></trkpt><trkpt lat="59.3690645043" lon="34.6725997701"><ele>162.25</ele><time>2026-08-15T19:28:12Z</time></trkpt><trkpt lat="59.3689998798" lon="34.6727447771"><ele>162.07</ele><time>2026-08-15T19:28:36Z</time></trkpt><trkpt lat="59.3690042384" lon="34.6728176996"><ele>161.96</ele><time>2026-08-15T19:29:04Z</time></trkpt><trkpt lat="59.3689943478" lon="34.6729258262"><ele>162.26</ele><time>2026-08-15T19:29:27Z</time></trkpt><trkpt lat="59.3689345848" lon="34.6731373854"><ele>161.64</ele><time>2026-08-15T19:29:48Z</time></trkpt><trkpt lat="59.3689325731" lon="34.6731418278"><ele>161.64</ele><time>2026-08-15T19:29:49Z</time></trkpt><trkpt lat="59.3688850477" lon="34.6734795347"><ele>161.75</ele><time>2026-08-15T19:30:10Z</time></trkpt><trkpt lat="59.3688280508" lon="34.6737228613"><ele>161.94</ele><time>2026-08-15T19:30:27Z</time></trkpt><trkpt lat="59.3688065931" lon="34.6738063451"><ele>161.78</ele><time>2026-08-15T19:30:33Z</time></trkpt><trkpt lat="59.3687449861" lon="34.6741056629"><ele>161.91</ele><time>2026-08-15T19:30:55Z</time></trkpt><trkpt lat="59.3687117100" lon="34.6741334908"><ele>161.46</ele><time>2026-08-15T19:31:13Z</time></trkpt><trkpt lat="59.3687010650" lon="34.6741488297"><ele>161.36</ele><time>2026-08-15T19:31:25Z</time></trkpt><trkpt lat="59.3686915934" lon="34.6741502546"><ele>161.36</ele><time>2026-08-15T19:31:53Z</time></trkpt><trkpt lat="59.3686699681" lon="34.6742168907"><ele>161.56</ele><time>2026-08-15T19:32:04Z</time></trkpt><trkpt lat="59.3686613347" lon="34.6742812637"><ele>161.76</ele><time>2026-08-15T19:32:30Z</time></trkpt><trkpt lat="59.3686439842" lon="34.6743979398"><ele>161.67</ele><time>2026-08-15T19:32:51Z</time></trkpt><trkpt lat="59.3686406314" lon="34.6746535040"><ele>161.82</ele><time>2026-08-15T19:33:12Z</time></trkpt><trkpt lat="59.3686444871" lon="34.6749160253"><ele>161.81</ele><time>2026-08-15T19:33:33Z</time></trkpt><trkpt lat="59.3686131388" lon="34.6751562506"><ele>161.89</ele><time>2026-08-15T19:33:55Z</time></trkpt><trkpt lat="59.3685469218" lon="34.6752353758"><ele>162.11</ele><time>2026-08-15T19:34:14Z</time></trkpt><trkpt lat="59.3684938643" lon="34.6753298398"><ele>162.37</ele><time>2026-08-15T19:34:40Z</time></trkpt><trkpt lat="59.3684811238" lon="34.6753735095"><ele>162.50</ele><time>2026-08-15T19:35:05Z</time></trkpt><trkpt lat="59.3684679642" lon="34.6754049417"><ele>162.25</ele><time>2026-08-15T19:35:35Z</time></trkpt><trkpt lat="59.3684715685" lon="34.6753367130"><ele>162.76</ele><time>2026-08-15T19:36:05Z</time></trkpt><trkpt lat="59.3684779387" lon="34.6753017604"><ele>162.85</ele><time>2026-08-15T19:36:25Z</time></trkpt><trkpt lat="59.3685338460" lon="34.6752041951"><ele>162.68</ele><time>2026-08-15T19:36:49Z</time></trkpt><trkpt lat="59.3684677128" lon="34.6752543189"><ele>162.81</ele><time>2026-08-15T19:37:27Z</time></trkpt><trkpt lat="59.3684291560" lon="34.6753014252"><ele>163.18</ele><time>2026-08-15T19:37:55Z</time></trkpt><trkpt lat="59.3684939481" lon="34.6751941368"><ele>163.42</ele><time>2026-08-15T19:38:27Z</time></trkpt><trkpt lat="59.3684528768" lon="34.6751990821"><ele>163.51</ele><time>2026-08-15T19:38:56Z</time></trkpt><trkpt lat="59.3684221152" lon="34.6751995012"><ele>163.59</ele><time>2026-08-15T19:39:28Z</time></trkpt><trkpt lat="59.3684312515" lon="34.6752813924"><ele>163.66</ele><time>2026-08-15T19:40:12Z</time></trkpt><trkpt lat="59.3685235362" lon="34.6753559075"><ele>163.76</ele><time>2026-08-15T19:40:48Z</time></trkpt><trkpt lat="59.3685241230" lon="34.6753562428"><ele>163.85</ele><time>2026-08-15T19:41:16Z</time></trkpt><trkpt lat="59.3685301580" lon="34.6753321867"><ele>164.65</ele><time>2026-08-15T19:41:46Z</time></trkpt><trkpt lat="59.3684940320" lon="34.6753907762"><ele>164.65</ele><time>2026-08-15T19:42:09Z</time></trkpt><trkpt lat="59.3685270566" lon="34.6755841468"><ele>164.85</ele><time>2026-08-15T19:42:28Z</time></trkpt><trkpt lat="59.3685693014" lon="34.6758342627"><ele>164.87</ele><time>2026-08-15T19:42:48Z</time></trkpt><trkpt lat="59.3685910106" lon="34.6759507712"><ele>165.10</ele><time>2026-08-15T19:43:06Z</time></trkpt><trkpt lat="59.3686106242" lon="34.6760521084"><ele>165.27</ele><time>2026-08-15T19:43:23Z</time></trkpt><trkpt lat="59.3686076906" lon="34.6760495938"><ele>165.49</ele><time>2026-08-15T19:43:41Z</time></trkpt><trkpt lat="59.3685931899" lon="34.6761275455"><ele>165.33</ele><time>2026-08-15T19:43:55Z</time></trkpt><trkpt lat="59.3685377017" lon="34.6762966923"><ele>165.13</ele><time>2026-08-15T19:44:12Z</time></trkpt><trkpt lat="59.3684988096" lon="34.6763498336"><ele>164.91</ele><time>2026-08-15T19:44:35Z</time></trkpt><trkpt lat="59.3684877455" lon="34.6763582155"><ele>164.97</ele><time>2026-08-15T19:45:10Z</time></trkpt><trkpt lat="59.3684957083" lon="34.6763955150"><ele>165.44</ele><time>2026-08-15T19:45:48Z</time></trkpt><trkpt lat="59.3685386237" lon="34.6765639074"><ele>165.41</ele><time>2026-08-15T19:46:20Z</time></trkpt><trkpt lat="59.3685820419" lon="34.6767621394"><ele>165.75</ele><time>2026-08-15T19:46:40Z</time></trkpt><trkpt lat="59.3686378654" lon="34.6770302765"><ele>165.60</ele><time>2026-08-15T19:47:01Z</time></trkpt><trkpt lat="59.3686314113" lon="34.6770823281"><ele>165.43</ele><time>2026-08-15T19:47:18Z</time></trkpt><trkpt lat="59.3685696367" lon="34.6772740223"><ele>165.47</ele><time>2026-08-15T19:47:37Z</time></trkpt><trkpt lat="59.3684641924" lon="34.6773912851"><ele>165.79</ele><time>2026-08-15T19:47:55Z</time></trkpt><trkpt lat="59.3683211971" lon="34.6774862520"><ele>165.97</ele><time>2026-08-15T19:48:16Z</time></trkpt><trkpt lat="59.3682574946" lon="34.6775456797"><ele>166.01</ele><time>2026-08-15T19:48:37Z</time></trkpt><trkpt lat="59.3681503739" lon="34.6776998229"><ele>166.16</ele><time>2026-08-15T19:48:57Z</time></trkpt><trkpt lat="59.3681321014" lon="34.6777441632"><ele>165.96</ele><time>2026-08-15T19:49:14Z</time></trkpt><trkpt lat="59.3681018427" lon="34.6777441632"><ele>166.14</ele><time>2026-08-15T19:49:44Z</time></trkpt><trkpt lat="59.3681191094" lon="34.6777509525"><ele>166.35</ele><time>2026-08-15T19:50:14Z</time></trkpt><trkpt lat="59.3681848235" lon="34.6778127272"><ele>166.09</ele><time>2026-08-15T19:51:00Z</time></trkpt><trkpt lat="59.3682811316" lon="34.6779216919"><ele>166.17</ele><time>2026-08-15T19:51:19Z</time></trkpt><trkpt lat="59.3683705665" lon="34.6780532878"><ele>166.07</ele><time>2026-08-15T19:51:35Z</time></trkpt><trkpt lat="59.3684582412" lon="34.6781447344"><ele>166.54</ele><time>2026-08-15T19:51:53Z</time></trkpt><trkpt lat="59.3685807846" lon="34.6781206783"><ele>166.45</ele><time>2026-08-15T19:52:13Z</time></trkpt><trkpt lat="59.3686233647" lon="34.6780986339"><ele>166.80</ele><time>2026-08-15T19:52:29Z</time></trkpt><trkpt lat="59.3686344288" lon="34.6781007294"><ele>166.20</ele><time>2026-08-15T19:52:57Z</time></trkpt><trkpt lat="59.3686474208" lon="34.6781344246"><ele>166.31</ele><time>2026-08-15T19:53:35Z</time></trkpt><trkpt lat="59.3685838021" lon="34.6782183275"><ele>166.26</ele><time>2026-08-15T19:54:05Z</time></trkpt><trkpt lat="59.3685698882" lon="34.6781457402"><ele>166.62</ele><time>2026-08-15T19:54:26Z</time></trkpt><trkpt lat="59.3685667869" lon="34.6780990530"><ele>166.71</ele><time>2026-08-15T19:55:08Z</time></trkpt><trkpt lat="59.3685870711" lon="34.6781715564"><ele>167.06</ele><time>2026-08-15T19:55:34Z</time></trkpt><trkpt lat="59.3685988896" lon="34.6781520266"><ele>166.97</ele><time>2026-08-15T19:55:54Z</time></trkpt><trkpt lat="59.3686186709" lon="34.6781493444"><ele>167.14</ele><time>2026-08-15T19:56:19Z</time></trkpt><trkpt lat="59.3686170783" lon="34.6781652700"><ele>167.31</ele><time>2026-08-15T19:56:57Z</time></trkpt><trkpt lat="59.3685415573" lon="34.6782737318"><ele>167.56</ele><time>2026-08-15T19:57:20Z</time></trkpt><trkpt lat="59.3685217761" lon="34.6782820299"><ele>166.93</ele><time>2026-08-15T19:57:42Z</time></trkpt><trkpt lat="59.3685333431" lon="34.6782795154"><ele>167.19</ele><time>2026-08-15T19:58:11Z</time></trkpt><trkpt lat="59.3685226142" lon="34.6782065090"><ele>167.09</ele><time>2026-08-15T19:58:42Z</time></trkpt><trkpt lat="59.3685415573" lon="34.6782252006"><ele>168.10</ele><time>2026-08-15T19:59:06Z</time></trkpt><trkpt lat="59.3685361929" lon="34.6782659367"><ele>168.46</ele><time>2026-08-15T19:59:34Z</time></trkpt><trkpt lat="59.3685376178" lon="34.6783272084"><ele>168.58</ele><time>2026-08-15T20:00:08Z</time></trkpt><trkpt lat="59.3685190938" lon="34.6783056669"><ele>167.96</ele><time>2026-08-15T20:00:33Z</time></trkpt><trkpt lat="59.3685580697" lon="34.6782388631"><ele>168.81</ele><time>2026-08-15T20:01:05Z</time></trkpt><trkpt lat="59.3685741629" lon="34.6783116180"><ele>169.37</ele><time>2026-08-15T20:01:38Z</time></trkpt><trkpt lat="59.3685658649" lon="34.6782976203"><ele>169.70</ele><time>2026-08-15T20:02:10Z</time></trkpt><trkpt lat="59.3685352709" lon="34.6783011407"><ele>169.81</ele><time>2026-08-15T20:02:33Z</time></trkpt><trkpt lat="59.3685173336" lon="34.6782970335"><ele>170.40</ele><time>2026-08-15T20:03:07Z</time></trkpt><trkpt lat="59.3684351910" lon="34.6784515958"><ele>170.14</ele><time>2026-08-15T20:03:27Z</time></trkpt><trkpt lat="59.3683612626" lon="34.6786961798"><ele>170.14</ele><time>2026-08-15T20:03:48Z</time></trkpt><trkpt lat="59.3682551477" lon="34.6788969263"><ele>169.71</ele><time>2026-08-15T20:04:09Z</time></trkpt><trkpt lat="59.3680761941" lon="34.6790471300"><ele>169.79</ele><time>2026-08-15T20:04:29Z</time></trkpt><trkpt lat="59.3679236434" lon="34.6791244950"><ele>169.93</ele><time>2026-08-15T20:04:48Z</time></trkpt><trkpt lat="59.3678093143" lon="34.6790558472"><ele>169.94</ele><time>2026-08-15T20:05:06Z</time></trkpt><trkpt lat="59.3676586077" lon="34.6790562663"><ele>169.78</ele><time>2026-08-15T20:05:24Z</time></trkpt><trkpt lat="59.3674964178" lon="34.6790997684"><ele>169.57</ele><time>2026-08-15T20:05:42Z</time></trkpt><trkpt lat="59.3674303684" lon="34.6791128442"><ele>169.74</ele><time>2026-08-15T20:06:01Z</time></trkpt><trkpt lat="59.3673431128" lon="34.6791866049"><ele>169.76</ele><time>2026-08-15T20:06:24Z</time></trkpt><trkpt lat="59.3673618045" lon="34.6792368963"><ele>169.57</ele><time>2026-08-15T20:06:52Z</time></trkpt><trkpt lat="59.3673136085" lon="34.6793457773"><ele>169.51</ele><time>2026-08-15T20:07:22Z</time></trkpt><trkpt lat="59.3673325516" lon="34.6793366410"><ele>169.86</ele><time>2026-08-15T20:07:48Z</time></trkpt><trkpt lat="59.3673469685" lon="34.6793431789"><ele>168.89</ele><time>2026-08-15T20:08:15Z</time></trkpt><trkpt lat="59.3673275225" lon="34.6792588569"><ele>169.42</ele><time>2026-08-15T20:08:43Z</time></trkpt><trkpt lat="59.3673045561" lon="34.6792050451"><ele>169.78</ele><time>2026-08-15T20:09:11Z</time></trkpt><trkpt lat="59.3673272710" lon="34.6792124212"><ele>169.83</ele><time>2026-08-15T20:09:37Z</time></trkpt><trkpt lat="59.3673621397" lon="34.6791873593"><ele>169.89</ele><time>2026-08-15T20:10:06Z</time></trkpt><trkpt lat="59.3673319649" lon="34.6792285144"><ele>169.92</ele><time>2026-08-15T20:10:29Z</time></trkpt><trkpt lat="59.3672880437" lon="34.6791389119"><ele>169.99</ele><time>2026-08-15T20:10:54Z</time></trkpt><trkpt lat="59.3672980182" lon="34.6791336313"><ele>170.02</ele><time>2026-08-15T20:11:18Z</time></trkpt><trkpt lat="59.3672691006" lon="34.6790549252"><ele>169.99</ele><time>2026-08-15T20:11:42Z</time></trkpt><trkpt lat="59.3673127703" lon="34.6791325416"><ele>170.27</ele><time>2026-08-15T20:12:07Z</time></trkpt><trkpt lat="59.3674203102" lon="34.6793944761"><ele>170.61</ele><time>2026-08-15T20:12:29Z</time></trkpt><trkpt lat="59.3674934842" lon="34.6796606015"><ele>170.67</ele><time>2026-08-15T20:12:47Z</time></trkpt><trkpt lat="59.3675111700" lon="34.6799294092"><ele>170.62</ele><time>2026-08-15T20:13:04Z</time></trkpt><trkpt lat="59.3675815780" lon="34.6800970472"><ele>170.70</ele><time>2026-08-15T20:13:22Z</time></trkpt><trkpt lat="59.3676316179" lon="34.6801700536"><ele>170.76</ele><time>2026-08-15T20:13:38Z</time></trkpt><trkpt lat="59.3675574381" lon="34.6803069301"><ele>170.56</ele><time>2026-08-15T20:14:00Z</time></trkpt><trkpt lat="59.3675015308" lon="34.6804921702"><ele>170.54</ele><time>2026-08-15T20:14:20Z</time></trkpt><trkpt lat="59.3674484733" lon="34.6806642506"><ele>170.63</ele><time>2026-08-15T20:14:37Z</time></trkpt><trkpt lat="59.3674011994" lon="34.6806879714"><ele>170.65</ele><time>2026-08-15T20:14:48Z</time></trkpt><trkpt lat="59.3673009519" lon="34.6808526758"><ele>169.46</ele><time>2026-08-15T20:15:05Z</time></trkpt><trkpt lat="59.3671809230" lon="34.6810867824"><ele>170.33</ele><time>2026-08-15T20:15:26Z</time></trkpt><trkpt lat="59.3671528436" lon="34.6811871976"><ele>170.57</ele><time>2026-08-15T20:15:34Z</time></trkpt><trkpt lat="59.3671118561" lon="34.6812076494"><ele>170.42</ele><time>2026-08-15T20:16:00Z</time></trkpt><trkpt lat="59.3671018817" lon="34.6812351421"><ele>170.54</ele><time>2026-08-15T20:16:31Z</time></trkpt><trkpt lat="59.3670751434" lon="34.6813564282"><ele>170.52</ele><time>2026-08-15T20:16:51Z</time></trkpt><trkpt lat="59.3670537695" lon="34.6815409977"><ele>169.97</ele><time>2026-08-15T20:17:10Z</time></trkpt><trkpt lat="59.3669672683" lon="34.6818245575"><ele>169.89</ele><time>2026-08-15T20:17:31Z</time></trkpt><trkpt lat="59.3669078406" lon="34.6820306685"><ele>169.87</ele><time>2026-08-15T20:17:50Z</time></trkpt><trkpt lat="59.3668622430" lon="34.6821930259"><ele>169.63</ele><time>2026-08-15T20:18:05Z</time></trkpt><trkpt lat="59.3668402825" lon="34.6822102088"><ele>169.56</ele><time>2026-08-15T20:18:29Z</time></trkpt><trkpt lat="59.3668477423" lon="34.6822964586"><ele>169.89</ele><time>2026-08-15T20:18:56Z</time></trkpt><trkpt lat="59.3668056652" lon="34.6823343448"><ele>169.77</ele><time>2026-08-15T20:19:32Z</time></trkpt><trkpt lat="59.3668140471" lon="34.6823572274"><ele>169.91</ele><time>2026-08-15T20:20:03Z</time></trkpt><trkpt lat="59.3668174837" lon="34.6823228616"><ele>169.76</ele><time>2026-08-15T20:20:38Z</time></trkpt><trkpt lat="59.3667985406" lon="34.6823108755"><ele>169.81</ele><time>2026-08-15T20:21:08Z</time></trkpt><trkpt lat="59.3667834532" lon="34.6823460795"><ele>169.88</ele><time>2026-08-15T20:21:47Z</time></trkpt><trkpt lat="59.3667803518" lon="34.6823506057"><ele>170.05</ele><time>2026-08-15T20:22:14Z</time></trkpt><trkpt lat="59.3667949364" lon="34.6823243704"><ele>169.83</ele><time>2026-08-15T20:22:40Z</time></trkpt><trkpt lat="59.3667728081" lon="34.6823502705"><ele>169.99</ele><time>2026-08-15T20:23:03Z</time></trkpt><trkpt lat="59.3667920027" lon="34.6823765058"><ele>170.03</ele><time>2026-08-15T20:23:41Z</time></trkpt><trkpt lat="59.3668354210" lon="34.6823747456"><ele>169.94</ele><time>2026-08-15T20:24:19Z</time></trkpt><trkpt lat="59.3668009713" lon="34.6823883243"><ele>170.06</ele><time>2026-08-15T20:24:47Z</time></trkpt><trkpt lat="59.3668230996" lon="34.6823585685"><ele>170.08</ele><time>2026-08-15T20:25:10Z</time></trkpt><trkpt lat="59.3668244407" lon="34.6823933534"><ele>170.23</ele><time>2026-08-15T20:25:34Z</time></trkpt><trkpt lat="59.3668307271" lon="34.6824076027"><ele>169.66</ele><time>2026-08-15T20:26:03Z</time></trkpt><trkpt lat="59.3667790107" lon="34.6824828722"><ele>170.19</ele><time>2026-08-15T20:26:32Z</time></trkpt><trkpt lat="59.3667569663" lon="34.6826481633"><ele>170.09</ele><time>2026-08-15T20:26:51Z</time></trkpt><trkpt lat="59.3667211756" lon="34.6827533562"><ele>170.23</ele><time>2026-08-15T20:27:09Z</time></trkpt><trkpt lat="59.3666626699" lon="34.6827675216"><ele>169.84</ele><time>2026-08-15T20:27:25Z</time></trkpt><trkpt lat="59.3665941060" lon="34.6829578746"><ele>170.29</ele><time>2026-08-15T20:27:44Z</time></trkpt><trkpt lat="59.3664864823" lon="34.6831439529"><ele>169.91</ele><time>2026-08-15T20:28:02Z</time></trkpt><trkpt lat="59.3664560560" lon="34.6833296958"><ele>169.42</ele><time>2026-08-15T20:28:19Z</time></trkpt><trkpt lat="59.3664190080" lon="34.6834087372"><ele>169.55</ele><time>2026-08-15T20:28:35Z</time></trkpt><trkpt lat="59.3664151523" lon="34.6835430991"><ele>169.40</ele><time>2026-08-15T20:29:07Z</time></trkpt><trkpt lat="59.3664001487" lon="34.6835179534"><ele>169.71</ele><time>2026-08-15T20:29:40Z</time></trkpt><trkpt lat="59.3663544673" lon="34.6835778002"><ele>169.63</ele><time>2026-08-15T20:29:55Z</time></trkpt><trkpt lat="59.3663003203" lon="34.6837957297"><ele>170.94</ele><time>2026-08-15T20:30:18Z</time></trkpt><trkpt lat="59.3661853205" lon="34.6839691512"><ele>170.99</ele><time>2026-08-15T20:30:38Z</time></trkpt><trkpt lat="59.3661007471" lon="34.6842121426"><ele>170.26</ele><time>2026-08-15T20:30:57Z</time></trkpt><trkpt lat="59.3660746794" lon="34.6844341792"><ele>169.97</ele><time>2026-08-15T20:31:12Z</time></trkpt><trkpt lat="59.3660211191" lon="34.6846832894"><ele>169.96</ele><time>2026-08-15T20:31:31Z</time></trkpt><trkpt lat="59.3659354560" lon="34.6849142108"><ele>169.33</ele><time>2026-08-15T20:31:46Z</time></trkpt><trkpt lat="59.3658383097" lon="34.6850885544"><ele>168.57</ele><time>2026-08-15T20:32:04Z</time></trkpt><trkpt lat="59.3658396509" lon="34.6851546876"><ele>168.36</ele><time>2026-08-15T20:32:36Z</time></trkpt><trkpt lat="59.3657559156" lon="34.6852346510"><ele>168.94</ele><time>2026-08-15T20:32:53Z</time></trkpt><trkpt lat="59.3656532373" lon="34.6854044683"><ele>169.47</ele><time>2026-08-15T20:33:13Z</time></trkpt><trkpt lat="59.3656105734" lon="34.6857282612"><ele>169.44</ele><time>2026-08-15T20:33:33Z</time></trkpt><trkpt lat="59.3655957375" lon="34.6859196201"><ele>168.88</ele><time>2026-08-15T20:33:52Z</time></trkpt><trkpt lat="59.3654609565" lon="34.6861740109"><ele>168.17</ele><time>2026-08-15T20:34:11Z</time></trkpt><trkpt lat="59.3653899617" lon="34.6863299981"><ele>168.99</ele><time>2026-08-15T20:34:30Z</time></trkpt><trkpt lat="59.3653736170" lon="34.6864343528"><ele>169.40</ele><time>2026-08-15T20:34:47Z</time></trkpt><trkpt lat="59.3653218169" lon="34.6864923555"><ele>169.96</ele><time>2026-08-15T20:35:02Z</time></trkpt><trkpt lat="59.3652163725" lon="34.6865844727"><ele>170.09</ele><time>2026-08-15T20:35:22Z</time></trkpt><trkpt lat="59.3650662526" lon="34.6865137294"><ele>169.72</ele><time>2026-08-15T20:35:41Z</time></trkpt><trkpt lat="59.3649798352" lon="34.6864992287"><ele>170.15</ele><time>2026-08-15T20:36:01Z</time></trkpt><trkpt lat="59.3648830242" lon="34.6866217721"><ele>170.84</ele><time>2026-08-15T20:36:22Z</time></trkpt><trkpt lat="59.3647903204" lon="34.6867345925"><ele>170.65</ele><time>2026-08-15T20:36:43Z</time></trkpt><trkpt lat="59.3647533562" lon="34.6869366802"><ele>170.46</ele><time>2026-08-15T20:37:02Z</time></trkpt><trkpt lat="59.3647415377" lon="34.6872877143"><ele>170.41</ele><time>2026-08-15T20:37:23Z</time></trkpt><trkpt lat="59.3647743110" lon="34.6875651553"><ele>170.19</ele><time>2026-08-15T20:37:44Z</time></trkpt><trkpt lat="59.3647304736" lon="34.6876336355"><ele>169.61</ele><time>2026-08-15T20:38:15Z</time></trkpt><trkpt lat="59.3647267018" lon="34.6877574362"><ele>169.67</ele><time>2026-08-15T20:38:43Z</time></trkpt><trkpt lat="59.3647260312" lon="34.6879520640"><ele>167.67</ele><time>2026-08-15T20:39:03Z</time></trkpt><trkpt lat="59.3647280429" lon="34.6879632119"><ele>167.66</ele><time>2026-08-15T20:39:04Z</time></trkpt><trkpt lat="59.3647230137" lon="34.6880247351"><ele>169.62</ele><time>2026-08-15T20:39:08Z</time></trkpt><trkpt lat="59.3646652624" lon="34.6882787906"><ele>169.09</ele><time>2026-08-15T20:39:27Z</time></trkpt><trkpt lat="59.3646861333" lon="34.6885963809"><ele>168.98</ele><time>2026-08-15T20:39:48Z</time></trkpt><trkpt lat="59.3646476604" lon="34.6887351852"><ele>168.87</ele><time>2026-08-15T20:39:59Z</time></trkpt><trkpt lat="59.3646209221" lon="34.6887734067"><ele>168.77</ele><time>2026-08-15T20:40:23Z</time></trkpt><trkpt lat="59.3645633385" lon="34.6888812818"><ele>168.81</ele><time>2026-08-15T20:40:54Z</time></trkpt><trkpt lat="59.3645381089" lon="34.6889464092"><ele>168.37</ele><time>2026-08-15T20:41:13Z</time></trkpt><trkpt lat="59.3644912541" lon="34.6891848743"><ele>167.89</ele><time>2026-08-15T20:41:33Z</time></trkpt><trkpt lat="59.3644892424" lon="34.6894950885"><ele>167.63</ele><time>2026-08-15T20:41:55Z</time></trkpt><trkpt lat="59.3645231891" lon="34.6897852700"><ele>167.14</ele><time>2026-08-15T20:42:13Z</time></trkpt><trkpt lat="59.3645175733" lon="34.6899394970"><ele>166.50</ele><time>2026-08-15T20:42:28Z</time></trkpt><trkpt lat="59.3645205069" lon="34.6901097335"><ele>166.64</ele><time>2026-08-15T20:42:49Z</time></trkpt><trkpt lat="59.3644936848" lon="34.6901642997"><ele>166.42</ele><time>2026-08-15T20:43:11Z</time></trkpt><trkpt lat="59.3644739874" lon="34.6902245656"><ele>166.22</ele><time>2026-08-15T20:43:41Z</time></trkpt><trkpt lat="59.3644408789" lon="34.6904082969"><ele>166.50</ele><time>2026-08-15T20:43:58Z</time></trkpt><trkpt lat="59.3644166552" lon="34.6907190979"><ele>165.63</ele><time>2026-08-15T20:44:18Z</time></trkpt><trkpt lat="59.3643956166" lon="34.6909999754"><ele>165.58</ele><time>2026-08-15T20:44:38Z</time></trkpt><trkpt lat="59.3644077703" lon="34.6912766621"><ele>164.78</ele><time>2026-08-15T20:44:55Z</time></trkpt><trkpt lat="59.3643449061" lon="34.6914428752"><ele>164.16</ele><time>2026-08-15T20:45:13Z</time></trkpt><trkpt lat="59.3643370271" lon="34.6914535202"><ele>164.32</ele><time>2026-08-15T20:45:17Z</time></trkpt><trkpt lat="59.3642695528" lon="34.6915666759"><ele>164.18</ele><time>2026-08-15T20:45:39Z</time></trkpt><trkpt lat="59.3641751725" lon="34.6917493176"><ele>163.95</ele><time>2026-08-15T20:45:56Z</time></trkpt><trkpt lat="59.3641687185" lon="34.6917897183"><ele>163.92</ele><time>2026-08-15T20:46:01Z</time></trkpt><trkpt lat="59.3641335145" lon="34.6918639820"><ele>163.76</ele><time>2026-08-15T20:46:26Z</time></trkpt><trkpt lat="59.3641446624" lon="34.6918714419"><ele>163.89</ele><time>2026-08-15T20:46:56Z</time></trkpt><trkpt lat="59.3640859891" lon="34.6921273414"><ele>163.34</ele><time>2026-08-15T20:47:14Z</time></trkpt><trkpt lat="59.3640555628" lon="34.6923981607"><ele>163.50</ele><time>2026-08-15T20:47:30Z</time></trkpt><trkpt lat="59.3640415650" lon="34.6925440058"><ele>163.42</ele><time>2026-08-15T20:47:44Z</time></trkpt><trkpt lat="59.3640698120" lon="34.6926952992"><ele>163.25</ele><time>2026-08-15T20:48:01Z</time></trkpt><trkpt lat="59.3640551437" lon="34.6927440818"><ele>163.46</ele><time>2026-08-15T20:48:16Z</time></trkpt><trkpt lat="59.3640460074" lon="34.6929745004"><ele>163.42</ele><time>2026-08-15T20:48:33Z</time></trkpt><trkpt lat="59.3640347756" lon="34.6932209283"><ele>163.28</ele><time>2026-08-15T20:48:50Z</time></trkpt><trkpt lat="59.3640383799" lon="34.6934573818"><ele>163.65</ele><time>2026-08-15T20:49:08Z</time></trkpt><trkpt lat="59.3640058581" lon="34.6936501656"><ele>163.59</ele><time>2026-08-15T20:49:25Z</time></trkpt><trkpt lat="59.3640013319" lon="34.6939383354"><ele>163.68</ele><time>2026-08-15T20:49:47Z</time></trkpt><trkpt lat="59.3639394734" lon="34.6940676682"><ele>163.87</ele><time>2026-08-15T20:50:06Z</time></trkpt><trkpt lat="59.3638554029" lon="34.6941052191"><ele>163.88</ele><time>2026-08-15T20:50:25Z</time></trkpt><trkpt lat="59.3638025969" lon="34.6942349710"><ele>163.70</ele><time>2026-08-15T20:50:43Z</time></trkpt><trkpt lat="59.3637111504" lon="34.6943636332"><ele>164.91</ele><time>2026-08-15T20:51:03Z</time></trkpt><trkpt lat="59.3636378087" lon="34.6945554949"><ele>164.83</ele><time>2026-08-15T20:51:19Z</time></trkpt><trkpt lat="59.3636209611" lon="34.6947609354"><ele>165.08</ele><time>2026-08-15T20:51:38Z</time></trkpt><trkpt lat="59.3635371421" lon="34.6948502865"><ele>165.09</ele><time>2026-08-15T20:51:56Z</time></trkpt><trkpt lat="59.3634591065" lon="34.6948115621"><ele>165.12</ele><time>2026-08-15T20:52:15Z</time></trkpt><trkpt lat="59.3634105753" lon="34.6948030964"><ele>165.18</ele><time>2026-08-15T20:52:22Z</time></trkpt><trkpt lat="59.3634311948" lon="34.6948074549"><ele>164.97</ele><time>2026-08-15T20:52:42Z</time></trkpt><trkpt lat="59.3635383155" lon="34.6948844846"><ele>165.38</ele><time>2026-08-15T20:53:03Z</time></trkpt><trkpt lat="59.3636088073" lon="34.6949192695"><ele>165.73</ele><time>2026-08-15T20:53:22Z</time></trkpt><trkpt lat="59.3635865115" lon="34.6950327605"><ele>165.63</ele><time>2026-08-15T20:53:41Z</time></trkpt><trkpt lat="59.3635621201" lon="34.6951445751"><ele>166.09</ele><time>2026-08-15T20:54:02Z</time></trkpt><trkpt lat="59.3635395728" lon="34.6952885762"><ele>166.11</ele><time>2026-08-15T20:54:18Z</time></trkpt><trkpt lat="59.3635142595" lon="34.6954254527"><ele>166.18</ele><time>2026-08-15T20:54:40Z</time></trkpt><trkpt lat="59.3634687457" lon="34.6955225151"><ele>165.86</ele><time>2026-08-15T20:55:04Z</time></trkpt><trkpt lat="59.3634038698" lon="34.6955993772"><ele>166.04</ele><time>2026-08-15T20:55:23Z</time></trkpt><trkpt lat="59.3633147702" lon="34.6956976131"><ele>165.79</ele><time>2026-08-15T20:55:40Z</time></trkpt><trkpt lat="59.3632822484" lon="34.6958594676"><ele>166.15</ele><time>2026-08-15T20:55:57Z</time></trkpt><trkpt lat="59.3632539175" lon="34.6960175503"><ele>166.42</ele><time>2026-08-15T20:56:13Z</time></trkpt><trkpt lat="59.3631974235" lon="34.6962311212"><ele>166.20</ele><time>2026-08-15T20:56:33Z</time></trkpt><trkpt lat="59.3631509040" lon="34.6963467076"><ele>166.38</ele><time>2026-08-15T20:56:52Z</time></trkpt><trkpt lat="59.3630670011" lon="34.6965313610"><ele>165.98</ele><time>2026-08-15T20:57:14Z</time></trkpt><trkpt lat="59.3630244210" lon="34.6967627853"><ele>165.45</ele><time>2026-08-15T20:57:34Z</time></trkpt><trkpt lat="59.3629664183" lon="34.6969884261"><ele>166.04</ele><time>2026-08-15T20:57:53Z</time></trkpt><trkpt lat="59.3629672565" lon="34.6970580798"><ele>165.88</ele><time>2026-08-15T20:58:14Z</time></trkpt><trkpt lat="59.3629547674" lon="34.6970496140"><ele>165.87</ele><time>2026-08-15T20:58:40Z</time></trkpt><trkpt lat="59.3629441224" lon="34.6971765161"><ele>165.87</ele><time>2026-08-15T20:59:00Z</time></trkpt><trkpt lat="59.3628691882" lon="34.6972642746"><ele>165.96</ele><time>2026-08-15T20:59:21Z</time></trkpt><trkpt lat="59.3628124427" lon="34.6973862313"><ele>165.19</ele><time>2026-08-15T20:59:38Z</time></trkpt><trkpt lat="59.3627836090" lon="34.6975442301"><ele>166.63</ele><time>2026-08-15T20:59:56Z</time></trkpt><trkpt lat="59.3627655879" lon="34.6977142151"><ele>166.04</ele><time>2026-08-15T21:00:16Z</time></trkpt><trkpt lat="59.3626878038" lon="34.6978763212"><ele>166.46</ele><time>2026-08-15T21:00:34Z</time></trkpt><trkpt lat="59.3626245204" lon="34.6980436239"><ele>166.20</ele><time>2026-08-15T21:00:54Z</time></trkpt><trkpt lat="59.3625874724" lon="34.6981691010"><ele>166.09</ele><time>2026-08-15T21:01:09Z</time></trkpt><trkpt lat="59.3625674397" lon="34.6982336417"><ele>166.16</ele><time>2026-08-15T21:01:21Z</time></trkpt><trkpt lat="59.3625313137" lon="34.6983106714"><ele>166.17</ele><time>2026-08-15T21:01:44Z</time></trkpt><trkpt lat="59.3625376001" lon="34.6983305365"><ele>166.50</ele><time>2026-08-15T21:02:02Z</time></trkpt><trkpt lat="59.3625499215" lon="34.6984426863"><ele>166.27</ele><time>2026-08-15T21:02:22Z</time></trkpt><trkpt lat="59.3625325710" lon="34.6984812431"><ele>166.39</ele><time>2026-08-15T21:02:46Z</time></trkpt><trkpt lat="59.3625282124" lon="34.6985124238"><ele>166.57</ele><time>2026-08-15T21:03:17Z</time></trkpt><trkpt lat="59.3625697866" lon="34.6986101568"><ele>166.53</ele><time>2026-08-15T21:03:33Z</time></trkpt><trkpt lat="59.3625780847" lon="34.6987409983"><ele>166.77</ele><time>2026-08-15T21:03:52Z</time></trkpt><trkpt lat="59.3625343312" lon="34.6987828240"><ele>166.84</ele><time>2026-08-15T21:04:17Z</time></trkpt><trkpt lat="59.3624903262" lon="34.6990042739"><ele>167.40</ele><time>2026-08-15T21:04:37Z</time></trkpt><trkpt lat="59.3624133803" lon="34.6991901007"><ele>167.44</ele><time>2026-08-15T21:04:57Z</time></trkpt><trkpt lat="59.3622633442" lon="34.6993747540"><ele>167.84</ele><time>2026-08-15T21:05:16Z</time></trkpt><trkpt lat="59.3621114641" lon="34.6994811203"><ele>167.97</ele><time>2026-08-15T21:05:38Z</time></trkpt><trkpt lat="59.3620194308" lon="34.6997163165"><ele>168.52</ele><time>2026-08-15T21:05:57Z</time></trkpt><trkpt lat="59.3619279843" lon="34.6998586413"><ele>167.95</ele><time>2026-08-15T21:06:15Z</time></trkpt><trkpt lat="59.3619132321" lon="34.6999790892"><ele>168.12</ele><time>2026-08-15T21:06:30Z</time></trkpt><trkpt lat="59.3618372083" lon="34.7001261078"><ele>167.54</ele><time>2026-08-15T21:06:49Z</time></trkpt><trkpt lat="59.3618294969" lon="34.7003501561"><ele>166.86</ele><time>2026-08-15T21:07:07Z</time></trkpt><trkpt lat="59.3617946282" lon="34.7005187161"><ele>166.21</ele><time>2026-08-15T21:07:24Z</time></trkpt><trkpt lat="59.3617822230" lon="34.7005917225"><ele>166.30</ele><time>2026-08-15T21:07:31Z</time></trkpt><trkpt lat="59.3617761042" lon="34.7006452829"><ele>166.37</ele><time>2026-08-15T21:07:35Z</time></trkpt><trkpt lat="59.3617921975" lon="34.7008890286"><ele>166.62</ele><time>2026-08-15T21:08:00Z</time></trkpt><trkpt lat="59.3617584184" lon="34.7011611890"><ele>167.30</ele><time>2026-08-15T21:08:20Z</time></trkpt><trkpt lat="59.3617191911" lon="34.7014018334"><ele>167.27</ele><time>2026-08-15T21:08:37Z</time></trkpt><trkpt lat="59.3615990784" lon="34.7015677951"><ele>167.09</ele><time>2026-08-15T21:08:57Z</time></trkpt><trkpt lat="59.3614321947" lon="34.7015629336"><ele>166.15</ele><time>2026-08-15T21:09:15Z</time></trkpt><trkpt lat="59.3613088131" lon="34.7015479300"><ele>165.19</ele><time>2026-08-15T21:09:35Z</time></trkpt><trkpt lat="59.3612540793" lon="34.7017524485"><ele>164.29</ele><time>2026-08-15T21:09:51Z</time></trkpt><trkpt lat="59.3611830007" lon="34.7019329108"><ele>163.93</ele><time>2026-08-15T21:10:08Z</time></trkpt><trkpt lat="59.3611053005" lon="34.7021195758"><ele>163.83</ele><time>2026-08-15T21:10:28Z</time></trkpt><trkpt lat="59.3610049691" lon="34.7023424506"><ele>163.74</ele><time>2026-08-15T21:10:47Z</time></trkpt><trkpt lat="59.3609096669" lon="34.7024934925"><ele>163.60</ele><time>2026-08-15T21:11:05Z</time></trkpt><trkpt lat="59.3608175498" lon="34.7026949096"><ele>163.63</ele><time>2026-08-15T21:11:26Z</time></trkpt><trkpt lat="59.3607113510" lon="34.7028867714"><ele>163.38</ele><time>2026-08-15T21:11:44Z</time></trkpt><trkpt lat="59.3606219999" lon="34.7031115741"><ele>162.73</ele><time>2026-08-15T21:12:05Z</time></trkpt><trkpt lat="59.3605393544" lon="34.7034506220"><ele>162.80</ele><time>2026-08-15T21:12:27Z</time></trkpt><trkpt lat="59.3604497518" lon="34.7037107963"><ele>162.94</ele><time>2026-08-15T21:12:50Z</time></trkpt><trkpt lat="59.3603965268" lon="34.7038799431"><ele>162.53</ele><time>2026-08-15T21:13:06Z</time></trkpt><trkpt lat="59.3603364285" lon="34.7041653469"><ele>162.32</ele><time>2026-08-15T21:13:23Z</time></trkpt><trkpt lat="59.3602583930" lon="34.7043849528"><ele>162.34</ele><time>2026-08-15T21:13:42Z</time></trkpt><trkpt lat="59.3601926789" lon="34.7046077438"><ele>161.96</ele><time>2026-08-15T21:14:02Z</time></trkpt><trkpt lat="59.3601042498" lon="34.7047366574"><ele>162.20</ele><time>2026-08-15T21:14:19Z</time></trkpt><trkpt lat="59.3600974604" lon="34.7049840074"><ele>161.74</ele><time>2026-08-15T21:14:39Z</time></trkpt><trkpt lat="59.3600496836" lon="34.7050342150"><ele>161.88</ele><time>2026-08-15T21:14:55Z</time></trkpt><trkpt lat="59.3599806167" lon="34.7050912119"><ele>163.82</ele><time>2026-08-15T21:15:16Z</time></trkpt><trkpt lat="59.3599401321" lon="34.7052001767"><ele>163.91</ele><time>2026-08-15T21:15:30Z</time></trkpt><trkpt lat="59.3599450774" lon="34.7052358836"><ele>164.28</ele><time>2026-08-15T21:15:47Z</time></trkpt><trkpt lat="59.3599533755" lon="34.7052315250"><ele>164.33</ele><time>2026-08-15T21:16:09Z</time></trkpt><trkpt lat="59.3599449936" lon="34.7052368894"><ele>164.33</ele><time>2026-08-15T21:16:37Z</time></trkpt><trkpt lat="59.3598864041" lon="34.7053549904"><ele>164.33</ele><time>2026-08-15T21:16:57Z</time></trkpt><trkpt lat="59.3597819656" lon="34.7055469360"><ele>164.80</ele><time>2026-08-15T21:17:13Z</time></trkpt><trkpt lat="59.3596382160" lon="34.7056830581"><ele>164.81</ele><time>2026-08-15T21:17:31Z</time></trkpt><trkpt lat="59.3595077097" lon="34.7058578208"><ele>163.84</ele><time>2026-08-15T21:17:47Z</time></trkpt><trkpt lat="59.3594192807" lon="34.7059934400"><ele>163.53</ele><time>2026-08-15T21:18:00Z</time></trkpt><trkpt lat="59.3593689892" lon="34.7060976271"><ele>163.22</ele><time>2026-08-15T21:18:11Z</time></trkpt><trkpt lat="59.3593208771" lon="34.7061597370"><ele>163.43</ele><time>2026-08-15T21:18:18Z</time></trkpt><trkpt lat="59.3592570908" lon="34.7063353378"><ele>163.10</ele><time>2026-08-15T21:18:34Z</time></trkpt><trkpt lat="59.3591896165" lon="34.7065305524"><ele>163.73</ele><time>2026-08-15T21:18:48Z</time></trkpt><trkpt lat="59.3591336254" lon="34.7067002021"><ele>163.63</ele><time>2026-08-15T21:19:06Z</time></trkpt><trkpt lat="59.3590526562" lon="34.7069507372"><ele>163.43</ele><time>2026-08-15T21:19:24Z</time></trkpt><trkpt lat="59.3589493912" lon="34.7071943153"><ele>163.52</ele><time>2026-08-15T21:19:40Z</time></trkpt><trkpt lat="59.3588707689" lon="34.7073737718"><ele>163.03</ele><time>2026-08-15T21:19:54Z</time></trkpt><trkpt lat="59.3588441983" lon="34.7074205428"><ele>163.13</ele><time>2026-08-15T21:19:58Z</time></trkpt><trkpt lat="59.3587665819" lon="34.7075430863"><ele>163.13</ele><time>2026-08-15T21:20:09Z</time></trkpt><trkpt lat="59.3586594611" lon="34.7077434137"><ele>162.99</ele><time>2026-08-15T21:20:24Z</time></trkpt><trkpt lat="59.3585933279" lon="34.7077829763"><ele>162.96</ele><time>2026-08-15T21:20:40Z</time></trkpt><trkpt lat="59.3585830182" lon="34.7077903524"><ele>163.55</ele><time>2026-08-15T21:20:58Z</time></trkpt><trkpt lat="59.3585373368" lon="34.7078397218"><ele>163.33</ele><time>2026-08-15T21:21:15Z</time></trkpt><trkpt lat="59.3585767318" lon="34.7078291606"><ele>163.22</ele><time>2026-08-15T21:21:30Z</time></trkpt><trkpt lat="59.3585588783" lon="34.7078591678"><ele>163.32</ele><time>2026-08-15T21:21:35Z</time></trkpt><trkpt lat="59.3584382627" lon="34.7080048453"><ele>163.87</ele><time>2026-08-15T21:21:50Z</time></trkpt><trkpt lat="59.3585665058" lon="34.7078478523"><ele>163.28</ele><time>2026-08-15T21:22:05Z</time></trkpt><trkpt lat="59.3585831858" lon="34.7078398895"><ele>163.19</ele><time>2026-08-15T21:22:20Z</time></trkpt><trkpt lat="59.3585810065" lon="34.7078221198"><ele>163.11</ele><time>2026-08-15T21:22:43Z</time></trkpt><trkpt lat="59.3585515860" lon="34.7078024223"><ele>163.45</ele><time>2026-08-15T21:23:06Z</time></trkpt><trkpt lat="59.3585874606" lon="34.7077870835"><ele>163.10</ele><time>2026-08-15T21:23:27Z</time></trkpt><trkpt lat="59.3585642427" lon="34.7077669669"><ele>163.39</ele><time>2026-08-15T21:23:48Z</time></trkpt></trkseg></trk></gpx>